GFSNE_sfc_wetblb_000.txt.gz
Wetbulb
61.62 61.50 61.35 61.03 60.42 59.32 58.37 57.12 54.47 50.83 51.61 54.44 53.12 55.28 55.89 56.06 55.36 54.31 49.79 52.91 54.58 55.12 55.78 55.33 53.57 50.77 49.73 49.10 48.36 47.88 47.05 46.04 45.12 45.04 45.08 45.38 45.87 46.31
61.23 61.13 61.26 61.44 60.68 59.48 58.30 57.58 56.87 54.71 51.74 55.29 55.00 53.84 54.80 54.42 53.08 49.72 47.84 49.63 52.54 54.00 54.10 52.59 50.60 49.13 48.00 47.05 46.43 45.53 44.47 43.42 43.32 43.75 44.07 44.73 44.97 45.03
60.03 60.19 60.18 60.84 60.06 59.22 58.53 57.90 56.73 56.27 53.74 55.32 56.93 56.16 49.05 47.53 48.18 46.34 47.17 47.11 49.48 52.34 51.43 49.56 48.38 47.24 46.32 45.55 44.25 43.28 42.54 41.79 41.98 42.30 42.72 43.43 43.88 43.72
57.48 58.70 58.88 59.63 59.52 59.57 58.54 57.41 56.96 57.03 55.35 53.91 55.88 55.41 47.93 45.50 46.53 44.35 45.14 45.88 46.11 48.82 49.14 48.03 46.85 45.56 44.62 43.70 42.21 41.87 41.17 40.50 40.65 40.65 40.86 41.21 42.06 42.51
55.76 56.30 57.21 57.95 58.05 58.52 58.61 58.04 57.41 56.79 56.67 55.32 54.53 55.68 48.46 45.19 43.72 44.13 43.26 43.81 43.88 46.63 47.27 46.40 44.94 43.74 43.25 41.71 41.09 41.04 40.65 40.06 39.89 39.58 39.40 39.76 40.71 41.91
54.80 55.57 56.33 56.61 57.14 57.83 57.84 57.79 57.51 56.70 56.04 55.21 54.54 53.81 45.01 43.17 44.29 42.76 40.27 41.83 40.57 42.24 43.24 41.74 41.98 42.16 41.33 40.83 40.32 39.70 39.38 39.19 39.15 38.87 38.99 39.49 40.41 40.39
52.04 53.19 54.16 53.85 52.10 54.72 57.02 57.35 57.22 56.33 55.69 54.77 53.44 50.65 43.73 40.49 41.33 42.99 42.65 40.64 40.74 38.85 36.85 36.07 35.16 34.16 34.28 38.68 38.55 38.80 38.54 38.34 38.16 38.60 39.11 39.89 39.89 39.81
49.98 51.30 52.49 51.54 53.35 53.57 53.75 53.27 55.04 55.68 54.79 54.30 53.64 51.62 49.15 47.26 44.12 43.19 42.15 37.33 34.81 36.33 33.99 32.13 31.99 30.61 32.09 31.21 37.15 37.98 37.95 37.98 37.74 38.06 38.57 39.33 38.43 38.55
49.30 50.05 50.89 52.88 51.83 53.87 54.18 53.78 53.31 53.17 53.82 55.47 53.89 52.93 51.45 49.50 45.47 42.12 41.79 38.91 34.37 32.25 31.98 28.43 29.52 28.54 30.35 34.01 37.67 38.02 38.17 37.76 37.60 37.51 38.04 38.15 38.00 37.81
47.27 47.52 49.66 50.60 52.14 52.60 53.06 52.98 53.92 54.84 54.58 53.93 54.60 55.00 54.09 51.87 47.33 44.80 41.93 33.51 30.88 31.68 31.19 26.79 28.54 27.37 29.73 30.77 37.52 37.78 37.82 37.90 37.12 37.19 37.26 36.93 36.95 37.08
46.59 46.98 47.54 48.11 48.86 50.26 50.34 50.63 51.24 53.04 46.43 48.09 50.75 51.42 51.41 49.61 46.19 38.71 33.83 32.99 27.91 28.37 29.92 28.00 25.93 26.62 27.79 28.05 29.01 35.25 36.44 36.19 36.23 36.43 36.82 36.57 36.25 36.50
43.19 43.21 45.29 45.98 47.20 47.65 47.68 48.17 48.48 50.11 41.52 39.85 40.96 43.32 44.84 44.65 43.85 41.32 35.19 32.56 29.80 27.99 30.04 27.14 25.58 25.66 23.86 27.10 26.64 27.47 27.43 34.51 35.17 35.38 35.67 35.62 35.74 29.83
37.40 39.48 42.14 44.75 45.37 45.61 45.70 45.44 45.82 49.52 42.62 38.94 36.16 34.37 34.27 33.67 34.09 34.45 35.25 33.91 30.45 29.10 29.99 27.80 23.30 24.89 24.25 23.09 25.03 25.19 24.36 24.47 24.81 26.78 32.64 33.93 34.35 33.01
36.70 37.94 40.22 42.13 43.12 43.95 44.65 46.05 46.86 47.64 38.09 34.37 32.71 32.02 31.30 31.30 31.81 32.32 32.33 31.53 31.54 30.68 32.14 25.64 22.30 21.71 17.07 20.60 20.42 23.22 21.96 23.22 23.40 24.22 24.34 29.57 32.98 34.08
37.55 39.11 41.35 42.23 43.09 43.40 44.28 44.90 46.17 39.92 35.23 32.94 32.45 31.61 31.41 31.28 30.95 30.25 30.18 30.06 30.06 30.46 29.29 25.61 23.36 20.29 19.42 17.04 18.00 18.65 21.59 22.93 24.52 24.44 22.99 23.43 23.52 24.20
37.99 38.89 41.40 43.57 44.53 44.16 43.63 43.19 36.57 35.94 34.81 34.22 32.75 31.82 31.24 29.76 28.44 28.74 26.98 27.02 26.12 26.14 28.49 26.07 24.56 19.59 16.03 17.82 18.60 19.63 20.30 20.42 22.01 22.41 22.46 23.33 23.87 24.64
38.96 39.15 38.92 38.40 38.97 39.25 36.78 33.47 33.49 34.97 32.28 31.51 30.35 29.45 28.88 28.42 27.40 28.04 27.11 27.13 26.43 24.67 24.08 24.64 23.09 22.07 21.22 17.77 21.50 21.95 21.49 21.20 21.99 22.24 21.23 21.55 23.22 23.80
36.43 35.62 35.71 34.92 35.16 35.85 33.50 32.03 32.14 31.42 30.22 30.15 29.34 28.89 27.83 27.31 26.63 27.68 27.38 26.65 25.41 23.94 22.04 17.70 16.54 16.56 14.86 19.61 26.69 21.57 21.23 21.33 21.48 20.99 21.27 20.48 20.97 23.35
33.13 33.88 34.10 33.55 33.15 34.08 32.53 31.70 30.70 29.91 29.66 28.99 28.41 27.96 27.83 26.99 27.13 26.49 26.50 25.94 23.79 21.21 17.06 13.85 10.35 8.16 5.94 8.36 18.60 29.54 22.55 23.27 22.47 21.55 21.24 20.34 20.35 22.64
31.66 31.47 33.24 33.39 32.62 32.18 32.53 31.25 29.01 28.63 28.39 28.30 28.01 27.61 27.45 26.82 26.05 25.73 25.47 22.91 22.07 17.84 15.34 11.05 8.92 4.18 11.85 8.66 14.26 17.28 24.97 19.80 20.05 19.93 20.47 22.25 24.03 28.83
29.78 30.62 32.63 33.37 32.60 32.16 31.69 29.68 29.09 28.47 28.25 27.85 27.70 27.47 27.30 26.83 26.06 25.37 24.19 25.82 23.82 18.19 13.32 10.04 10.71 22.67 4.82 5.09 8.70 14.91 19.92 26.94 25.96 22.78 23.96 24.11 23.77 24.15
29.13 30.30 32.34 33.31 32.63 31.93 30.33 29.07 28.33 29.21 27.79 27.86 27.47 27.57 27.44 27.23 25.61 24.27 23.58 21.97 21.32 17.08 11.56 8.08 8.38 7.02 5.33 9.00 12.39 14.94 17.44 21.66 26.08 29.30 30.81 30.34 25.67 21.45
28.86 30.24 31.98 32.82 32.39 32.08 29.82 28.90 28.63 27.94 28.02 27.39 27.40 27.23 27.03 25.43 24.87 24.15 22.38 22.81 19.83 14.96 13.94 12.09 10.27 7.16 10.38 11.37 19.84 18.75 18.71 21.57 24.63 24.93 25.48 29.92 31.22 31.86

GFSNE_sfc_wetblb_003.txt.gz
Wetbulb
60.79 61.07 60.80 60.70 60.80 60.67 59.84 58.62 55.69 51.79 51.85 54.16 53.44 54.69 55.41 55.70 55.59 55.26 54.95 55.46 57.22 58.59 59.55 59.48 59.33 59.25 57.58 56.71 55.05 53.55 52.46 51.16 50.04 48.89 47.86 46.89 46.91 47.04
58.00 58.43 58.70 59.41 59.80 60.18 59.91 59.39 58.26 55.67 52.47 55.54 55.87 56.03 53.94 54.07 54.68 54.74 54.18 53.48 55.10 57.69 57.71 56.71 57.10 56.20 55.13 54.01 52.28 51.13 50.06 49.07 48.18 47.17 46.51 46.38 46.11 46.38
53.74 54.66 55.82 57.47 57.71 58.16 58.62 58.66 57.85 57.02 54.13 55.45 56.46 56.83 52.28 53.72 51.20 51.62 51.80 51.27 52.07 55.26 56.40 56.00 55.48 54.82 53.33 51.67 50.56 49.27 48.45 47.59 46.47 45.72 45.37 45.39 45.60 45.39
52.14 53.20 54.12 55.67 55.47 56.56 57.00 56.76 57.21 57.61 55.83 53.73 55.48 55.93 53.10 49.99 51.67 48.80 48.82 49.63 49.36 52.15 54.41 54.76 54.19 52.70 51.29 49.97 48.66 47.68 46.30 45.39 44.48 43.88 43.86 43.61 43.62 43.88
51.62 52.10 52.95 53.75 53.57 54.12 54.83 55.18 55.77 56.32 56.57 55.47 54.86 56.62 56.05 46.46 44.35 44.79 45.09 45.78 46.83 49.12 53.38 53.59 52.02 50.79 49.47 48.08 47.14 46.07 44.36 43.72 42.83 42.21 41.85 41.32 41.49 41.98
50.27 50.88 51.40 51.93 52.21 52.59 53.20 53.71 54.34 54.28 54.48 54.18 54.42 54.83 55.18 47.43 47.50 47.35 42.26 43.51 43.73 45.02 48.49 49.69 50.18 49.38 48.25 46.64 45.82 43.50 42.93 42.55 42.29 41.71 40.87 39.96 39.98 40.76
48.74 49.39 50.17 50.09 49.11 51.00 51.93 52.30 52.69 52.44 52.68 52.31 52.30 53.30 53.53 43.83 43.55 45.09 46.12 45.00 42.76 42.23 42.52 44.10 43.68 43.21 43.14 44.97 42.29 42.20 41.66 41.21 41.08 40.63 40.27 40.15 40.25 40.55
43.69 45.50 47.45 47.97 49.24 51.20 52.40 52.15 52.41 51.82 50.88 50.56 51.17 50.99 51.69 52.03 50.02 47.67 45.84 39.47 37.65 40.75 38.92 38.23 39.12 37.58 37.77 37.14 40.13 40.86 41.08 40.51 40.16 39.71 39.63 39.55 39.77 40.42
43.18 43.12 45.16 47.09 46.81 48.31 48.82 49.67 50.31 51.40 51.57 51.65 50.90 51.47 52.09 52.98 52.46 49.36 46.95 44.73 43.12 36.76 38.44 35.58 34.99 33.93 34.86 35.88 38.83 39.47 39.70 39.60 39.40 39.20 38.97 39.01 39.30 39.57
41.45 42.02 43.50 41.13 42.90 45.27 46.25 46.39 46.30 47.73 49.30 51.19 51.72 52.20 53.40 54.04 53.93 51.95 48.73 40.79 33.15 34.17 35.71 30.89 31.59 31.86 32.47 33.42 38.29 39.18 39.45 39.44 39.29 38.97 38.99 38.61 38.49 38.19
40.57 41.15 38.95 38.68 42.64 44.48 43.19 42.95 43.40 44.09 46.34 47.42 47.93 47.68 48.57 50.52 52.04 42.04 36.21 35.44 31.26 30.91 31.43 31.10 29.61 29.90 30.28 29.99 31.26 38.43 38.91 38.95 38.79 39.09 38.55 38.18 37.69 37.80
38.70 38.05 40.11 40.27 42.45 42.84 40.39 40.49 39.85 40.45 42.32 43.80 45.79 47.28 44.26 46.53 49.40 47.63 44.27 38.82 31.82 28.83 30.54 29.63 28.45 28.61 25.70 27.70 27.50 27.97 28.74 36.82 37.56 37.48 37.72 37.64 37.32 30.52
36.90 36.89 37.16 39.97 41.52 41.65 43.25 41.91 41.90 43.62 43.58 43.63 44.41 37.08 34.32 34.41 34.69 35.74 37.70 39.52 33.52 31.98 31.56 30.34 27.73 26.18 25.17 24.51 25.64 25.94 24.68 24.94 25.15 27.18 33.41 35.19 35.47 33.27
36.04 36.51 36.35 39.48 39.91 42.28 43.24 44.80 44.79 44.08 42.87 42.12 37.04 33.22 31.89 31.78 31.96 32.24 32.71 32.41 32.59 33.03 32.47 30.57 26.23 25.43 23.18 22.10 22.13 22.63 22.12 22.82 22.76 23.20 23.85 28.59 32.90 34.43
36.05 37.10 38.93 39.01 41.02 40.15 40.55 41.73 41.38 37.87 38.56 35.54 32.61 31.57 31.73 31.86 30.92 29.58 30.29 30.74 30.69 30.76 29.63 27.62 25.94 23.30 22.91 21.32 20.03 19.85 21.58 22.78 23.21 22.34 22.64 22.83 22.81 23.66
35.74 35.32 38.00 38.44 39.16 38.19 37.16 37.86 35.08 34.73 34.57 33.28 31.88 31.44 30.96 29.93 28.68 29.26 27.46 27.83 27.13 26.48 28.24 26.77 25.19 23.31 20.76 18.72 20.17 18.66 19.73 19.03 21.09 21.04 21.63 22.23 23.06 23.75
35.49 35.28 33.56 32.96 33.52 33.59 34.39 34.20 35.06 34.04 31.85 31.56 30.46 29.75 29.18 28.31 27.14 27.63 27.16 27.10 25.23 24.44 24.60 26.11 26.40 24.72 19.83 18.11 16.02 19.52 20.99 20.40 21.25 21.31 20.92 20.49 21.71 23.22
33.20 30.53 29.60 30.07 30.80 32.02 31.70 32.44 33.24 33.88 30.84 30.56 29.67 29.31 27.96 26.81 26.07 26.73 26.91 26.65 25.51 24.54 23.01 24.06 23.16 20.85 15.28 18.00 25.69 21.29 20.94 20.06 20.67 21.07 20.91 19.17 20.29 22.37
29.70 28.74 28.33 29.29 29.72 31.94 32.12 31.81 31.46 32.81 30.60 29.71 28.96 28.15 27.62 26.78 26.88 25.94 26.36 26.41 25.26 22.83 18.07 15.67 15.12 9.04 4.75 10.43 17.83 28.08 21.38 22.00 22.02 21.40 21.72 20.84 20.36 21.84
28.08 27.19 27.74 29.12 29.88 31.35 31.84 31.40 31.60 30.61 28.75 28.43 27.85 27.51 27.56 27.24 26.16 25.92 26.05 25.06 22.53 18.63 13.61 11.07 6.91 4.00 9.68 9.46 11.00 16.31 24.58 19.03 19.10 18.78 19.98 21.93 23.61 28.08
27.10 26.98 28.31 28.67 29.79 31.20 31.76 31.72 30.59 29.14 28.36 27.63 27.37 27.23 26.97 26.73 26.03 26.12 25.40 25.02 22.00 13.56 10.48 9.81 12.90 21.60 0.93 4.64 9.17 14.45 18.69 25.77 24.94 19.88 21.59 22.73 22.59 24.63
26.89 27.02 27.61 28.15 30.17 29.62 31.24 31.30 29.73 28.74 27.50 27.28 26.91 27.00 27.14 27.07 26.03 25.13 22.49 20.06 17.15 13.17 10.33 6.89 4.79 3.64 2.53 7.81 9.81 11.03 16.45 20.88 25.07 28.27 29.43 28.85 25.53 22.15
26.17 26.66 27.33 27.84 27.56 28.97 30.92 30.40 29.33 27.76 27.44 26.89 26.93 26.84 26.91 25.67 25.32 23.06 21.68 20.28 17.51 14.69 11.20 10.38 7.73 3.95 7.49 10.45 14.13 13.20 15.18 19.35 20.29 20.84 23.46 29.70 30.83 31.47

GFSNE_sfc_wetblb_006.txt.gz
Wetbulb
52.23 53.85 55.49 56.45 57.27 57.97 58.01 57.91 55.57 51.99 52.57 55.76 55.46 57.61 56.50 56.05 55.78 55.97 55.40 54.83 56.16 56.93 57.94 58.43 58.93 59.68 60.00 60.44 61.11 60.92 60.60 59.68 58.15 56.25 54.80 52.97 51.32 50.41
50.76 50.67 51.42 52.88 54.24 55.93 56.82 56.83 56.23 54.56 51.70 55.04 56.38 57.42 57.22 54.68 55.35 55.23 55.37 54.15 55.22 56.65 57.20 56.75 57.22 58.01 58.62 58.91 59.34 59.25 58.44 57.37 55.77 54.66 53.55 51.91 50.66 48.90
49.43 49.55 50.53 51.77 52.50 53.64 54.57 54.78 54.33 54.16 51.85 52.98 55.67 57.42 57.01 55.30 54.52 54.14 54.62 54.56 54.60 55.07 56.64 56.81 56.68 57.03 57.56 57.61 57.43 56.88 55.96 54.58 53.61 52.79 51.91 50.62 48.90 48.34
45.94 47.53 48.91 50.75 50.58 51.51 51.93 51.71 51.96 52.77 52.04 50.06 52.55 53.69 54.73 56.31 55.80 54.93 53.39 53.56 53.88 53.99 55.20 55.53 56.41 56.56 56.62 56.30 55.07 54.22 53.07 52.42 51.40 50.46 49.45 48.06 47.44 47.49
45.58 46.84 48.12 48.59 47.60 48.47 49.37 49.43 50.08 51.17 51.78 50.85 50.62 52.72 53.44 54.65 52.74 51.86 53.25 52.30 51.92 52.43 53.96 54.59 55.85 55.96 55.76 55.23 53.58 52.21 51.02 49.85 48.77 47.60 46.53 45.75 45.83 46.00
46.79 47.69 46.82 44.56 44.55 46.24 46.93 47.04 48.34 49.07 49.83 49.64 50.04 50.14 51.29 52.31 50.86 51.76 49.04 46.10 48.12 47.82 49.75 51.53 53.54 54.40 54.85 53.73 51.70 49.81 48.61 47.42 46.71 45.79 44.52 43.71 43.59 43.47
43.80 42.05 42.97 43.25 45.55 47.36 44.84 42.90 46.10 45.62 45.76 46.73 47.33 49.21 49.83 49.33 47.66 47.63 47.45 49.91 45.78 47.38 44.80 46.53 49.77 51.24 51.38 51.67 48.85 47.57 46.71 45.53 45.18 44.44 43.84 43.05 42.20 41.68
38.47 39.25 41.46 42.35 44.97 43.71 43.79 45.05 45.12 44.14 44.53 44.36 44.55 45.23 46.59 48.63 50.12 50.41 49.94 47.56 45.63 44.54 45.03 44.99 46.33 45.86 46.64 47.31 46.91 46.50 45.03 44.47 44.01 43.31 43.00 42.27 41.66 41.18
37.57 37.10 37.90 41.16 40.16 37.69 40.36 42.95 41.64 43.74 45.24 43.74 42.34 43.00 44.36 46.44 49.33 48.84 48.97 48.96 47.73 42.19 42.72 40.84 39.25 41.22 39.98 41.91 45.35 44.41 43.84 43.06 42.39 41.96 41.61 41.19 40.99 40.74
35.80 35.55 37.31 37.90 37.73 38.83 38.41 37.74 38.55 40.18 41.29 42.69 42.68 42.75 43.86 45.76 46.91 47.00 47.49 46.66 36.68 37.77 40.49 36.52 35.21 36.64 35.72 37.87 43.93 43.33 42.39 41.58 41.22 41.19 41.05 40.55 39.84 39.75
34.89 35.46 37.77 37.56 39.88 40.54 37.46 36.73 37.55 39.19 42.99 44.55 44.99 45.20 45.69 46.39 46.89 45.55 43.48 39.39 35.70 33.64 33.46 32.80 31.14 30.44 32.09 32.81 36.91 40.76 40.03 39.93 40.60 40.52 40.42 39.89 39.44 39.07
33.92 35.39 39.07 38.10 39.31 39.10 36.43 36.34 36.22 38.55 40.15 40.67 41.41 43.12 44.83 44.87 44.41 42.25 42.96 40.80 37.56 30.99 32.17 31.97 29.96 29.84 27.59 29.61 31.37 32.36 36.42 39.79 40.19 40.16 40.04 39.94 39.30 32.87
33.28 34.13 34.63 37.71 37.91 38.54 39.33 38.39 38.11 39.50 39.28 37.39 38.58 40.73 42.28 35.83 35.46 34.74 35.34 38.46 36.25 33.17 33.19 32.61 29.52 27.36 27.63 25.54 27.31 29.08 28.31 28.52 29.90 34.54 38.78 38.75 38.46 35.41
32.61 33.03 33.69 37.04 38.54 39.55 38.69 39.73 39.76 38.71 35.96 34.46 34.70 35.34 34.72 33.89 33.20 32.51 32.70 32.90 33.50 33.77 34.68 32.09 28.52 27.40 25.09 23.92 23.55 24.11 23.87 25.18 25.82 25.01 24.88 29.78 35.05 36.82
32.92 34.65 35.39 36.64 36.81 35.81 36.40 37.53 37.61 33.93 33.04 32.56 33.10 33.51 34.00 32.42 30.34 29.98 30.50 29.92 28.96 29.33 29.07 28.84 28.69 26.44 25.89 24.49 21.88 21.86 22.56 23.33 22.72 22.59 22.52 22.67 23.10 23.96
33.79 31.45 33.89 33.94 34.00 33.43 33.40 33.97 33.13 32.90 32.94 32.88 32.39 33.18 32.26 29.83 28.64 29.01 28.29 28.39 26.44 24.90 27.30 27.24 26.41 25.40 22.47 23.13 22.22 20.62 20.58 19.73 21.55 21.14 21.68 22.20 22.94 23.42
31.27 29.72 29.08 28.04 27.97 28.92 29.75 31.16 32.26 32.33 31.66 32.31 31.73 30.78 30.25 28.31 27.18 27.90 27.96 27.28 25.10 24.16 23.92 25.37 25.86 24.85 23.45 20.60 17.68 19.75 20.13 19.71 20.58 20.91 20.99 20.40 21.52 22.54
27.80 26.24 25.51 25.00 25.76 26.97 27.80 29.13 30.49 31.87 31.61 31.53 30.17 29.68 28.61 26.90 26.18 26.82 27.49 26.48 24.22 24.04 23.29 23.93 23.16 17.61 16.59 18.81 23.00 20.36 20.60 20.01 20.22 20.84 20.97 19.32 19.33 20.84
24.32 25.85 24.44 24.36 25.44 26.74 27.01 28.51 28.56 30.71 31.87 30.21 29.01 28.50 27.72 26.51 27.43 25.88 26.66 26.35 24.90 22.94 20.56 19.67 13.43 6.90 6.50 8.33 16.27 27.03 20.16 20.78 20.98 20.68 20.83 20.05 19.89 21.10
24.40 25.05 23.72 24.13 25.23 26.31 26.74 26.94 27.69 30.24 30.09 29.53 28.13 27.36 26.87 27.02 25.90 25.70 26.16 24.99 22.35 20.49 16.94 10.64 4.85 1.14 4.64 7.60 10.79 15.17 26.69 20.86 19.72 17.96 18.67 20.97 22.71 27.24
24.24 23.71 24.00 24.20 25.34 26.92 24.84 26.32 27.43 29.36 30.23 28.19 27.17 26.65 26.41 26.48 25.92 25.95 26.21 25.26 22.97 17.45 12.96 11.42 6.67 18.62 -1.92 4.21 10.26 14.63 18.25 25.11 23.52 19.03 20.13 20.91 21.86 22.73
24.05 23.53 23.55 24.51 26.37 24.18 24.55 25.73 26.94 28.89 28.65 27.23 26.58 26.39 26.60 26.79 25.75 25.29 24.61 22.87 20.75 18.44 12.21 3.95 3.08 3.07 2.80 7.10 7.19 9.58 15.42 20.32 23.68 27.56 28.71 26.97 22.94 16.52
23.64 23.84 23.21 24.47 25.64 24.14 24.20 25.32 26.53 28.23 28.34 26.74 26.44 26.38 26.47 25.10 24.29 23.24 22.32 20.40 18.31 15.30 13.21 11.35 6.92 4.20 6.51 10.30 10.15 9.33 11.50 14.79 17.58 17.81 24.77 29.76 31.03 30.99

GFSNE_sfc_wetblb_009.txt.gz
Wetbulb
47.58 47.93 48.71 49.78 50.81 51.99 52.85 53.18 50.97 47.68 48.02 51.74 52.69 56.27 57.30 57.73 56.22 56.24 56.41 56.05 56.70 56.46 57.62 57.97 57.95 58.41 58.90 59.77 60.68 61.07 61.34 60.90 60.83 61.50 61.41 60.05 58.75 58.46
46.87 45.62 45.30 47.19 49.13 50.47 51.21 51.84 51.27 49.23 46.40 49.83 51.05 52.81 54.65 55.72 56.14 55.27 55.22 53.89 55.75 57.03 57.06 56.41 56.41 56.81 57.29 57.95 58.68 59.46 59.89 60.21 60.44 61.54 61.45 59.54 58.02 56.60
42.94 43.83 44.15 46.17 48.04 48.68 48.30 48.42 47.93 48.46 46.22 47.89 49.93 51.57 52.21 52.72 54.25 55.31 54.66 54.98 55.41 55.78 56.86 56.96 56.44 56.28 56.41 56.69 57.10 58.15 58.90 59.41 59.68 60.69 60.77 59.03 57.50 55.38
41.72 42.72 43.66 47.27 46.24 45.81 44.50 44.74 46.24 46.52 45.19 43.62 46.34 47.71 49.42 51.92 52.94 53.65 54.21 55.10 54.47 55.15 56.10 55.96 55.78 55.92 56.14 56.10 56.08 56.57 56.90 57.61 58.08 58.84 58.75 57.95 56.20 54.27
40.09 41.33 44.57 42.90 42.41 40.45 41.68 43.98 44.25 42.84 43.01 43.42 45.24 47.23 47.94 49.94 51.00 52.16 52.56 53.73 54.51 53.28 54.82 55.17 55.52 55.55 55.47 55.59 55.62 55.76 55.71 56.04 56.24 55.66 55.35 54.73 53.65 52.23
40.55 43.46 39.99 39.41 39.91 39.89 41.69 37.98 37.89 38.67 40.41 39.99 41.15 43.44 44.86 46.40 48.18 48.34 49.04 50.88 49.68 51.67 51.98 52.27 53.40 53.77 54.45 55.09 54.65 54.31 54.13 54.50 54.23 53.53 52.51 51.48 49.90 48.52
35.28 36.82 36.87 38.32 40.30 42.47 40.83 38.16 36.85 37.28 37.95 36.52 38.17 39.89 40.29 41.91 42.54 45.33 45.66 47.59 49.46 50.27 49.34 48.51 48.99 49.81 50.60 52.67 52.82 52.92 53.01 52.51 52.48 51.95 50.25 48.44 46.95 46.64
31.68 33.02 35.23 36.95 37.18 41.94 41.49 41.26 40.34 36.97 35.48 35.92 36.52 36.15 37.95 39.79 41.64 42.76 42.57 42.08 41.75 47.23 46.82 47.47 48.24 47.00 48.73 50.67 52.42 52.55 51.75 50.95 50.30 49.49 48.07 46.27 45.02 44.65
32.29 32.94 33.51 35.46 36.72 37.57 39.43 40.53 39.54 39.80 39.52 36.92 36.12 37.52 38.03 40.08 40.81 40.05 40.26 41.34 42.62 45.62 44.87 44.54 43.97 45.05 47.32 46.28 50.77 51.34 50.13 49.10 48.08 47.13 45.79 44.58 43.80 42.95
32.47 32.72 32.75 33.43 35.68 36.55 36.22 35.35 35.07 35.38 36.17 37.83 39.25 40.20 40.99 41.56 42.53 42.44 42.07 42.03 43.13 44.51 42.91 40.62 42.20 41.63 38.08 39.98 47.80 48.55 47.74 46.43 45.74 45.16 44.49 43.59 42.59 42.06
33.01 33.33 34.02 33.65 36.72 37.76 34.78 33.42 32.93 33.88 38.38 41.50 41.44 41.89 42.30 41.34 42.06 41.96 40.41 39.76 39.14 41.49 38.42 39.94 34.21 32.15 33.21 34.89 41.72 46.61 45.51 44.82 44.18 43.42 42.83 42.07 41.40 41.46
33.41 33.53 35.88 34.75 36.70 37.30 33.65 32.94 32.99 34.94 37.13 37.17 36.62 37.18 37.87 37.93 40.65 40.27 38.49 35.48 35.55 36.29 34.72 35.13 30.93 30.62 29.11 30.35 32.90 41.02 41.55 43.21 41.79 41.23 41.55 41.60 41.02 37.10
31.43 31.03 31.93 35.65 36.50 35.80 36.61 33.79 34.07 35.79 35.93 34.77 33.93 34.00 34.42 35.39 35.68 36.79 36.25 33.93 32.41 33.54 37.85 35.67 31.14 29.78 29.29 26.09 28.63 31.14 32.49 36.25 37.13 39.29 41.12 40.95 40.42 36.59
30.17 31.18 31.92 34.35 34.24 34.77 33.68 34.41 35.02 35.30 33.24 32.13 31.35 31.70 32.40 32.69 33.83 34.29 32.31 32.03 32.35 31.59 34.40 33.72 30.17 28.31 25.99 24.91 24.36 26.23 27.26 28.74 30.64 29.95 30.87 38.93 40.55 40.06
32.03 32.74 33.03 32.79 32.87 31.06 31.93 33.42 33.79 30.85 31.37 30.44 30.52 30.94 32.24 32.96 33.03 29.90 30.79 30.19 28.34 27.77 28.09 29.77 29.44 28.47 27.46 24.74 22.90 23.23 24.55 25.05 26.14 26.14 25.87 26.72 27.23 26.12
32.95 28.97 29.74 30.61 31.05 29.51 28.59 29.56 29.56 29.64 29.97 30.23 30.43 31.65 32.25 31.33 29.95 29.20 28.10 28.08 25.97 24.86 26.58 27.70 26.59 26.52 24.01 24.33 24.98 24.54 24.26 23.35 23.65 23.43 23.92 23.34 23.76 24.60
30.25 26.12 24.53 25.40 24.23 24.61 25.45 27.10 27.43 28.12 28.24 28.87 30.04 29.96 28.92 29.02 28.48 28.10 27.85 27.36 24.92 23.77 23.27 25.11 25.91 25.17 24.09 23.76 22.23 23.01 21.55 21.12 22.36 21.57 21.70 21.01 21.59 22.38
26.53 23.31 22.48 23.28 23.02 23.49 24.06 24.61 26.37 26.97 26.48 27.60 29.70 29.24 27.83 27.68 27.61 26.91 27.45 25.99 24.22 23.73 22.97 23.89 23.08 21.98 21.16 22.90 25.75 21.38 20.80 20.10 20.69 21.19 20.69 19.00 19.06 20.46
23.86 22.63 22.39 22.42 23.08 23.23 23.26 24.46 24.40 24.61 26.86 27.35 29.21 28.85 27.69 27.17 27.21 25.85 26.69 25.93 23.71 22.60 20.96 20.08 18.42 17.21 16.42 14.58 17.99 25.94 19.74 20.19 20.17 19.69 20.23 19.65 19.41 20.92
23.98 22.51 21.97 22.68 23.05 22.43 23.03 24.23 23.54 24.28 25.38 26.89 28.63 27.56 26.85 26.40 25.70 25.62 26.06 23.70 22.52 21.07 18.69 16.86 14.85 9.34 9.53 11.58 13.65 15.27 24.86 20.37 20.44 18.96 18.75 20.70 22.10 26.82
23.30 22.21 22.91 23.39 22.96 22.33 23.95 23.98 23.64 23.65 25.77 26.46 27.89 26.79 26.32 26.13 25.69 25.85 26.13 25.64 23.19 20.48 17.48 14.29 14.31 17.28 1.31 5.54 13.90 14.73 17.77 25.84 23.21 17.70 18.53 18.71 21.05 22.60
22.69 22.12 23.10 23.39 22.47 22.88 23.78 23.48 23.01 23.28 24.57 26.53 26.86 26.37 26.39 26.48 25.68 25.30 24.44 22.36 20.92 19.60 15.86 10.66 10.01 9.42 10.27 8.23 7.16 8.94 14.02 18.90 23.92 27.75 26.40 25.75 20.53 18.11
22.09 22.96 23.18 22.75 22.83 23.46 23.18 22.67 22.74 23.10 24.45 27.36 26.27 25.99 25.76 24.05 24.09 23.54 21.94 20.77 19.19 16.54 14.46 12.09 9.49 4.66 5.65 8.08 8.35 7.07 10.21 13.41 16.38 17.81 25.18 30.05 29.53 30.31

GFSNE_sfc_wetblb_012.txt.gz
Wetbulb
43.44 43.69 42.59 43.88 44.92 46.27 48.12 48.57 45.35 40.97 41.41 44.55 45.71 49.71 51.63 52.88 53.79 54.57 55.37 55.93 57.44 57.68 57.73 57.66 57.66 58.47 59.00 59.54 60.25 60.85 61.13 61.21 61.33 61.66 62.34 62.16 62.08 62.95
39.38 39.02 40.55 42.75 43.60 45.72 47.63 46.52 45.02 43.65 39.91 42.91 43.82 45.56 47.50 49.35 51.31 52.41 53.01 53.08 55.31 57.01 57.38 56.91 56.79 56.70 57.10 57.78 58.09 58.45 58.90 59.57 60.72 61.63 62.16 62.33 62.05 61.96
36.47 37.01 38.61 40.98 43.01 43.27 44.30 41.33 40.05 42.03 40.84 41.66 41.83 42.31 42.13 45.17 48.72 50.89 51.56 52.22 53.59 55.21 56.56 56.59 56.43 56.30 56.39 56.46 56.86 57.60 57.91 58.60 59.53 60.72 61.51 61.61 61.59 61.52
35.28 36.86 38.12 41.91 38.19 39.82 39.72 37.29 38.99 42.65 36.82 34.68 37.30 38.75 40.77 42.00 44.27 46.07 47.84 50.13 51.14 53.12 54.96 55.52 55.74 55.91 56.00 56.10 56.08 56.16 56.33 56.85 57.53 58.36 59.65 60.32 60.45 61.11
35.73 35.11 33.00 35.36 34.43 34.76 34.58 35.16 39.69 39.25 36.76 35.76 35.89 38.75 38.21 39.24 42.05 43.60 43.66 44.82 48.20 50.39 52.90 54.24 55.07 55.04 55.44 55.47 55.30 55.23 55.04 55.15 55.63 56.03 56.91 58.09 58.85 60.09
33.82 32.60 32.18 32.43 32.71 33.95 33.86 34.47 38.63 36.37 35.88 35.31 35.59 35.60 35.86 37.89 38.93 38.35 38.38 41.72 42.37 45.84 48.61 49.35 52.31 52.92 53.74 54.33 54.08 53.24 53.14 53.94 54.91 55.49 55.40 55.36 56.07 58.07
32.05 32.21 33.10 34.76 36.96 36.74 35.33 34.88 35.91 35.35 35.64 35.24 34.18 33.65 33.57 33.75 34.08 37.11 37.68 40.02 41.47 42.35 42.77 44.88 47.89 49.59 49.32 50.73 50.41 50.64 51.69 53.07 53.54 54.08 54.97 55.59 55.41 56.16
30.74 31.62 32.41 34.56 34.80 37.87 38.07 38.39 37.36 34.24 33.11 32.90 32.68 31.13 31.75 32.91 35.84 37.46 38.21 37.16 35.47 42.24 42.42 42.71 44.48 45.69 46.99 48.18 50.09 50.74 51.15 51.75 52.45 53.21 53.78 54.87 53.66 52.69
31.03 31.15 31.76 33.69 34.74 33.72 36.02 37.30 36.76 37.74 37.20 33.75 31.29 31.76 32.14 34.60 37.46 35.72 35.90 36.17 36.51 39.64 40.52 38.63 42.56 42.50 46.19 46.64 49.11 49.63 50.43 51.07 51.73 52.26 52.55 51.87 50.51 49.69
31.49 31.71 31.78 33.07 33.12 33.48 32.91 32.70 33.35 32.62 33.03 34.62 34.81 35.16 36.08 38.63 37.48 36.91 36.96 36.25 37.51 39.44 41.60 37.82 42.01 41.66 43.64 43.59 45.27 46.99 47.90 49.33 50.36 51.47 50.89 48.48 47.54 47.18
31.71 32.19 33.34 31.52 34.58 36.04 32.90 31.24 30.18 32.02 35.34 36.73 37.75 38.24 38.81 38.71 37.99 35.69 33.44 33.11 33.13 34.62 38.11 38.60 39.97 40.15 33.92 34.53 37.53 42.96 46.26 49.04 49.13 47.92 46.59 45.90 45.19 44.54
31.29 32.48 33.74 32.89 35.47 35.38 31.00 30.11 28.68 27.72 29.78 31.61 32.74 34.24 34.83 34.52 36.68 35.18 34.44 31.47 31.45 30.73 31.95 35.77 37.21 32.68 32.33 31.00 33.42 38.50 45.25 47.26 46.51 45.76 44.98 44.30 43.61 39.31
29.58 28.89 30.01 34.60 34.82 33.36 33.41 29.25 28.37 31.26 31.74 30.16 29.91 31.01 32.14 32.69 33.48 34.08 34.37 32.62 30.63 29.48 33.53 34.47 32.68 31.62 31.23 28.35 29.22 30.84 37.80 42.09 41.40 42.73 43.41 42.37 41.72 39.12
28.11 28.93 30.62 33.66 32.00 31.77 31.15 32.01 32.26 31.93 28.02 27.62 27.64 28.76 29.56 30.45 31.65 32.68 32.88 33.08 31.83 29.53 28.62 28.19 29.02 32.03 28.05 25.87 26.82 27.88 29.52 31.88 36.25 36.57 38.03 40.92 41.72 40.18
29.41 32.92 31.76 31.09 30.21 28.83 30.02 30.60 29.97 26.05 26.14 25.97 26.16 27.53 28.29 30.39 32.06 31.15 31.67 30.75 28.97 27.60 27.10 26.30 28.57 28.89 28.40 26.25 24.28 24.19 26.26 26.73 31.17 31.68 34.25 36.58 37.21 36.55
32.27 29.72 28.88 28.72 28.75 27.94 26.40 25.78 24.42 25.25 25.90 26.38 25.83 26.38 27.73 29.22 29.18 29.75 28.92 27.33 24.93 25.68 27.35 27.47 25.86 26.66 24.69 25.49 26.47 25.04 26.15 25.23 26.15 28.10 28.08 26.99 28.46 32.14
29.89 26.57 24.30 23.35 22.41 22.72 23.12 23.25 23.58 24.18 25.53 25.08 24.30 24.54 25.68 28.11 27.95 28.33 27.71 26.95 24.93 23.89 23.54 25.36 25.97 26.07 25.73 25.12 23.42 24.52 23.52 23.80 25.32 24.69 25.55 23.83 24.35 25.92
25.20 22.79 22.36 21.62 21.11 21.63 21.80 22.12 22.48 23.81 24.32 23.97 24.06 24.69 24.81 27.17 26.18 27.53 27.04 26.00 24.08 23.50 22.66 22.82 21.99 22.63 22.93 24.68 27.40 22.52 22.29 21.83 23.19 23.40 23.61 21.77 21.48 22.91
22.08 23.53 21.44 21.22 20.99 21.43 21.82 21.63 20.57 22.88 24.42 23.94 23.61 24.66 25.90 26.72 26.32 26.01 26.15 25.53 23.17 21.82 20.19 20.21 18.66 18.01 18.55 16.67 20.70 26.99 21.28 21.72 21.85 21.19 21.77 21.29 20.60 21.49
22.40 22.15 20.69 21.04 21.17 21.65 21.54 20.94 21.54 22.98 23.18 23.48 23.74 24.25 26.73 25.70 25.11 25.36 25.41 23.31 22.33 21.50 19.84 18.11 17.10 15.61 16.24 17.24 18.58 19.86 25.59 21.51 20.93 20.07 19.99 20.84 22.64 27.84
21.26 21.14 21.68 21.30 22.07 21.77 21.43 21.40 22.30 22.49 23.55 22.68 23.35 25.49 25.93 25.64 25.30 25.74 25.81 25.73 23.33 20.89 18.22 16.99 14.28 19.46 11.28 13.47 17.79 16.60 18.70 26.49 22.62 17.77 18.01 17.94 19.87 21.39
21.26 21.32 21.70 22.16 21.81 21.50 21.27 21.98 22.12 22.07 22.03 22.36 23.33 25.98 25.43 25.14 24.63 23.95 23.39 21.89 21.09 19.66 16.58 14.39 13.60 12.15 11.96 13.83 10.47 10.21 15.05 18.47 24.25 26.49 26.89 25.45 20.00 18.60
21.40 21.52 21.80 21.55 21.52 21.50 21.87 21.75 21.64 21.73 22.25 22.97 25.09 25.37 24.20 22.92 23.22 22.68 21.82 20.84 19.52 17.41 16.32 14.93 13.37 11.21 10.32 12.43 10.70 10.16 13.21 16.54 20.21 21.41 24.05 28.04 29.44 33.06

GFSNE_sfc_wetblb_015.txt.gz
Wetbulb
41.25 39.87 40.10 40.95 43.33 44.61 45.68 45.92 42.47 37.95 37.18 40.65 42.26 46.71 48.74 48.61 48.35 46.58 48.56 51.01 53.63 54.66 55.64 56.06 56.51 57.27 58.12 58.64 59.07 59.53 60.20 60.27 61.09 61.89 62.41 62.32 62.44 63.13
38.63 37.76 39.23 40.50 41.90 44.12 43.54 42.80 42.78 38.10 34.50 40.26 42.06 45.90 44.53 44.15 45.23 45.92 46.27 47.16 49.53 52.13 53.19 53.17 54.16 55.17 56.03 56.75 57.45 58.01 58.42 58.92 59.86 60.56 61.53 62.29 62.36 62.51
37.18 37.63 38.03 38.98 37.36 38.39 40.66 40.54 38.96 37.76 34.89 38.01 42.87 43.65 42.04 41.92 43.62 44.57 45.00 45.60 48.99 50.59 51.80 51.54 52.01 53.41 54.42 55.13 55.76 56.56 57.31 57.97 58.75 59.64 60.25 60.83 61.78 61.82
35.69 37.20 35.45 35.41 34.57 35.74 36.58 35.92 36.76 37.36 36.60 35.04 39.54 39.66 39.47 41.25 42.45 41.92 42.45 46.05 46.02 46.74 47.57 50.72 49.24 49.68 51.28 53.33 54.22 55.07 55.47 56.20 56.74 57.55 58.57 59.52 60.31 60.89
35.63 35.03 34.00 33.81 33.36 34.76 35.17 35.48 36.84 36.55 37.05 35.83 35.12 38.57 39.40 40.45 39.40 40.05 41.09 42.09 43.92 44.80 45.63 46.24 48.16 48.05 48.80 49.45 50.78 53.35 54.15 54.64 55.01 55.31 55.93 56.77 58.06 59.06
34.91 34.38 33.92 33.57 33.30 34.47 34.95 35.67 35.81 35.76 36.08 34.98 34.84 35.55 36.76 37.85 37.48 34.95 36.25 39.37 40.01 43.03 43.97 44.73 45.90 46.63 47.92 49.04 50.87 51.31 51.87 52.89 54.00 54.31 54.45 54.56 54.87 56.29
33.87 33.85 34.20 34.97 36.00 36.40 35.44 35.00 35.22 34.23 33.82 33.36 32.89 33.71 33.75 33.81 33.33 35.23 33.34 36.27 39.07 41.08 40.96 41.84 44.46 45.82 46.19 45.84 46.89 49.70 50.38 51.17 51.67 52.40 53.17 54.32 54.41 54.77
32.43 33.24 33.96 34.79 35.34 37.04 36.58 36.85 36.12 33.13 32.36 32.60 31.73 31.05 31.86 33.24 34.97 34.81 35.01 32.84 33.30 41.33 38.32 38.36 40.72 41.94 44.84 45.23 46.40 47.52 48.71 49.91 50.35 50.69 51.23 52.45 52.55 53.14
32.15 32.85 33.14 34.12 35.07 34.48 35.49 36.19 36.12 35.81 35.02 32.99 31.08 31.15 31.59 32.56 33.73 33.63 33.32 33.78 33.53 37.67 37.03 33.57 37.69 38.45 41.81 43.54 46.18 46.89 47.86 48.27 48.90 49.34 49.92 50.90 51.56 52.41
32.18 32.63 32.59 33.25 33.88 33.23 33.35 34.06 32.63 32.38 33.29 33.71 32.48 32.36 33.74 34.81 34.71 34.27 34.19 34.29 35.30 36.20 36.78 32.27 37.51 36.19 40.32 44.10 46.40 47.18 47.52 47.30 46.94 47.48 48.46 49.31 50.03 50.98
32.50 32.60 33.35 32.42 33.77 35.08 34.01 30.64 30.05 31.00 33.42 33.79 34.35 35.12 35.26 35.46 35.66 33.78 32.47 31.24 30.23 31.64 35.98 33.22 34.16 35.10 38.24 40.42 41.99 42.63 42.89 43.50 44.77 46.37 47.51 48.31 49.34 50.21
31.52 32.75 33.21 32.49 34.21 35.71 31.28 29.19 27.35 28.66 30.15 30.94 31.17 31.34 32.61 32.90 34.72 33.99 33.34 30.08 29.97 29.04 34.88 32.34 33.67 32.67 32.07 37.42 35.97 36.45 36.21 41.93 45.18 45.44 48.78 48.13 46.07 43.76
30.84 30.36 31.19 33.16 35.83 33.24 32.44 29.07 28.36 30.39 29.93 28.14 28.07 28.90 30.07 31.01 32.65 32.73 34.34 31.47 29.96 29.06 33.00 32.86 31.49 30.66 30.67 31.70 33.78 35.48 32.56 41.20 44.44 45.62 46.14 44.27 43.44 41.74
29.44 30.31 31.17 35.11 32.38 31.46 30.08 30.54 31.30 30.39 26.97 25.69 26.06 26.41 27.89 28.40 29.53 30.45 30.97 32.06 33.43 31.24 33.53 31.01 27.79 28.76 29.27 29.42 30.05 31.56 30.48 33.69 40.20 39.93 39.49 41.46 41.79 41.18
30.56 32.14 32.25 31.01 30.81 29.21 29.10 29.57 29.15 26.02 24.86 24.36 24.92 25.73 27.42 27.78 28.31 29.44 30.77 32.65 32.14 32.24 31.78 28.49 27.62 27.36 27.86 29.08 29.42 29.60 29.37 28.83 34.59 36.01 36.84 35.77 35.49 36.74
32.08 28.91 28.92 28.98 29.21 28.01 26.81 26.60 25.93 25.63 24.70 24.58 24.47 26.57 27.17 26.82 26.72 28.66 29.44 29.96 29.69 29.50 30.40 29.11 27.94 27.66 28.61 30.40 31.13 29.99 28.51 28.63 31.27 31.16 31.40 34.79 35.96 37.03
28.57 26.65 25.26 25.45 24.04 23.99 24.19 24.50 24.90 24.99 24.22 24.34 24.36 24.80 25.20 25.69 25.96 28.26 29.79 29.55 27.64 27.33 26.50 27.56 28.47 28.90 29.07 29.07 27.40 28.02 28.35 27.70 29.80 29.96 29.61 27.37 29.15 35.43
25.76 23.18 22.32 23.49 22.25 22.31 22.24 22.60 23.64 23.91 23.69 23.80 24.31 24.41 24.17 24.85 25.57 28.83 29.15 28.22 26.04 24.87 23.99 24.43 24.57 26.57 26.55 26.95 29.17 25.23 25.61 25.46 27.18 29.25 29.61 26.57 25.32 28.03
22.86 21.95 21.89 21.77 21.83 22.10 22.14 22.35 21.77 23.01 23.73 23.87 23.85 24.27 24.28 24.76 27.06 26.85 27.67 26.33 24.37 23.38 22.16 21.97 20.68 20.09 21.79 19.61 24.08 28.53 24.33 24.96 25.63 25.09 27.17 26.65 26.07 26.03
22.52 21.88 21.35 21.76 21.87 21.74 21.93 21.88 22.36 22.71 22.93 23.57 23.58 23.45 24.16 26.10 26.10 26.86 25.83 24.62 23.92 23.25 21.82 20.64 19.78 18.05 20.61 20.95 21.61 23.09 27.10 25.50 25.59 23.95 23.21 25.14 27.23 29.10
22.26 21.91 22.23 21.92 21.90 21.96 21.81 22.12 22.21 22.11 23.20 22.55 23.06 23.52 25.89 25.68 25.74 25.67 25.41 26.42 24.61 22.96 20.33 19.00 18.00 21.38 17.94 19.86 22.03 21.43 24.70 27.25 26.42 25.21 24.66 24.30 23.39 24.12
22.14 21.72 21.91 22.13 21.82 21.53 21.63 21.80 21.82 21.96 21.86 22.22 22.70 24.03 25.89 25.55 24.45 24.11 23.40 22.78 21.97 21.19 19.99 19.73 19.68 20.33 21.64 22.15 19.33 19.65 21.79 24.49 27.57 28.43 29.26 27.86 26.77 23.03
21.99 22.00 21.81 21.82 21.64 21.44 21.49 21.63 21.55 21.49 21.97 22.57 23.33 25.67 25.36 24.16 23.42 22.73 21.91 21.60 22.21 21.06 20.41 22.05 22.27 22.15 19.74 21.79 21.91 21.89 21.71 23.53 25.02 25.87 27.59 30.40 32.03 30.23

GFSNE_sfc_wetblb_018.txt.gz
Wetbulb
39.96 40.82 40.10 40.75 41.98 42.14 41.86 42.16 38.82 34.66 37.02 40.94 40.90 42.92 43.72 45.34 46.60 46.86 46.24 46.35 48.08 46.87 47.14 48.92 50.70 52.40 53.75 54.29 54.12 55.69 56.88 57.92 58.54 59.60 59.67 59.16 58.68 62.73
39.31 39.04 39.35 40.14 40.37 40.31 38.86 38.57 38.74 37.04 34.21 38.95 39.82 39.99 41.83 43.58 45.69 44.41 43.78 44.48 46.20 45.98 45.48 46.94 49.05 50.41 50.83 51.29 52.96 53.80 54.64 56.22 57.57 57.91 58.85 59.43 59.56 58.00
38.45 38.23 37.86 39.60 37.91 37.52 37.57 37.31 36.35 36.56 34.52 37.10 39.02 40.78 39.80 41.16 42.37 42.67 43.69 43.11 44.42 44.35 44.50 46.69 46.44 48.13 49.41 50.55 49.87 51.12 52.81 53.97 55.36 56.94 57.87 58.75 59.36 59.23
36.92 36.98 36.60 37.14 36.24 36.56 36.41 35.65 36.29 37.24 35.84 33.80 36.71 37.80 37.98 39.15 40.72 40.45 41.17 41.71 41.84 42.36 42.85 43.33 44.64 45.86 47.76 48.52 49.83 49.11 49.56 50.10 52.39 55.03 56.09 56.84 57.74 58.50
36.58 36.07 35.79 35.58 34.70 35.44 35.58 35.79 36.67 36.43 36.81 35.29 34.48 37.52 37.96 38.98 38.14 38.78 38.80 39.15 40.42 41.47 42.20 42.52 43.44 44.51 46.08 47.35 47.57 47.28 48.23 49.52 50.69 52.05 54.40 55.52 56.42 57.24
36.29 36.15 35.49 34.84 34.46 34.45 34.89 34.78 35.35 34.83 35.47 34.51 34.48 34.84 35.94 37.19 37.27 35.99 35.77 38.32 38.29 40.14 41.11 41.74 42.84 43.66 44.72 45.27 46.66 46.67 47.72 47.38 50.86 52.73 53.10 53.57 53.70 54.77
35.58 35.21 35.26 35.38 35.72 36.06 35.20 34.74 34.31 33.79 33.85 33.57 32.95 32.93 32.78 33.31 32.88 35.12 33.95 35.24 36.26 38.58 38.89 40.58 41.42 43.04 43.51 43.71 43.86 44.36 46.11 46.93 48.68 49.95 51.48 51.92 51.90 52.50
33.42 34.10 34.60 34.84 35.15 36.39 36.57 36.43 35.32 33.32 32.72 32.85 31.96 30.01 30.98 32.25 33.51 32.94 32.63 31.32 29.49 37.54 36.75 37.06 40.29 39.17 41.27 42.08 42.01 43.47 45.40 46.25 47.23 48.29 49.81 50.43 50.49 50.67
33.33 33.15 33.30 34.14 34.74 34.34 35.23 35.60 35.76 36.68 35.66 32.31 30.70 30.90 30.99 32.52 33.10 32.03 32.31 31.91 31.41 35.02 35.91 33.35 37.88 36.88 40.42 39.88 42.06 42.68 43.99 45.65 46.53 47.44 48.17 48.76 48.86 49.58
33.27 33.21 32.85 33.14 34.15 34.06 33.78 33.51 34.39 33.50 33.68 33.41 32.37 32.45 33.22 34.26 33.60 32.86 32.67 33.10 34.41 35.97 36.15 31.76 37.07 35.32 39.33 40.32 40.23 41.95 43.40 45.14 46.68 47.14 47.43 47.41 46.89 47.26
32.91 33.15 33.12 32.96 34.14 34.53 32.97 32.88 31.37 31.77 33.11 33.26 33.85 34.39 33.91 33.79 33.46 31.99 31.02 29.21 29.94 32.11 35.78 33.38 34.49 34.86 35.50 37.13 38.64 40.24 42.19 42.73 43.01 43.76 44.45 45.17 45.71 46.59
32.21 32.59 33.82 33.36 34.06 34.49 32.66 30.58 28.58 29.04 30.05 31.08 31.74 31.46 31.23 31.92 33.02 31.65 31.51 28.21 28.83 27.90 34.00 30.97 32.45 32.67 30.30 37.01 37.86 37.63 38.60 40.60 40.59 41.60 43.91 45.22 44.94 45.83
31.70 32.00 32.55 33.47 33.99 33.10 32.35 30.07 29.47 30.05 29.94 29.28 28.46 28.57 29.42 30.38 30.90 31.80 31.29 29.32 27.37 27.38 31.74 31.88 31.33 31.34 31.36 30.96 33.57 37.16 38.74 37.71 35.37 43.91 47.83 47.56 47.11 45.70
30.19 31.84 32.11 32.99 31.69 31.09 30.73 31.23 30.99 30.33 28.67 26.87 26.41 26.72 27.10 27.51 28.83 29.91 30.05 30.30 30.76 30.02 31.72 32.19 29.38 30.60 29.22 28.66 28.36 33.85 37.47 33.53 35.29 38.83 40.39 44.48 44.87 45.25
31.46 32.21 32.57 30.93 30.18 29.60 30.11 29.84 29.35 27.71 26.44 25.36 25.46 25.72 26.85 27.63 28.53 29.17 30.23 30.61 30.89 31.48 32.80 32.45 31.22 29.70 28.68 27.37 27.25 30.36 34.08 31.88 34.65 35.26 35.13 35.86 37.36 39.51
32.09 30.93 29.92 29.39 29.02 28.64 27.82 28.14 27.78 27.02 25.84 25.54 25.46 26.36 27.07 26.80 27.09 28.43 27.95 29.10 29.09 30.86 33.20 31.18 30.07 28.91 27.24 27.91 29.30 30.63 33.31 29.88 31.79 33.86 33.08 33.32 34.70 35.27
30.02 28.45 27.01 26.21 25.00 25.51 26.01 26.29 26.74 26.33 25.39 25.52 24.79 24.56 25.18 26.05 26.55 28.25 28.26 28.91 28.63 28.39 28.22 29.36 30.04 29.96 30.25 29.26 29.55 31.50 30.96 29.63 31.78 31.88 32.13 31.22 33.25 33.54
27.12 24.85 23.91 24.31 23.82 23.99 23.84 24.18 24.96 24.94 24.56 24.48 24.27 24.50 24.56 24.84 25.07 26.98 29.04 29.00 26.25 25.48 24.33 24.96 25.38 26.78 28.48 28.76 30.80 28.85 29.14 29.12 30.85 32.23 33.01 31.23 30.72 33.10
23.99 23.79 23.50 23.55 23.42 23.59 23.47 23.23 22.81 23.68 24.37 23.92 23.87 24.04 23.65 24.37 26.03 27.69 27.36 26.86 25.85 25.17 24.39 23.56 22.53 21.96 24.81 21.54 25.84 30.59 27.48 28.89 28.93 29.88 31.07 30.05 29.23 32.45
24.30 23.59 22.95 23.33 23.13 22.84 22.96 22.68 22.59 22.92 23.01 23.52 23.29 23.38 24.09 24.80 25.96 26.02 26.58 27.08 25.58 24.39 23.41 23.38 21.39 19.98 20.86 21.94 21.57 25.31 29.58 28.75 27.32 26.58 26.44 27.74 29.72 34.62
23.56 23.30 23.66 23.23 23.04 23.13 22.91 22.42 22.23 22.25 23.20 22.62 23.07 23.64 24.60 26.39 25.55 25.62 25.11 25.38 24.67 23.33 21.71 21.71 21.43 23.14 21.71 23.14 23.61 23.19 26.33 29.97 29.87 27.78 28.39 27.29 25.73 26.79
23.43 23.13 23.39 23.48 23.13 22.84 22.40 22.24 22.01 22.01 21.95 22.74 23.61 24.89 26.40 26.82 25.39 23.96 23.24 23.14 23.93 23.23 23.35 24.96 25.58 25.74 25.95 24.53 22.00 22.70 24.19 27.73 30.97 31.42 31.95 31.03 28.00 23.69
23.20 23.35 23.27 23.22 23.06 22.78 22.41 21.97 21.53 21.64 22.85 23.91 24.85 25.39 26.88 25.45 24.57 23.93 23.67 25.37 25.74 25.53 24.94 25.82 25.91 25.62 25.50 25.05 24.50 23.69 24.60 25.94 28.21 28.86 29.76 32.87 31.45 32.65

GFSNE_sfc_wetblb_021.txt.gz
Wetbulb
39.55 39.70 39.42 39.92 40.57 40.18 40.59 39.26 35.19 29.95 30.76 35.48 35.65 39.70 41.19 40.62 41.99 41.45 41.81 45.16 46.73 46.12 46.08 46.49 47.43 47.07 46.56 47.12 49.12 50.39 50.45 49.89 52.32 54.36 55.65 56.64 57.73 58.70
38.59 38.46 38.41 38.95 38.78 39.73 39.11 37.94 36.79 33.72 29.98 35.14 35.72 38.09 39.37 40.86 41.07 41.05 40.92 42.98 44.13 44.29 44.81 46.16 46.16 45.17 45.12 46.74 47.03 47.18 48.25 49.69 50.45 51.40 53.43 55.58 57.10 57.95
37.83 37.62 37.34 37.94 37.29 37.46 37.33 36.74 35.64 35.33 31.29 33.81 36.52 38.25 37.40 37.20 38.32 39.30 39.75 40.02 40.53 43.17 43.28 43.46 43.54 43.96 44.34 44.67 45.40 45.56 46.39 47.79 49.01 50.90 51.34 52.99 55.60 56.95
36.40 36.49 36.22 37.08 36.03 36.39 35.83 35.00 34.70 34.96 32.90 31.15 33.92 34.57 35.06 36.65 37.01 36.90 37.85 39.36 38.55 40.86 42.20 42.17 42.78 42.64 43.16 44.13 45.07 46.08 47.13 47.65 47.51 46.74 48.42 50.36 52.15 55.13
35.75 35.56 35.40 35.50 34.40 34.60 34.48 33.76 34.02 34.79 34.31 32.28 31.31 34.13 34.56 35.81 35.13 35.35 34.66 35.69 38.14 40.40 40.76 40.90 41.40 41.78 42.69 43.05 45.05 45.71 45.86 46.40 47.03 47.15 48.46 49.51 51.80 52.79
35.45 35.41 35.45 34.79 33.88 33.53 33.38 33.34 34.02 33.14 32.88 32.04 31.35 31.80 32.97 34.36 33.90 31.10 30.73 33.93 33.72 36.37 37.63 38.27 39.53 40.36 41.27 42.43 43.16 44.10 44.37 45.13 44.22 45.36 46.79 48.43 50.73 53.15
34.34 34.99 35.21 35.88 36.36 35.63 33.96 33.32 32.80 32.18 31.34 30.64 30.57 30.95 31.53 29.71 29.00 30.45 29.57 30.76 31.82 33.52 33.20 34.54 35.54 36.62 38.26 39.84 40.89 42.07 43.14 43.23 43.17 44.16 46.31 47.22 48.45 50.31
32.78 33.89 34.45 35.46 35.16 36.21 36.24 36.31 35.19 31.57 30.10 30.03 29.95 29.70 28.10 28.86 28.98 28.95 28.73 27.88 26.13 32.88 31.77 31.49 34.31 33.72 35.66 36.96 40.21 41.06 41.50 42.13 42.25 43.68 44.96 45.88 47.36 48.74
32.68 32.73 32.95 34.13 34.26 33.43 34.93 35.73 35.13 35.53 35.49 31.17 28.79 28.10 26.95 28.32 29.32 28.63 29.41 28.30 26.69 29.94 30.88 28.89 32.92 32.85 35.99 37.75 39.64 39.84 40.89 41.36 41.69 42.72 43.70 44.65 47.05 47.94
32.64 32.62 32.15 32.21 33.03 33.07 32.43 31.89 32.77 32.81 31.85 31.89 30.62 29.59 29.94 31.07 31.25 30.36 28.51 28.59 30.01 30.85 32.35 27.32 32.41 30.87 34.57 35.36 38.23 38.27 39.67 40.16 40.69 41.46 43.61 45.81 46.58 47.39
32.35 32.48 32.07 31.93 34.07 34.88 32.00 31.02 29.00 29.15 32.63 33.62 33.62 33.66 33.62 33.66 32.60 29.20 26.79 26.18 24.78 26.94 30.29 28.50 29.36 30.88 30.72 31.79 34.02 37.71 39.05 38.44 39.69 40.88 42.44 43.24 43.50 44.57
31.43 32.14 33.71 32.55 34.28 34.81 31.06 28.45 25.91 26.66 28.69 28.70 28.76 29.33 30.20 29.71 31.97 29.62 28.41 24.96 24.63 24.20 27.92 26.29 26.83 28.02 26.14 30.85 33.40 34.17 34.31 36.73 38.36 39.30 40.34 40.93 41.84 41.19
29.90 30.07 31.19 33.38 34.10 33.81 32.67 28.27 27.33 30.06 28.74 26.78 26.08 26.58 27.17 27.94 28.39 28.79 28.75 27.00 24.85 24.01 28.00 28.16 26.92 27.39 27.25 27.55 30.05 32.02 32.52 33.46 35.10 35.80 38.57 42.09 44.07 43.84
28.99 29.94 30.47 34.06 32.23 31.70 30.39 30.95 31.31 30.25 26.15 25.19 24.93 24.83 24.99 25.38 26.40 27.09 27.58 27.84 28.64 27.69 29.12 29.20 26.87 27.10 26.59 26.51 25.66 29.33 30.44 31.88 33.62 33.78 36.83 43.96 47.42 46.60
30.16 31.10 33.63 31.15 30.59 29.26 29.54 30.10 29.55 25.52 24.83 24.18 24.04 23.82 24.78 25.57 26.13 26.33 27.57 28.29 28.27 29.18 30.35 30.41 29.74 30.12 27.75 25.12 24.36 25.69 27.40 31.52 32.72 32.07 34.36 34.56 36.05 40.92
31.28 30.97 29.60 29.27 29.22 28.02 27.01 26.72 25.59 25.37 24.81 24.00 23.59 24.21 24.99 24.71 24.76 26.40 25.89 26.35 26.30 26.80 31.99 31.43 29.34 27.83 25.30 26.58 26.85 25.11 28.40 29.02 31.56 31.82 33.30 32.99 34.49 37.29
29.73 27.15 25.57 24.50 23.46 23.78 24.04 24.24 24.43 24.66 24.15 23.87 23.20 22.82 23.32 24.00 24.21 25.53 25.95 27.39 26.62 25.58 25.09 26.92 28.37 29.16 28.59 27.52 26.28 28.49 30.24 29.68 31.60 31.71 32.60 31.68 31.96 35.61
26.34 23.55 22.38 22.56 22.08 22.19 22.03 22.25 23.29 23.97 23.29 23.09 22.71 22.71 22.72 22.76 23.03 25.29 27.67 27.35 25.59 24.93 23.92 23.81 23.86 23.32 26.78 28.20 30.23 27.96 28.90 29.60 31.42 31.78 32.48 31.57 31.37 33.86
23.25 22.48 22.06 21.99 21.63 21.82 21.98 22.22 21.74 22.74 23.34 22.59 22.32 22.82 22.68 23.19 24.06 25.57 25.09 25.55 25.33 24.95 24.24 23.97 21.98 20.64 22.59 20.70 25.60 31.66 28.33 29.47 29.97 29.45 30.93 31.62 30.89 32.91
23.20 22.10 21.64 21.82 21.81 21.75 22.21 22.07 22.09 22.19 21.92 22.28 22.42 22.13 22.98 23.41 24.04 24.22 23.63 23.03 23.43 23.42 23.19 23.52 20.80 20.34 19.07 20.10 22.45 26.07 32.02 28.97 28.44 28.00 29.18 31.76 33.71 37.79
22.40 22.20 22.41 22.05 22.11 22.56 22.65 22.43 22.09 21.55 22.55 21.66 21.90 22.78 23.73 24.31 24.50 24.29 23.45 25.54 26.44 23.57 22.07 22.69 22.71 26.09 22.43 24.79 23.35 24.40 28.13 33.00 31.72 29.07 29.08 28.41 29.02 30.82
22.42 21.87 22.05 22.45 22.74 22.65 22.41 22.07 21.50 21.25 21.31 21.85 22.69 23.83 24.91 25.67 24.69 24.21 23.51 23.04 24.67 25.08 24.50 26.53 26.13 26.07 25.19 23.53 22.13 24.16 26.46 28.94 32.38 33.82 32.87 31.53 27.71 25.67
21.81 22.16 22.27 22.57 22.73 22.49 22.17 21.64 21.19 21.38 22.09 22.77 23.53 24.80 25.42 23.49 25.14 25.61 24.90 25.27 26.44 26.49 25.72 25.88 24.85 24.96 24.41 24.03 24.25 24.48 25.84 27.51 28.66 27.96 28.78 33.17 33.96 34.97

GFSNE_sfc_wetblb_024.txt.gz
Wetbulb
32.81 32.95 33.71 35.18 35.71 35.63 35.20 34.68 32.28 27.49 28.05 31.68 31.69 35.63 36.16 37.21 39.05 39.39 37.92 41.29 42.89 43.22 43.79 43.90 44.53 44.64 45.50 45.86 46.35 46.75 46.88 46.69 47.38 49.05 50.10 51.08 52.93 53.73
34.29 33.27 33.78 34.57 34.51 34.87 34.31 34.19 33.13 30.39 26.79 31.75 32.56 33.89 35.12 36.99 37.92 37.04 37.17 40.69 41.05 42.44 42.58 42.27 42.90 43.24 43.31 43.91 44.46 44.83 44.40 45.08 46.31 47.36 48.78 49.67 50.97 52.27
32.38 33.04 33.27 34.03 33.70 33.53 33.76 33.40 32.16 31.62 28.41 30.59 32.41 33.59 33.69 33.25 34.36 35.30 36.56 36.21 37.13 40.65 40.44 40.66 41.22 41.96 42.55 42.96 43.21 43.74 44.46 45.07 45.63 46.52 47.40 49.13 49.86 51.40
31.56 31.99 32.07 34.33 32.32 32.92 32.39 31.45 31.19 31.46 29.39 27.28 30.92 31.80 31.50 33.00 33.31 32.99 35.29 36.90 35.60 37.50 39.31 39.53 40.99 40.97 40.78 41.47 41.82 42.23 42.63 43.64 43.96 45.14 46.55 47.44 48.33 48.62
31.39 31.29 31.49 31.71 31.14 31.67 31.06 30.51 30.90 31.88 31.35 30.45 29.03 31.43 31.75 32.28 32.05 33.29 33.76 32.99 34.22 36.22 37.36 38.34 39.00 39.15 39.60 40.27 40.62 41.16 42.00 42.21 42.80 43.78 44.77 45.70 46.48 48.18
31.54 31.58 31.47 31.44 31.09 30.91 31.10 30.97 32.11 31.16 30.37 29.35 29.67 29.63 29.88 31.33 31.73 30.31 28.12 29.88 28.92 32.44 34.66 35.77 37.37 37.70 38.46 39.01 39.37 39.46 40.32 41.00 42.12 42.44 42.58 44.00 44.63 45.83
30.56 31.07 31.96 33.69 36.34 34.89 32.80 31.54 31.18 29.74 29.73 30.58 29.10 28.37 28.76 27.85 27.03 27.78 25.77 26.81 28.10 29.70 29.86 31.24 30.92 31.63 32.82 35.92 36.58 38.04 39.10 40.51 41.44 42.28 42.73 43.48 43.67 45.09
28.98 30.47 31.20 33.01 33.19 35.70 35.56 35.63 34.47 31.14 29.72 28.85 28.35 26.77 25.80 26.38 27.25 26.04 25.37 24.66 23.56 31.00 27.45 26.98 29.79 29.33 31.35 32.82 36.84 38.96 39.85 40.55 40.78 41.07 41.76 42.38 43.23 44.38
29.42 29.61 30.00 31.84 32.08 30.47 33.40 35.24 35.06 35.44 34.47 29.68 25.57 25.14 24.92 27.29 28.01 26.40 26.72 26.70 26.04 27.44 27.40 25.89 29.22 28.34 31.51 33.77 36.40 36.98 38.65 39.38 39.29 39.47 40.28 41.29 41.84 42.96
29.74 29.66 29.35 29.31 30.58 31.94 31.27 30.90 31.04 31.04 29.43 29.60 28.01 28.44 29.55 29.67 29.25 28.51 27.31 26.29 26.68 27.43 28.67 23.77 27.71 27.63 29.22 31.18 35.75 35.71 36.30 37.31 38.33 40.05 40.63 41.24 41.64 42.39
30.03 30.25 30.39 30.17 33.14 34.40 31.00 30.40 28.21 27.67 30.90 32.35 33.33 33.66 32.65 32.37 31.41 27.81 25.04 24.13 22.17 24.02 26.90 24.26 25.94 25.38 26.77 27.77 30.43 34.84 36.27 37.77 36.71 38.58 38.55 40.49 41.34 42.74
29.37 29.97 32.68 31.73 33.63 34.38 30.50 27.90 25.41 24.75 26.69 28.29 26.35 26.45 28.03 27.47 31.04 27.94 26.43 23.10 22.36 21.23 25.22 23.20 23.61 24.56 22.89 27.84 29.42 31.20 30.93 35.21 36.20 36.37 37.39 38.34 39.84 38.70
28.40 28.09 28.97 32.35 34.18 33.50 32.70 27.02 26.41 29.16 27.90 23.84 23.63 24.22 25.25 26.05 26.45 26.85 26.93 25.23 22.61 21.94 25.86 26.32 25.06 25.14 24.80 24.53 27.68 29.93 31.55 30.89 31.13 31.68 34.93 37.83 38.95 39.17
27.78 27.80 28.24 32.97 31.93 31.43 29.43 30.50 31.02 29.61 23.83 22.92 23.17 23.73 23.24 23.14 24.17 25.17 25.91 26.14 26.74 25.79 27.50 27.56 25.06 24.99 24.46 23.88 24.37 27.05 27.61 28.95 30.16 30.59 32.81 35.99 39.56 41.58
28.21 30.16 32.76 31.06 29.95 27.62 28.68 29.41 28.84 23.24 22.98 22.74 22.88 22.20 23.16 23.89 24.55 24.70 25.78 26.73 26.96 27.73 29.02 28.85 27.93 28.04 27.01 23.74 22.22 23.91 25.62 27.63 29.77 31.23 31.85 32.28 35.87 42.06
30.37 29.38 28.41 28.02 27.97 26.91 25.28 24.72 23.42 23.67 23.79 23.35 22.71 23.24 23.85 23.41 23.23 24.67 23.72 24.40 25.41 26.71 29.04 28.49 26.21 25.06 20.37 22.25 24.84 24.43 26.03 26.43 31.14 31.93 31.98 33.64 36.19 38.09
28.89 24.83 22.81 22.26 21.42 21.67 22.07 22.43 23.40 23.66 23.42 23.16 22.41 21.93 22.14 22.68 22.81 24.06 24.97 25.72 23.99 25.09 24.84 25.93 25.77 25.19 24.67 24.81 24.05 25.68 27.68 29.17 31.47 31.59 32.48 32.59 33.95 37.35
24.65 21.23 20.51 20.55 20.29 20.84 21.03 21.61 22.51 23.44 22.82 22.55 21.90 21.64 21.52 21.50 21.73 24.29 24.90 23.97 22.55 23.45 23.73 24.82 22.51 20.84 20.42 26.30 29.59 25.97 28.09 29.12 30.81 31.91 32.84 32.70 32.62 36.87
21.17 20.61 20.43 20.60 20.56 20.95 21.39 21.64 21.20 22.34 22.88 21.82 21.48 21.64 21.34 21.33 22.74 22.85 24.37 23.67 22.48 23.78 23.81 24.26 21.57 19.63 18.81 18.45 25.18 32.85 27.97 29.11 31.35 31.45 32.21 32.84 31.77 33.10
21.33 20.90 20.28 20.43 20.77 21.20 21.62 21.55 21.58 21.61 21.23 21.77 21.51 21.15 21.84 22.25 22.46 23.27 23.84 22.76 23.28 24.82 23.64 23.69 22.33 21.36 18.37 18.37 20.27 28.25 32.77 29.53 30.98 31.04 31.50 33.15 35.74 38.33
21.02 20.45 20.68 20.93 21.58 21.94 21.96 21.64 21.24 20.76 22.18 20.75 21.14 21.72 22.48 22.92 23.22 23.28 23.93 26.02 26.17 24.31 23.07 23.14 24.34 30.61 25.49 25.15 24.81 25.73 29.55 33.65 32.91 29.72 31.08 31.85 31.38 32.26
20.38 20.19 21.17 21.67 21.74 21.64 21.28 20.92 20.64 20.53 20.56 20.99 21.60 22.26 23.26 24.48 22.20 22.62 24.27 23.82 24.09 25.72 24.74 24.30 25.32 26.38 25.58 24.76 24.06 25.33 27.17 29.51 32.39 34.58 35.38 32.96 28.28 28.77
20.34 21.13 21.16 21.50 21.57 21.11 20.84 20.63 20.56 20.38 21.08 21.72 22.32 23.79 25.07 23.08 23.05 23.74 25.07 25.49 25.43 26.17 25.22 24.19 24.26 24.42 25.09 25.69 26.55 26.46 26.67 26.93 27.53 28.04 31.73 36.27 36.35 36.55

GFSNE_sfc_wetblb_027.txt.gz
Wetbulb
30.15 30.23 30.36 32.60 33.21 33.44 33.19 32.53 29.70 25.41 26.26 30.34 30.28 33.65 34.24 35.02 36.10 35.96 35.89 39.09 40.62 41.39 42.21 42.34 42.77 43.71 43.40 43.10 43.66 44.18 44.93 45.26 46.14 47.13 47.69 47.65 47.76 49.19
31.59 29.44 30.46 32.00 32.30 32.78 32.40 31.96 31.47 29.05 25.56 30.25 30.85 32.28 33.24 34.40 36.11 35.44 34.76 38.08 39.33 40.34 40.90 41.27 41.90 42.05 41.57 41.95 41.91 42.88 44.02 44.76 45.45 46.26 46.94 46.94 47.79 48.68
29.03 30.26 30.32 31.22 31.06 31.48 31.76 31.66 30.93 30.01 26.61 29.14 31.20 32.05 31.73 32.22 33.04 33.47 34.61 33.78 34.40 39.08 40.45 40.77 40.85 40.64 40.45 40.21 40.58 42.34 42.60 43.06 44.00 44.95 45.87 46.44 47.09 47.63
28.87 29.18 29.61 31.85 29.90 30.52 30.68 30.22 29.89 30.21 28.37 26.36 29.44 30.49 31.03 31.98 31.95 31.98 32.97 34.46 34.62 37.57 38.71 38.98 38.89 38.60 38.96 39.26 39.74 40.22 40.58 41.29 41.97 42.66 43.55 44.28 44.84 46.16
28.75 28.99 29.36 29.34 28.64 29.51 29.84 29.69 30.18 31.27 30.87 29.61 29.18 30.74 30.57 32.23 31.13 31.29 31.18 31.89 33.39 35.31 36.49 36.52 36.93 37.28 37.65 38.47 39.29 39.09 38.95 39.69 40.44 41.04 41.86 42.64 43.77 45.04
29.52 29.53 29.36 29.18 28.99 29.53 30.10 30.06 31.34 29.83 29.36 28.11 27.97 29.70 29.44 30.71 30.81 27.00 26.19 28.45 28.15 31.13 32.88 34.03 35.44 36.19 37.36 37.20 36.48 36.63 37.21 38.10 39.15 39.93 40.52 40.98 42.31 43.51
28.30 29.44 30.20 31.66 34.19 33.54 31.60 29.76 29.30 28.54 29.29 29.86 28.11 28.50 27.85 25.20 24.10 25.81 24.74 26.67 27.76 28.58 28.27 29.06 31.04 30.43 30.20 33.24 33.76 35.25 36.16 37.61 38.63 39.86 40.92 41.59 41.99 42.82
27.51 29.18 29.67 31.93 31.72 34.72 34.51 34.86 33.87 30.23 28.56 28.78 28.07 24.87 24.35 24.79 25.54 25.04 25.69 25.40 23.46 29.44 27.84 26.94 28.41 27.21 28.58 29.87 34.15 35.61 36.77 37.47 37.28 38.29 39.08 40.69 41.12 41.74
27.96 28.33 28.93 30.85 31.39 29.46 32.56 34.30 33.71 35.07 34.61 30.14 26.14 24.96 24.61 25.38 26.73 27.37 26.21 24.65 24.20 26.68 26.07 23.65 27.05 25.72 28.53 30.24 33.55 34.96 35.71 35.99 36.89 38.38 38.30 39.55 39.50 40.15
27.82 28.28 28.18 28.59 29.85 30.92 29.90 29.82 31.00 30.95 29.38 29.33 27.49 27.33 28.67 29.80 28.27 27.06 25.77 25.52 26.00 26.26 26.80 21.49 25.40 24.49 26.46 27.66 32.92 34.09 34.41 35.08 36.26 37.12 38.20 38.95 39.22 40.04
29.04 28.79 29.91 29.14 32.10 33.40 30.07 29.94 27.77 26.98 30.06 32.00 33.02 32.73 31.62 31.48 30.41 26.88 24.29 22.91 20.93 22.51 25.28 23.06 23.50 23.20 24.49 25.07 27.39 32.37 34.02 35.38 36.33 37.67 37.47 37.46 38.54 39.08
28.54 29.06 31.70 30.38 32.64 34.25 30.01 27.24 23.51 23.71 26.36 27.55 24.59 25.32 27.15 26.90 30.38 27.03 25.15 21.02 20.70 19.73 23.78 22.19 22.44 22.76 21.44 25.66 26.93 29.21 29.79 33.65 34.57 35.53 36.87 36.53 36.86 34.93
27.38 26.98 27.44 31.78 34.56 32.32 31.66 25.19 25.12 28.57 26.88 22.77 22.77 23.61 24.66 25.32 25.26 25.41 25.89 23.97 21.29 20.74 24.76 25.59 24.01 23.63 23.27 22.83 25.39 27.25 28.52 29.27 30.07 31.19 33.50 34.68 35.58 35.76
27.05 26.83 27.79 33.00 30.97 30.10 28.17 29.74 30.30 28.89 23.35 22.44 22.47 22.77 22.68 22.84 23.98 24.97 25.64 25.70 26.17 25.13 26.85 26.94 24.68 24.31 23.34 22.24 22.04 23.47 26.40 27.67 28.14 28.30 29.80 32.78 35.55 36.89
28.07 30.26 30.99 29.65 28.58 26.46 27.82 28.68 28.22 22.79 22.75 22.26 21.90 21.78 22.86 23.96 24.59 24.36 25.32 26.06 26.25 27.02 29.63 28.88 27.28 24.91 22.59 21.18 21.45 22.24 25.24 27.29 29.33 28.96 29.90 31.22 31.77 32.90
29.98 26.45 26.84 26.81 26.97 26.01 24.57 24.38 23.56 23.71 23.54 22.67 22.01 22.70 23.62 23.13 22.75 24.05 22.93 23.49 24.33 24.65 27.43 29.00 28.50 26.32 21.76 21.17 22.54 22.94 25.66 25.26 29.04 30.60 31.79 31.88 34.31 36.91
27.74 23.30 21.81 21.55 20.73 21.25 22.11 22.58 23.02 23.19 22.75 22.45 22.03 21.53 21.86 22.29 22.31 23.25 23.11 23.86 22.35 22.77 23.12 25.98 26.89 24.58 22.59 21.73 21.54 24.78 25.94 27.36 30.70 31.68 31.51 32.83 35.84 38.03
23.74 20.38 19.84 20.13 19.86 20.32 20.47 21.01 22.00 22.71 22.13 22.03 21.47 21.32 21.23 21.23 21.14 23.13 23.57 23.17 22.98 22.82 23.39 24.97 23.63 21.18 20.13 23.16 28.48 26.21 27.89 28.51 31.29 32.01 31.88 32.36 32.74 36.68
20.41 20.00 19.51 19.59 19.71 20.27 20.67 21.00 20.42 21.42 22.15 21.05 20.83 21.60 20.90 20.94 22.05 21.95 23.16 23.52 22.82 23.80 25.12 24.97 23.16 20.23 17.50 18.17 24.59 33.80 27.96 29.61 32.06 31.93 32.62 32.28 31.84 35.22
20.51 19.53 19.10 19.67 20.20 20.60 20.85 20.55 20.59 20.51 20.19 20.87 21.42 20.44 21.09 21.13 20.92 22.10 22.06 22.43 24.43 24.80 23.93 24.33 23.31 23.41 19.54 19.79 18.94 27.15 32.95 30.74 29.69 31.44 31.85 33.31 34.48 37.64
19.47 19.26 20.06 20.38 20.83 20.95 20.76 20.42 19.92 19.74 21.39 20.37 20.34 20.80 21.36 21.68 22.00 22.06 21.82 25.85 26.82 24.32 22.51 22.58 24.25 31.30 27.70 26.18 25.14 26.74 30.11 34.67 34.58 31.40 32.54 32.51 32.15 32.95
19.44 19.68 20.45 20.99 20.66 20.39 20.00 19.64 19.37 19.35 19.31 19.61 20.12 20.95 21.64 23.24 23.57 22.41 22.08 22.99 23.93 24.76 23.54 23.80 25.86 26.86 26.41 26.15 24.96 25.27 27.37 31.63 34.75 36.18 36.18 34.90 32.48 30.00
19.96 20.61 20.40 20.21 20.33 19.93 19.41 19.14 18.93 19.12 19.53 20.28 20.26 21.50 22.36 24.32 25.20 24.34 23.36 24.77 24.24 23.91 23.50 22.75 24.40 25.62 26.53 27.33 26.19 25.71 26.10 29.31 31.20 31.37 32.49 36.66 36.09 36.07

GFSNE_sfc_wetblb_030.txt.gz
Wetbulb
28.13 28.07 28.07 29.44 30.11 30.59 30.61 30.00 27.46 23.20 23.77 28.28 28.99 31.82 32.06 33.16 34.76 34.41 34.00 38.05 39.92 40.46 40.87 41.01 41.15 41.71 42.31 43.24 43.99 44.40 44.36 44.19 44.40 44.65 45.77 46.73 47.44 48.55
29.88 27.82 27.72 29.15 29.78 30.10 30.00 29.95 29.33 27.02 23.76 28.98 29.73 31.04 32.17 33.38 34.32 34.36 34.26 37.62 38.41 39.55 39.94 39.73 40.22 40.95 41.61 42.30 42.79 42.91 42.83 42.76 43.02 43.89 45.57 46.68 47.19 47.83
27.82 27.97 28.32 28.92 29.11 29.20 29.52 29.46 28.79 28.62 25.51 27.95 30.21 31.31 30.77 31.08 32.34 33.01 33.79 32.91 33.73 38.06 38.78 38.78 39.02 39.50 39.98 40.22 40.99 40.87 40.75 41.40 42.23 43.40 44.34 45.65 45.99 46.21
27.43 27.45 27.69 30.66 27.90 28.42 28.53 28.09 28.39 28.97 27.44 25.75 29.01 29.78 29.81 30.93 31.00 30.64 32.78 34.23 32.83 35.66 36.58 37.43 37.79 38.06 38.03 38.44 38.58 38.67 39.05 39.81 40.55 41.38 42.45 43.44 44.10 44.77
27.37 27.26 27.57 27.67 27.09 27.78 27.98 27.95 28.82 30.28 29.74 27.47 26.34 29.04 29.33 30.64 30.36 31.06 29.65 29.00 30.60 33.66 35.25 35.67 36.25 36.66 37.00 37.26 37.58 38.01 38.40 39.04 38.95 38.75 39.58 40.68 41.96 43.06
28.23 28.21 27.88 27.69 27.43 27.73 28.91 28.70 30.09 27.92 27.75 27.08 27.24 28.77 28.95 29.89 30.51 25.84 24.96 27.04 26.49 29.42 31.96 33.56 35.13 35.26 36.00 36.48 36.37 36.23 36.11 36.12 37.05 37.94 38.60 39.05 39.71 40.87
27.12 27.77 28.78 30.84 34.07 33.17 31.10 29.86 29.01 28.13 28.74 28.70 26.70 26.78 27.50 25.03 23.89 25.25 24.24 25.11 26.07 28.48 28.27 27.92 28.55 29.08 29.76 32.77 32.88 33.87 34.28 35.11 36.26 37.20 38.10 38.96 39.75 40.31
26.64 27.92 28.47 31.21 30.80 34.21 33.91 34.23 33.07 29.32 27.31 26.47 28.09 24.40 24.09 24.42 25.29 24.47 24.53 24.94 21.07 27.41 25.37 25.28 27.59 26.16 27.23 28.12 32.44 33.75 34.65 35.48 36.24 36.86 37.90 39.00 38.73 39.02
26.24 27.05 27.67 29.86 30.58 28.96 31.74 33.26 32.73 34.14 34.12 28.33 24.42 23.97 23.75 24.84 26.35 26.38 24.33 23.32 22.87 25.38 25.25 23.17 26.19 24.61 27.18 28.55 32.44 33.24 34.00 34.58 35.03 35.78 37.18 37.50 37.66 38.62
26.81 26.52 26.36 28.00 28.57 29.85 28.84 28.81 30.65 27.99 27.54 27.20 26.10 26.94 28.61 28.64 26.80 26.13 25.33 25.24 25.62 25.41 25.81 20.57 24.09 23.02 25.29 26.19 31.46 32.63 33.47 34.14 34.69 35.31 36.06 36.58 37.00 37.64
27.70 26.96 28.89 27.93 31.21 33.30 31.40 27.21 26.06 25.02 28.81 31.17 32.46 31.59 30.93 30.99 29.78 26.66 23.62 21.96 19.56 21.01 24.24 22.24 22.17 22.01 23.64 24.13 26.04 31.36 32.74 33.69 34.73 35.52 36.60 38.26 38.57 39.02
27.86 28.76 31.24 29.92 32.88 34.05 28.23 25.56 22.03 22.76 26.19 26.88 24.20 25.06 26.55 26.26 29.77 26.37 24.87 20.45 19.94 19.00 23.47 21.70 21.92 22.58 20.95 24.72 25.43 26.91 27.36 32.04 33.36 34.37 35.10 35.73 36.28 34.53
27.32 26.76 27.00 31.95 32.66 31.49 30.89 24.09 24.57 28.49 26.56 22.40 22.36 23.27 24.46 24.96 25.16 25.53 25.86 23.78 20.94 20.19 24.56 25.09 23.52 23.27 22.74 22.05 24.69 26.12 26.55 27.02 27.78 29.52 33.25 34.72 35.68 35.42
26.48 26.90 28.20 31.28 30.20 29.48 27.64 29.47 30.33 28.60 22.65 22.24 22.32 22.47 22.42 22.79 23.82 24.70 25.41 25.37 25.52 24.34 25.98 25.95 23.41 24.49 23.43 22.14 20.77 22.77 23.81 26.05 27.03 27.75 28.95 31.89 34.95 36.05
27.86 29.76 30.21 29.14 28.13 25.99 27.41 28.66 28.02 22.53 22.22 21.86 21.56 21.42 22.42 23.46 24.11 24.00 24.83 25.26 25.28 25.74 27.27 27.85 26.51 25.45 25.27 22.62 20.56 20.60 21.74 24.06 27.47 27.89 29.32 29.33 29.33 30.34
29.14 25.85 26.46 26.25 26.38 25.49 24.29 23.84 22.84 22.88 22.85 22.06 21.28 22.12 22.98 22.52 22.33 23.63 22.59 22.63 22.35 23.59 26.88 28.18 27.76 26.66 22.97 21.49 21.23 19.86 22.60 22.80 27.10 28.63 30.55 31.80 32.03 31.77
27.27 22.70 21.09 20.69 20.06 20.60 21.34 21.79 22.34 22.54 21.90 21.55 21.04 20.75 20.97 21.41 21.71 22.66 23.05 23.31 21.72 22.62 23.80 26.14 27.78 27.33 24.68 21.64 19.49 22.75 24.10 25.72 29.63 31.43 31.69 31.73 34.42 34.23
23.02 19.48 18.91 19.19 19.08 19.45 19.79 20.55 21.26 21.84 21.07 20.87 20.13 19.96 19.95 20.74 20.23 22.33 22.59 22.69 22.05 22.79 24.34 25.41 25.33 23.32 22.35 24.57 27.47 24.17 29.11 28.68 31.38 32.13 32.56 32.10 32.72 35.87
19.58 19.11 18.60 18.80 18.86 19.50 19.84 19.88 18.97 20.00 20.50 19.68 19.04 20.15 20.83 19.86 21.14 20.38 21.24 22.67 21.80 24.81 25.25 25.60 24.31 22.69 19.93 18.14 24.40 31.00 29.60 31.46 31.34 32.32 32.42 31.75 31.63 33.90
19.73 18.63 18.13 18.86 19.31 19.49 19.53 19.00 18.95 19.10 18.94 18.89 20.51 19.38 19.87 20.06 20.00 20.39 22.18 21.51 23.41 24.91 24.45 25.05 24.40 25.20 22.49 20.94 20.49 25.05 33.61 31.84 31.50 31.35 31.71 33.55 34.09 36.84
18.75 18.56 19.31 19.48 19.64 19.71 19.44 19.23 19.00 18.67 20.45 19.57 18.53 19.18 20.06 20.39 20.39 21.50 23.47 25.72 26.13 23.91 23.24 23.26 25.48 32.37 28.87 28.57 24.93 27.45 31.85 34.23 33.88 32.07 32.14 32.30 31.28 31.50
18.92 18.84 19.36 19.79 19.48 19.22 19.02 18.87 18.31 18.31 18.15 18.55 18.78 19.44 20.10 21.09 20.92 23.13 24.69 22.98 23.54 23.57 24.18 25.44 27.01 27.66 26.74 25.76 24.61 27.04 30.19 32.58 35.05 35.54 36.23 35.04 31.68 28.69
18.96 19.31 19.24 19.13 19.06 18.82 18.54 18.09 17.87 18.00 18.54 19.10 19.08 19.84 20.83 20.80 21.66 25.49 24.62 25.02 24.86 24.08 23.16 23.83 25.79 26.48 25.99 25.94 26.67 27.84 29.26 30.12 31.46 31.22 31.87 36.65 36.13 36.40

GFSNE_sfc_wetblb_033.txt.gz
Wetbulb
26.92 27.04 26.82 28.16 28.68 28.49 28.38 27.91 25.49 21.41 22.35 26.14 26.70 30.50 31.54 32.18 33.76 33.75 33.30 37.12 39.19 40.27 41.10 41.21 40.83 41.24 41.79 42.43 42.71 43.26 44.04 44.52 45.28 46.05 46.29 46.69 47.04 47.15
28.57 26.91 26.59 27.69 27.92 28.22 28.06 28.26 27.65 25.34 22.28 27.22 28.10 29.90 31.21 32.57 33.71 33.57 33.31 37.06 38.33 39.42 39.54 39.48 39.63 39.86 40.15 40.48 40.73 41.39 42.03 43.19 43.90 44.82 45.75 45.91 46.11 46.07
26.74 26.85 27.12 27.79 27.36 27.42 27.70 27.81 27.16 26.95 23.92 26.45 28.93 30.30 30.19 29.81 30.77 31.70 32.83 32.29 33.02 37.61 38.60 38.53 38.20 38.30 38.66 38.90 39.46 40.09 40.90 41.43 42.22 43.22 44.15 44.14 44.41 44.91
26.55 26.24 26.58 29.93 26.82 26.94 26.73 26.55 26.96 27.54 25.90 24.70 28.04 28.26 28.00 29.44 29.88 29.64 31.62 33.89 34.69 35.08 36.68 36.59 36.85 37.32 37.69 37.86 37.91 38.46 38.82 39.38 39.91 40.47 41.06 41.70 42.69 43.66
26.52 26.15 26.66 26.61 25.90 26.73 26.83 26.83 27.40 29.38 29.08 27.18 25.52 28.19 28.71 29.82 29.60 30.81 30.05 29.17 29.92 33.15 35.01 35.34 35.96 36.27 36.57 36.88 37.45 37.25 37.49 38.06 38.46 38.82 39.48 40.43 41.16 41.95
27.38 27.04 26.78 26.67 26.28 26.64 28.16 28.38 29.70 27.54 27.18 26.58 26.72 27.58 28.07 29.36 29.45 25.34 24.37 26.62 26.13 29.01 31.45 32.96 34.54 35.09 35.50 35.57 35.42 35.22 35.61 36.20 36.88 37.44 37.75 37.95 38.28 39.38
26.10 26.33 27.67 29.92 33.05 32.23 30.49 28.31 28.12 27.50 27.34 26.83 25.64 26.99 24.37 23.79 22.51 24.35 23.75 24.89 26.26 27.43 27.72 26.96 27.38 27.44 28.18 31.56 31.98 33.20 33.65 34.35 35.20 35.94 36.61 37.20 37.63 38.45
25.25 26.47 26.66 30.11 29.70 33.62 33.26 33.59 32.51 28.58 27.61 28.15 24.19 23.04 22.12 22.67 24.00 23.87 24.79 24.06 20.42 27.21 24.97 24.52 26.63 25.61 26.61 27.27 31.70 33.07 34.06 34.99 35.45 36.22 36.99 37.40 37.63 38.19
25.30 26.36 26.83 29.03 29.96 28.03 30.89 32.97 32.88 33.62 32.03 27.19 23.27 22.29 22.37 24.24 26.96 25.40 23.99 23.62 22.57 25.11 25.53 23.09 25.28 23.42 25.63 27.06 31.56 32.51 33.50 34.26 34.79 35.22 35.64 36.38 36.80 37.34
25.77 25.82 25.55 26.42 28.12 29.44 29.03 30.66 27.00 26.66 26.43 26.63 25.47 26.13 28.29 28.18 26.68 26.04 25.32 25.34 25.54 25.52 25.62 20.16 23.53 22.22 24.51 25.54 30.80 32.12 33.06 33.70 34.12 34.62 35.20 35.72 36.20 36.70
26.02 26.83 28.26 28.30 31.09 33.33 30.15 25.90 25.14 24.74 28.39 30.87 32.41 31.53 30.74 30.88 29.97 26.95 23.34 21.64 19.54 21.30 24.27 21.98 22.15 21.94 23.74 24.22 26.33 31.15 32.60 33.37 33.95 34.34 35.23 35.83 36.56 37.10
27.86 28.04 30.78 29.84 32.66 33.57 28.05 25.25 21.93 22.57 25.91 27.21 24.07 24.70 26.53 26.09 29.86 26.42 24.88 20.51 19.89 18.74 23.04 21.27 21.47 22.65 20.62 25.44 26.08 26.84 26.66 31.16 32.46 33.11 33.86 34.77 35.41 33.12
25.95 26.57 27.03 31.67 32.78 31.66 30.96 24.41 24.39 28.58 26.42 22.05 22.30 23.16 24.22 24.70 24.97 25.28 25.63 23.70 20.76 20.03 24.02 24.56 22.58 22.04 21.64 21.04 24.33 26.28 26.91 26.85 26.29 26.97 31.26 33.11 34.33 34.11
26.58 26.58 27.29 31.44 30.27 29.63 27.70 29.23 30.40 28.56 22.14 21.74 21.63 22.06 21.62 21.97 23.13 23.89 24.73 25.17 25.69 24.25 25.59 25.41 22.58 22.25 21.49 21.23 20.69 24.90 25.79 26.43 26.33 25.47 26.49 30.25 33.68 35.29
27.61 29.41 30.17 29.17 28.08 25.66 26.99 28.49 27.64 21.85 21.46 20.95 20.91 20.51 21.24 22.18 23.00 23.22 24.27 24.93 24.68 25.47 26.73 26.34 25.22 24.85 24.47 22.45 21.95 22.40 23.51 25.08 25.93 25.39 26.22 27.22 27.86 29.22
28.75 25.46 26.46 25.98 25.93 25.05 23.55 23.20 22.01 22.15 22.39 21.33 20.30 20.98 21.62 21.02 20.80 22.23 21.46 21.56 22.13 22.70 26.89 27.97 28.45 27.27 24.45 24.57 23.88 21.76 23.79 22.33 25.49 27.27 28.36 29.56 30.30 30.51
27.14 22.59 20.46 19.99 19.39 19.85 20.44 21.02 21.42 21.59 20.93 20.29 19.71 19.25 19.64 19.68 20.09 21.61 21.45 21.94 20.21 21.40 22.79 26.06 28.22 27.84 27.03 25.36 22.36 24.43 25.93 27.48 30.92 31.51 31.87 31.61 32.16 31.67
22.79 18.79 18.33 18.40 18.27 18.60 18.95 19.39 20.27 20.74 19.85 19.94 19.05 18.79 18.03 18.97 19.29 20.95 21.12 21.15 20.99 21.93 23.19 25.66 25.48 24.36 25.45 24.88 27.69 24.88 29.00 30.64 32.29 32.67 32.36 30.96 32.01 31.85
18.87 18.32 17.89 18.07 18.10 18.64 18.92 19.01 18.11 19.20 19.85 18.69 18.19 18.21 19.56 18.23 19.39 19.14 19.98 21.26 22.11 23.09 25.35 25.72 24.62 23.22 21.95 21.22 26.64 31.88 28.11 30.87 31.76 32.18 32.65 31.81 31.42 34.40
18.97 18.10 17.67 18.17 18.46 18.63 18.91 18.51 18.43 18.51 18.21 17.86 19.30 18.49 18.02 18.30 18.21 18.69 20.22 20.84 24.25 24.73 24.01 25.08 24.59 24.80 24.62 22.70 23.31 27.04 33.24 31.09 31.30 30.96 31.31 32.91 34.20 39.20
18.25 18.00 18.56 18.49 18.67 19.17 19.12 18.66 18.20 17.98 19.76 19.04 17.38 17.91 18.53 18.80 18.16 19.25 20.58 25.23 27.11 23.74 22.79 23.41 25.96 32.52 28.60 29.04 26.86 29.04 31.94 34.38 34.37 31.92 31.97 31.56 30.47 31.89
18.25 18.02 18.44 18.79 18.99 18.82 18.19 17.87 17.74 17.90 17.72 17.96 17.76 18.49 19.03 19.41 19.35 20.07 20.76 22.79 23.84 24.23 23.86 25.28 27.07 26.99 26.09 25.87 25.46 27.88 29.19 31.96 34.83 35.67 35.76 34.06 30.33 27.70
18.09 18.20 18.20 18.37 18.39 18.10 17.89 17.79 17.65 17.55 18.16 18.33 18.50 19.01 19.91 19.70 20.72 21.67 22.06 24.77 24.57 24.62 23.20 23.43 25.19 25.38 25.85 25.76 27.11 26.85 27.79 28.24 31.01 31.49 32.10 36.36 35.83 35.42

GFSNE_sfc_wetblb_036.txt.gz
Wetbulb
26.03 25.92 25.97 27.24 27.74 27.66 27.27 26.34 24.29 20.24 21.48 24.96 24.13 29.23 30.30 31.27 32.75 32.87 32.46 36.40 38.73 39.49 40.33 40.52 40.59 41.03 41.61 42.17 42.30 42.48 42.80 43.07 43.63 44.30 45.14 45.90 46.91 47.84
27.81 26.05 25.71 26.57 26.99 27.36 26.88 27.06 26.51 24.34 21.38 26.49 27.15 28.75 30.06 31.50 32.98 32.58 31.81 35.84 37.17 38.42 39.10 39.12 39.48 39.93 40.24 40.68 40.35 40.59 40.92 41.57 42.38 43.21 44.24 45.18 46.02 46.80
26.13 25.89 26.26 26.67 26.37 26.52 26.66 26.89 26.09 25.90 23.16 25.76 28.21 29.28 29.03 29.03 29.76 30.53 31.59 31.22 31.84 36.79 38.32 38.34 38.44 38.67 38.57 38.78 39.16 39.51 40.03 40.66 41.32 41.93 42.86 43.78 44.77 45.41
25.84 25.59 25.64 29.09 25.81 26.13 26.27 25.78 25.74 26.61 25.24 23.59 26.66 27.65 27.50 28.90 29.36 29.45 31.38 33.17 32.67 34.82 36.02 36.48 36.90 37.19 37.49 37.58 37.72 38.19 38.56 39.01 39.31 39.89 40.49 41.44 42.51 43.27
25.71 25.25 25.33 25.24 24.70 25.52 25.66 25.61 26.46 28.21 28.41 26.68 25.07 27.65 28.24 29.45 29.28 29.03 27.92 27.69 29.01 32.50 34.41 35.03 35.57 36.06 36.38 36.87 37.27 37.61 37.36 37.63 37.76 38.12 38.71 39.42 40.50 41.46
26.16 26.03 25.73 25.50 25.12 25.55 26.22 26.81 28.62 26.21 26.24 26.10 26.68 27.06 28.41 27.43 26.11 23.72 23.11 25.58 25.48 28.60 31.27 32.83 34.24 34.53 35.08 35.24 34.94 34.71 34.89 35.37 36.17 36.90 37.30 37.53 38.13 39.18
25.57 26.02 26.51 28.52 32.81 32.26 30.17 28.21 27.71 27.03 26.63 27.30 26.47 24.49 23.40 22.74 21.83 23.61 22.96 24.36 26.21 27.70 26.41 26.83 26.89 26.97 27.68 31.23 31.64 32.84 33.25 34.02 35.00 35.66 36.34 36.92 37.21 37.85
24.89 26.03 25.75 29.36 28.77 33.48 33.29 33.58 32.52 29.16 28.78 25.05 23.49 22.23 22.06 22.28 23.62 23.69 25.02 22.91 20.77 27.19 25.29 25.17 27.16 25.93 26.83 27.08 31.39 32.72 33.66 34.50 35.23 35.63 36.34 37.10 37.43 37.92
24.91 25.32 26.24 28.65 29.57 26.78 30.62 33.02 33.16 33.31 31.58 26.72 22.88 22.19 22.20 23.91 26.33 24.88 23.67 23.28 22.76 25.33 25.68 23.03 25.50 23.77 26.13 27.11 31.44 32.29 33.25 34.02 34.64 35.10 35.63 36.05 36.63 37.13
25.08 24.89 24.49 25.32 26.93 29.61 29.04 30.64 27.03 26.41 26.30 26.59 25.49 26.25 28.44 28.25 26.46 26.00 25.65 25.47 25.46 25.02 25.53 20.09 23.59 22.33 24.85 26.03 30.81 32.04 32.90 33.61 34.15 34.59 35.20 35.53 35.78 36.12
26.03 25.19 25.74 27.71 31.12 33.26 30.52 26.77 25.36 24.96 28.49 30.92 32.35 31.83 30.92 31.02 29.95 26.83 23.16 21.53 19.58 21.21 24.01 21.77 21.94 21.79 23.41 24.13 26.14 31.08 32.44 33.32 34.02 34.54 35.04 35.64 36.19 36.40
26.62 26.42 30.37 29.97 32.58 33.74 28.12 25.47 22.17 22.61 25.29 27.24 23.57 24.09 25.84 25.32 29.42 25.44 23.84 20.01 19.44 18.54 23.08 21.64 21.54 22.64 20.16 24.62 24.87 26.12 26.12 30.70 32.23 33.59 34.35 34.81 34.99 32.30
25.92 26.44 27.12 31.41 32.54 31.66 31.03 24.32 24.19 28.57 26.39 21.59 21.50 22.14 23.33 23.68 23.57 23.75 24.28 22.62 19.93 19.31 23.65 24.67 22.50 21.66 21.24 20.58 23.61 25.41 26.48 26.97 27.29 28.43 32.06 33.55 34.50 34.24
26.41 26.72 26.93 31.52 30.44 29.68 27.67 29.02 30.27 28.32 21.68 20.98 20.89 21.31 21.06 20.72 21.89 22.44 23.11 23.56 24.26 23.42 25.19 24.94 22.41 22.29 21.42 20.35 20.46 24.93 26.81 27.90 28.00 27.14 27.65 30.43 33.32 34.52
27.66 29.31 30.53 29.42 28.12 25.39 26.64 28.12 27.29 21.05 20.85 20.46 20.40 19.92 20.32 20.93 21.63 21.66 22.20 22.88 23.73 24.63 26.01 25.66 24.97 25.03 24.60 22.91 22.83 23.70 25.84 27.03 28.15 27.07 27.08 26.95 26.64 27.50
28.92 25.93 26.63 25.82 25.59 24.64 22.92 22.61 21.50 21.43 21.86 20.84 19.67 20.10 20.64 19.77 19.51 20.79 20.29 20.74 20.96 21.71 26.14 27.23 27.73 27.28 25.44 25.21 25.27 24.24 26.40 24.56 26.91 29.09 30.15 30.66 30.38 28.77
27.37 22.51 19.95 19.43 18.79 19.20 19.71 20.30 20.87 21.00 20.46 19.93 19.22 18.69 18.97 18.88 18.48 20.27 20.28 20.57 18.92 19.96 22.21 25.91 28.63 28.71 27.98 26.57 24.51 26.19 26.94 27.81 31.23 32.00 31.91 31.73 33.08 33.12
22.61 18.26 17.72 17.99 17.76 17.93 18.25 18.73 19.68 20.49 19.50 19.55 18.68 18.43 17.42 17.41 18.45 19.61 19.22 19.14 19.53 21.15 23.08 25.59 25.75 25.83 26.44 27.19 30.64 26.34 29.95 30.28 31.98 32.30 32.20 31.15 31.53 30.31
18.41 17.68 17.44 17.60 17.63 17.93 18.14 18.22 17.63 18.91 19.63 18.66 18.03 17.29 18.76 18.33 18.04 17.24 17.88 18.90 19.79 22.26 25.60 25.35 24.87 24.65 22.17 21.24 27.28 32.91 29.42 31.23 31.65 31.42 31.98 32.61 32.41 30.45
18.35 17.59 17.17 17.61 17.68 17.58 18.11 17.98 18.17 18.17 17.97 17.61 18.69 18.85 17.42 17.37 16.68 16.73 17.56 18.24 20.91 24.23 23.60 24.88 25.06 25.01 25.22 23.36 24.41 28.61 33.60 31.23 31.19 30.67 30.51 33.92 35.72 37.15
17.66 17.51 17.90 17.78 17.79 18.42 18.49 18.29 17.95 17.73 19.44 19.14 17.34 17.80 17.92 17.89 16.89 17.54 18.33 23.25 24.79 22.90 22.61 23.26 26.15 32.02 27.86 28.34 26.15 27.57 31.36 33.69 34.19 31.73 31.77 30.53 31.44 32.52
17.61 17.40 17.74 18.06 18.30 18.01 17.71 17.70 17.50 17.52 17.49 17.69 17.72 18.14 18.24 18.60 18.19 18.73 19.75 20.32 21.17 23.71 23.95 24.92 26.27 26.36 21.02 24.63 24.90 26.10 28.55 31.01 33.44 35.18 35.39 34.52 30.97 28.53
17.57 17.60 17.63 17.74 17.80 17.69 17.65 17.34 17.24 17.34 17.89 18.08 17.89 18.38 19.12 19.07 20.33 20.99 21.66 22.67 24.34 24.24 23.73 22.50 24.06 22.23 17.74 20.85 26.15 25.90 27.07 28.60 29.83 30.11 31.98 36.32 36.04 35.80

GFSNE_sfc_wetblb_039.txt.gz
Wetbulb
33.45 33.10 32.52 33.30 33.58 33.50 33.04 31.92 28.86 24.96 26.63 30.60 30.78 34.40 34.36 34.64 35.15 35.21 35.10 36.86 38.31 39.12 39.83 40.03 40.18 40.65 41.19 41.92 42.33 42.32 42.63 43.10 43.78 44.31 44.50 44.75 45.44 46.69
33.71 32.60 32.59 32.87 32.91 33.21 32.72 32.19 31.31 28.65 25.72 30.33 31.29 32.89 33.72 33.73 35.14 34.69 34.46 35.88 36.89 38.01 38.60 38.61 38.90 39.38 39.73 40.20 40.62 41.04 41.40 41.73 42.28 43.09 43.83 44.20 44.85 45.42
32.76 32.13 31.58 32.26 31.90 32.09 32.17 31.70 30.66 30.07 27.22 29.68 32.00 33.26 32.32 32.49 33.15 34.22 34.37 33.83 35.10 36.70 37.39 37.64 37.69 37.89 38.39 38.85 39.34 39.81 40.24 40.63 41.15 41.94 42.60 43.25 43.87 44.46
31.51 31.05 30.78 31.59 30.91 31.23 30.79 30.10 30.19 30.76 29.01 26.70 29.54 31.01 30.98 32.41 32.60 32.53 33.04 33.42 33.07 34.18 35.66 36.15 36.88 37.34 37.55 37.82 38.10 38.46 38.66 38.97 39.50 40.12 40.70 41.49 42.20 42.80
31.19 30.44 30.48 30.09 29.39 30.00 30.14 29.95 30.36 30.27 30.31 29.16 28.35 31.07 31.75 32.65 31.41 31.30 30.38 30.80 31.51 33.09 34.65 34.95 35.67 36.24 36.79 37.22 37.48 37.62 37.46 37.55 37.89 38.09 38.56 39.17 40.04 40.95
31.12 31.03 30.55 30.08 29.56 29.93 30.23 30.59 30.84 30.25 30.02 29.35 29.05 29.64 29.98 30.94 30.34 28.21 27.90 30.22 29.72 31.27 32.95 33.52 34.63 34.86 35.36 35.70 35.47 35.08 35.16 35.59 36.34 36.81 37.06 37.36 37.77 38.97
31.11 30.92 31.15 31.76 33.17 33.21 31.80 30.92 30.42 29.90 30.09 29.42 28.57 28.22 27.52 27.37 26.18 28.08 26.91 28.22 29.57 30.45 30.23 30.62 31.51 31.74 32.09 33.38 33.08 33.45 33.69 34.37 35.23 35.91 36.55 37.08 37.16 37.74
29.93 30.55 30.80 31.05 30.98 33.25 33.24 33.57 32.74 30.29 30.21 29.01 27.57 26.18 25.97 26.51 27.77 27.11 26.99 25.69 23.41 30.41 28.78 27.93 31.16 30.05 31.17 31.88 32.67 33.35 34.11 34.77 35.39 35.84 36.24 36.89 37.23 37.58
30.18 29.93 29.61 30.31 31.40 30.22 31.63 33.19 33.48 34.78 33.09 30.18 26.71 25.92 25.87 27.70 28.33 27.87 26.80 26.20 24.89 28.04 27.49 24.91 29.40 27.88 30.66 30.68 32.31 32.83 33.58 34.21 34.76 35.28 35.77 36.27 36.86 37.19
30.24 29.89 29.28 29.40 30.21 30.71 31.06 31.65 31.09 30.04 29.63 29.36 28.90 29.09 30.15 31.06 29.28 28.40 27.76 27.35 27.85 28.44 28.42 22.72 27.63 26.67 29.14 29.75 31.92 32.71 33.33 33.87 34.35 34.89 35.36 35.80 36.11 36.47
30.05 30.11 29.99 29.78 31.81 33.34 31.44 29.60 28.10 28.02 30.16 31.21 32.31 32.41 31.33 31.20 30.24 28.04 26.11 23.40 21.90 23.89 27.32 25.01 25.91 26.13 26.95 27.97 30.39 32.04 32.77 33.58 34.27 35.00 35.62 35.93 36.13 36.55
30.15 30.25 31.07 31.04 32.51 33.53 30.10 28.32 25.65 25.52 27.26 29.38 26.94 26.91 27.55 27.35 29.39 27.24 25.99 22.15 21.98 20.76 26.62 23.67 24.65 25.48 22.77 28.27 29.93 30.53 30.53 32.24 33.06 33.86 34.73 35.37 35.90 34.25
28.58 28.71 29.68 31.58 32.89 32.16 31.37 27.43 25.84 29.36 28.60 24.99 24.57 25.03 25.67 26.30 26.30 26.31 25.93 24.33 21.76 21.45 26.01 25.86 24.92 24.67 24.15 24.32 27.40 29.79 30.50 30.96 31.29 31.90 33.46 34.36 35.13 35.30
28.21 29.32 29.51 31.87 30.80 30.04 28.73 28.77 30.30 29.27 24.54 23.17 23.18 23.62 24.05 24.11 24.94 25.26 25.47 25.39 25.81 24.18 26.00 25.79 23.92 24.10 23.64 23.42 23.79 29.64 30.90 31.83 32.29 31.94 32.42 33.23 34.80 36.14
30.00 30.30 30.97 29.72 28.44 26.41 26.73 28.35 27.38 23.56 22.62 21.88 22.79 23.08 23.64 24.25 24.14 24.21 25.11 25.13 25.19 26.22 27.09 27.07 26.29 26.33 26.38 25.03 25.38 27.48 28.47 31.21 32.77 32.08 32.49 32.41 31.60 31.42
29.90 28.70 27.68 26.42 25.78 25.21 23.96 24.09 23.64 23.42 23.09 22.78 22.32 23.00 23.69 23.19 22.82 23.98 22.16 23.04 22.78 23.93 27.85 29.03 29.84 29.83 28.19 28.83 28.25 27.59 29.81 28.58 32.59 33.50 33.28 33.06 33.43 32.88
28.44 25.13 22.28 21.50 20.82 21.12 21.60 22.13 22.61 22.70 22.14 22.20 21.87 21.43 21.53 21.95 21.61 23.11 22.68 22.64 20.54 21.67 23.23 27.32 30.86 31.10 30.72 29.83 27.69 30.06 30.83 31.58 32.68 32.51 32.30 31.86 33.46 31.72
24.28 20.34 19.59 19.88 19.32 19.36 19.43 20.04 21.09 21.84 21.56 21.67 21.11 20.90 20.43 20.29 20.77 22.70 22.45 21.19 20.45 21.85 23.15 26.72 28.64 28.22 29.54 31.91 33.72 31.18 31.66 31.32 31.98 32.69 33.24 32.45 31.26 31.48
20.15 19.27 18.71 18.83 18.82 19.48 19.82 20.07 19.83 21.06 21.32 20.91 20.70 20.25 20.90 21.53 20.35 20.15 20.71 21.18 21.15 22.68 25.12 27.82 27.85 27.62 25.04 24.85 31.23 33.59 30.28 31.34 31.40 31.95 32.86 33.00 32.28 31.75
19.54 18.70 18.51 18.91 19.18 19.31 19.76 20.01 20.37 20.48 20.41 20.09 20.89 21.48 20.29 20.18 19.89 19.94 20.61 20.24 21.66 24.79 25.09 27.35 28.28 28.07 26.73 26.28 26.57 30.44 32.92 31.51 31.00 31.04 31.35 33.48 35.02 36.39
18.66 18.41 18.91 19.17 19.34 19.92 20.09 20.03 19.72 19.39 20.86 20.71 19.61 20.15 20.57 20.70 19.70 20.47 21.20 23.70 25.17 24.41 23.72 25.99 28.52 31.62 29.89 30.53 29.11 29.76 32.18 33.92 33.80 32.10 32.19 31.08 30.71 32.10
18.58 18.36 19.00 19.39 19.41 19.56 19.49 19.47 19.09 19.14 19.39 19.72 20.00 20.64 21.05 21.36 20.74 21.22 22.36 22.94 23.78 25.04 25.97 28.48 29.59 29.56 28.43 27.70 26.84 28.30 30.30 32.37 34.26 35.09 35.23 34.68 30.61 28.58
18.22 18.70 18.86 18.90 19.05 19.35 19.30 18.96 18.56 18.82 19.47 19.74 20.15 20.77 21.46 21.34 22.80 23.29 23.94 24.78 25.45 26.55 26.94 26.97 27.90 28.38 27.16 26.61 27.63 28.06 29.00 30.25 31.56 31.76 33.43 35.97 35.95 36.16

GFSNE_sfc_wetblb_042.txt.gz
Wetbulb
37.67 37.49 36.92 37.17 37.24 36.98 36.36 35.25 32.22 28.56 30.07 34.45 34.67 37.75 37.41 37.41 37.41 36.96 36.60 38.01 39.02 39.38 39.94 40.18 40.22 40.53 41.02 41.48 41.95 42.51 42.81 43.02 43.67 44.18 44.47 44.92 45.75 46.63
37.16 36.72 36.49 36.74 36.44 36.51 36.01 35.39 34.44 31.72 28.90 33.60 34.23 35.70 36.53 36.09 37.03 36.60 36.60 37.42 37.94 38.77 39.08 39.03 39.09 39.21 39.63 40.17 40.65 41.05 41.43 41.90 42.59 43.57 44.33 44.61 45.03 45.47
36.75 35.96 35.28 35.76 35.20 35.25 35.17 34.48 33.32 32.75 29.92 32.41 34.19 35.37 34.57 34.81 35.48 36.72 36.46 35.78 36.96 37.34 37.74 37.75 37.87 38.10 38.69 39.20 39.60 40.14 40.61 41.30 42.03 42.73 43.15 43.66 44.05 44.28
35.46 35.11 34.57 34.73 33.93 34.15 33.84 32.93 32.68 33.28 31.51 29.75 32.07 33.15 33.50 34.79 34.85 33.96 35.06 35.11 34.87 35.84 36.88 37.14 37.65 37.87 38.02 38.30 38.57 39.19 39.34 39.67 40.16 40.86 41.54 42.01 42.45 43.02
35.39 34.57 34.13 33.58 32.64 33.24 33.03 32.71 33.08 32.85 32.88 31.47 31.09 33.64 34.64 34.51 33.87 34.25 33.11 33.60 34.29 35.39 36.51 36.62 36.96 37.34 37.60 37.94 38.11 38.36 38.21 38.31 38.44 38.65 39.19 39.82 40.53 41.30
35.40 34.74 34.06 33.07 32.58 32.62 32.71 32.81 32.67 31.87 32.07 31.52 31.74 32.28 33.11 33.95 33.61 31.53 30.07 32.53 32.29 33.49 35.13 35.34 36.12 36.28 36.75 37.02 36.91 36.48 36.51 36.81 37.35 37.70 37.81 37.91 38.27 39.19
34.94 34.43 34.07 33.73 33.53 33.90 32.66 32.17 31.78 31.11 31.02 31.20 30.67 31.39 30.81 30.64 29.36 30.71 29.75 31.18 31.94 32.58 32.95 33.10 34.00 34.09 34.52 35.56 35.16 35.36 35.54 36.05 36.48 36.94 37.29 37.75 37.78 38.15
33.02 33.50 33.72 33.52 33.28 33.98 34.24 34.08 33.03 31.08 31.11 31.93 30.17 28.76 28.33 29.18 30.19 29.62 28.56 28.66 25.40 32.68 31.02 30.06 33.43 32.01 33.35 34.51 34.96 35.31 35.64 36.02 36.13 36.27 36.69 37.01 37.36 38.05
32.95 32.63 32.40 32.89 33.08 32.16 32.85 33.87 34.28 34.76 34.51 32.04 28.84 28.15 27.86 29.25 29.89 29.47 29.10 27.77 27.29 30.58 30.15 27.68 31.64 30.70 33.49 33.69 34.39 34.84 35.34 35.60 35.94 36.30 36.57 36.85 37.00 37.47
33.05 32.76 32.19 32.09 32.38 32.06 31.58 32.50 32.91 32.54 32.02 31.76 30.39 30.25 31.06 31.97 31.45 29.84 29.10 28.42 29.57 30.80 30.68 25.28 30.35 29.24 32.25 33.51 34.22 34.63 35.13 35.45 35.69 36.09 36.59 36.85 37.06 37.26
32.86 33.06 32.68 31.79 32.87 33.68 32.10 31.50 30.10 30.52 32.52 32.45 32.78 33.76 33.88 32.81 31.66 29.45 27.63 25.91 24.33 26.44 29.85 27.60 28.61 28.63 29.45 30.07 32.94 34.52 35.16 35.85 35.64 36.05 36.55 36.69 37.15 37.69
32.49 32.77 33.04 32.43 33.29 33.56 31.67 29.63 28.15 28.19 28.83 30.22 31.01 30.55 30.64 30.38 31.36 29.46 28.36 25.17 24.49 23.38 28.46 26.58 26.86 26.50 24.21 30.36 32.85 32.85 33.75 34.72 35.64 36.23 36.78 36.96 36.95 35.22
30.62 30.57 31.74 32.84 33.11 32.96 32.01 29.03 27.78 29.65 30.00 28.75 27.86 28.17 28.79 29.02 29.36 29.34 28.55 27.12 24.47 23.96 28.08 27.37 25.90 25.57 24.89 25.95 29.44 32.05 33.17 33.97 34.80 34.95 36.34 36.72 36.73 36.57
29.50 30.71 31.58 32.36 31.87 31.10 29.95 29.68 30.37 30.33 27.53 26.11 25.69 25.88 26.76 27.36 28.21 28.37 27.90 27.68 27.64 25.97 27.69 26.99 24.58 25.21 24.89 24.81 25.10 31.28 32.54 33.88 34.39 34.71 35.66 36.51 37.26 37.66
30.89 31.63 32.09 31.00 29.93 28.21 28.34 28.86 28.34 26.71 25.52 24.24 24.32 25.78 27.02 27.66 27.25 27.00 28.09 28.48 27.67 28.17 28.67 28.42 27.75 27.64 27.26 25.53 26.54 29.29 30.45 32.54 34.32 34.38 34.26 33.95 33.75 34.46
31.20 31.10 29.84 28.80 27.86 27.53 26.77 27.01 26.78 26.28 25.13 24.66 24.80 25.81 26.75 26.54 25.82 27.10 25.26 24.89 25.02 26.27 29.34 30.15 30.13 29.62 28.29 30.13 29.64 28.51 31.33 29.59 33.66 33.92 33.85 33.44 34.63 34.78
29.85 27.50 25.98 25.09 24.39 24.63 24.97 25.37 25.79 25.70 24.54 24.62 24.41 24.16 24.15 24.90 24.98 26.32 25.49 25.58 23.20 23.39 24.85 28.99 30.68 31.43 32.16 30.91 28.93 31.16 31.96 32.48 33.56 32.86 32.37 32.28 33.80 34.78
25.87 23.88 23.30 23.42 22.79 22.77 22.60 22.81 23.76 24.55 24.26 24.25 23.71 23.72 23.38 23.35 23.85 25.51 25.80 24.38 22.90 23.89 24.55 27.65 29.19 29.16 31.08 32.54 35.38 32.78 32.58 32.13 32.87 33.23 33.22 31.56 32.23 34.87
23.01 22.65 22.08 22.26 22.05 22.25 22.59 22.89 23.23 23.96 24.30 23.99 23.71 23.39 23.81 24.32 23.33 23.49 24.34 24.73 24.63 25.56 25.96 29.09 28.69 28.35 26.49 24.87 31.49 35.86 32.02 31.90 32.19 32.20 32.49 32.07 31.39 33.67
22.69 21.90 21.54 21.93 21.86 21.89 22.66 23.10 23.51 23.60 23.49 23.27 23.54 24.05 23.27 23.31 23.16 23.39 24.24 23.65 24.58 26.04 26.63 28.75 29.41 29.57 26.87 26.13 26.81 30.20 33.16 32.50 31.80 31.03 31.61 33.16 34.44 36.65
21.80 21.53 22.02 21.87 21.98 22.64 23.10 23.25 22.92 22.52 23.34 23.21 22.79 23.26 23.75 23.90 23.51 23.80 24.28 25.75 26.57 26.59 25.91 26.67 29.62 33.15 31.80 31.77 29.79 30.68 33.36 34.62 34.19 32.25 32.36 31.42 30.41 32.28
21.43 21.28 21.79 22.14 22.43 22.77 22.91 22.82 22.59 22.52 22.40 22.83 23.21 23.69 24.32 24.68 24.11 24.43 25.34 25.74 26.44 26.62 27.30 29.86 31.14 31.79 30.87 29.49 28.19 29.09 31.36 33.24 34.75 35.49 36.06 35.17 30.95 27.98
21.25 21.43 21.80 22.28 22.68 22.71 22.71 22.49 22.06 22.12 22.49 22.90 23.25 23.71 24.44 24.39 25.78 26.48 27.45 27.93 27.62 28.28 28.53 28.01 30.20 31.33 30.00 30.20 29.29 29.87 30.44 30.81 31.48 32.38 34.49 36.62 36.60 36.56

GFSNE_sfc_wetblb_045.txt.gz
Wetbulb
38.46 38.65 37.76 38.04 38.17 37.66 36.92 35.62 32.34 27.91 29.25 33.72 34.05 37.60 37.30 37.35 37.98 37.06 36.30 38.69 40.31 40.79 41.06 40.87 40.89 41.13 41.53 41.92 42.09 42.42 42.83 43.24 43.56 44.27 44.83 45.30 45.68 46.57
38.06 37.11 37.07 37.35 37.08 36.98 36.34 35.74 34.63 31.57 27.76 32.89 33.74 35.08 36.26 36.65 37.15 36.41 36.41 38.50 39.27 39.89 39.91 39.97 39.66 39.77 40.16 40.46 40.82 41.29 41.83 42.37 43.06 43.93 44.60 45.15 45.40 45.78
37.40 36.76 36.16 36.49 35.75 35.54 35.37 34.62 33.35 32.69 28.93 31.33 33.90 35.27 34.23 33.95 35.23 35.78 36.59 35.54 35.47 38.88 39.10 39.03 39.11 39.41 39.77 40.12 40.28 40.68 41.16 41.70 42.24 43.08 43.50 44.00 44.56 44.72
36.13 35.93 35.28 35.66 34.78 34.67 34.06 33.24 32.87 33.00 31.12 28.66 31.87 32.09 32.69 34.26 34.18 34.32 34.99 36.16 34.18 36.79 38.36 38.66 38.85 39.06 39.20 39.41 39.52 39.86 40.04 40.30 40.79 41.39 41.88 42.61 43.00 43.68
36.11 35.40 34.82 34.39 33.21 33.38 33.18 32.47 32.79 33.50 32.64 30.59 29.54 32.36 32.43 33.58 33.29 34.13 33.15 33.32 34.43 36.18 37.32 37.75 38.07 38.42 38.64 38.85 38.97 39.11 39.05 39.10 39.30 39.55 39.92 40.30 41.08 41.82
36.43 35.84 34.95 34.00 32.88 32.49 32.08 31.93 32.42 31.28 31.31 29.80 29.31 29.68 31.08 33.33 32.20 29.90 29.42 31.13 30.76 33.44 34.97 36.02 36.74 37.23 37.80 38.07 37.75 37.45 37.44 37.85 38.49 38.86 39.01 38.97 38.97 39.73
35.62 35.28 34.96 35.35 34.98 34.55 32.74 31.90 31.59 30.33 29.61 29.13 28.70 29.81 29.34 28.50 27.82 29.10 27.98 28.97 29.50 31.49 30.29 30.75 31.95 31.78 32.44 35.35 35.23 35.95 36.58 37.56 37.94 38.29 38.63 38.76 38.73 39.19
33.68 33.79 34.13 34.63 34.29 35.12 35.27 35.23 33.85 30.52 29.63 30.11 29.01 27.87 27.79 28.05 28.46 27.77 26.84 26.02 25.40 30.83 29.34 27.97 30.40 29.60 31.24 31.85 35.63 36.66 36.93 37.09 37.44 37.83 38.18 38.41 38.57 38.71
33.13 32.90 32.63 33.50 33.78 32.60 33.65 34.53 34.15 34.89 34.77 31.29 28.66 27.94 27.17 28.07 27.89 26.72 27.91 27.08 25.38 28.08 28.01 25.63 29.67 28.14 30.60 32.08 35.12 36.26 36.83 37.05 37.37 37.62 37.75 38.11 38.40 38.86
33.35 33.00 32.29 32.19 32.80 32.54 31.81 30.99 31.45 32.21 31.99 31.69 30.39 29.61 29.53 30.56 30.81 31.06 28.34 27.17 27.66 28.46 29.45 24.09 27.75 26.35 29.41 30.99 34.43 35.21 36.03 36.67 37.20 37.62 38.22 38.30 38.36 38.79
33.12 33.15 32.85 32.27 33.84 34.55 31.64 29.82 30.15 29.51 32.86 33.59 33.23 33.60 34.53 34.69 32.98 29.34 25.93 25.17 23.24 24.68 27.65 25.24 25.95 26.44 26.97 27.28 29.90 34.63 35.77 36.70 36.52 37.29 37.87 38.22 38.42 38.94
31.82 32.13 33.93 32.89 34.37 34.36 31.25 29.28 26.77 27.24 27.80 28.45 29.57 30.38 30.97 30.03 32.49 29.78 27.93 25.05 23.52 21.97 26.03 24.56 24.55 25.16 22.03 26.74 28.36 28.81 30.17 34.12 35.99 36.66 37.66 37.99 38.18 35.87
29.81 29.95 31.22 33.53 33.72 33.96 33.31 28.92 27.52 29.41 29.16 28.03 27.17 27.19 27.44 27.72 28.63 29.24 28.75 26.76 23.93 22.58 26.28 25.83 24.06 23.30 23.06 22.66 25.42 27.55 28.69 30.04 31.89 32.88 36.59 37.60 38.04 38.00
29.13 30.05 30.72 32.90 33.17 32.39 30.69 30.61 31.00 30.74 26.95 25.83 25.01 24.70 25.08 26.01 27.20 27.64 27.19 27.15 27.18 25.64 27.13 26.97 23.75 23.39 22.49 21.73 21.65 26.40 28.45 29.87 31.99 32.45 33.30 36.33 38.69 38.47
30.64 31.59 32.60 32.16 31.36 29.29 29.43 30.12 29.77 26.23 25.33 24.07 24.02 24.68 25.74 26.30 26.43 26.40 27.31 27.72 27.55 27.07 26.96 26.39 26.28 25.97 25.55 23.72 23.39 25.10 27.50 30.22 31.93 32.25 33.64 33.95 33.56 34.20
31.04 29.91 30.10 29.88 29.47 28.43 27.21 27.05 26.35 25.87 25.40 24.64 24.05 24.78 25.68 25.00 24.45 25.55 24.73 24.93 24.17 24.06 26.73 27.41 28.25 28.22 26.39 26.51 26.81 26.64 28.99 27.91 31.96 33.48 33.28 33.29 33.89 34.66
29.61 27.08 25.52 24.93 24.20 24.39 24.62 24.90 25.19 25.14 24.30 24.62 24.49 23.75 23.28 23.51 23.49 24.44 24.39 24.52 23.13 22.52 23.58 25.90 27.97 29.31 29.42 29.00 27.30 28.28 29.35 31.00 32.74 32.47 31.94 31.36 33.01 34.39
25.85 23.31 22.92 23.12 22.60 22.58 22.36 22.55 23.41 24.35 24.15 24.38 23.19 22.90 22.50 22.09 22.41 23.86 24.36 23.20 22.53 23.20 23.95 25.54 26.60 27.33 27.97 29.69 33.43 29.94 29.68 30.52 31.69 31.98 32.13 30.59 30.95 33.75
22.74 22.42 21.93 22.12 21.99 22.31 22.51 22.55 22.18 23.45 24.32 23.71 23.05 22.21 22.28 22.86 22.75 21.99 22.68 22.87 22.93 23.59 24.51 26.46 26.80 26.37 24.22 22.65 28.34 34.19 29.21 29.15 30.19 31.29 31.50 31.28 30.97 32.88
22.70 21.93 21.45 21.83 21.89 22.05 22.39 22.25 22.45 22.81 22.75 22.57 22.43 22.92 22.47 22.16 21.86 21.68 22.35 22.75 23.07 24.03 25.34 26.79 27.02 26.80 25.48 25.19 26.05 29.01 33.04 30.92 31.25 30.67 30.24 32.19 33.92 36.12
21.92 21.61 21.98 21.88 22.20 22.47 22.55 22.61 22.51 21.98 23.16 23.18 21.83 22.10 22.68 22.97 21.90 22.33 23.23 26.13 26.68 25.50 24.39 25.21 27.60 32.90 30.43 30.95 27.35 27.44 30.49 33.87 34.06 31.75 31.58 31.17 30.67 31.19
21.72 21.44 21.84 22.26 22.32 22.60 22.55 22.42 21.87 21.80 21.75 21.90 21.99 22.55 23.24 23.46 22.97 23.31 23.81 24.29 24.88 25.90 26.85 28.71 29.10 28.80 29.29 27.70 26.78 28.06 29.27 31.62 33.99 35.21 35.84 35.33 31.39 28.06
21.62 21.59 21.68 22.03 22.50 22.66 22.58 21.64 21.40 21.30 21.46 21.87 22.18 22.64 23.29 22.92 24.01 24.42 25.41 26.39 26.78 28.08 27.11 26.98 27.03 28.12 28.31 28.44 29.04 28.72 29.02 29.18 30.41 30.59 32.50 36.61 36.82 37.06

GFSNE_sfc_wetblb_048.txt.gz
Wetbulb
32.52 32.43 32.47 33.05 33.04 32.34 31.84 30.61 27.24 24.50 25.75 26.93 27.77 32.23 31.94 32.48 34.29 35.03 34.07 38.18 40.39 41.12 41.64 41.66 41.56 41.85 42.24 42.48 42.63 42.89 43.02 43.23 43.63 44.47 45.12 45.55 46.03 46.70
33.28 31.97 31.81 32.25 31.71 31.42 30.87 30.74 29.60 26.78 24.63 28.33 29.66 29.11 31.18 34.19 35.29 34.78 34.24 38.32 39.07 40.21 40.66 40.40 40.71 40.75 41.10 41.45 41.82 42.12 42.52 42.80 43.39 44.24 44.91 45.49 45.76 45.97
32.32 32.18 32.06 31.91 30.73 30.19 29.92 29.55 28.38 27.45 25.73 28.38 30.12 31.20 29.02 30.16 32.37 32.77 33.87 33.30 34.21 38.91 39.53 39.64 39.72 40.10 40.47 40.83 41.01 41.30 41.59 42.06 42.66 43.37 43.92 44.71 45.05 45.10
31.82 31.50 31.28 34.05 29.67 29.56 28.53 27.84 27.54 27.58 27.17 25.87 28.82 29.23 28.55 30.16 30.95 30.85 33.07 35.42 33.82 36.46 38.53 38.82 39.00 39.21 39.45 39.85 40.03 40.29 40.53 40.80 41.04 41.48 42.03 42.69 43.28 43.63
31.84 31.09 30.74 30.26 28.43 28.19 27.73 27.07 27.51 30.53 28.45 27.19 26.89 29.23 29.24 30.13 30.17 31.86 31.54 31.05 32.61 35.56 36.74 37.26 37.67 38.32 38.88 38.70 39.14 39.39 39.26 39.33 39.61 39.86 40.21 40.76 41.33 42.16
32.64 31.80 30.86 30.09 28.88 27.54 28.34 27.43 29.06 27.29 27.88 27.18 26.81 27.19 28.36 30.57 30.13 27.70 27.00 28.16 28.25 31.55 33.28 34.82 36.70 36.63 37.08 37.28 37.21 37.04 37.22 37.77 38.51 39.18 39.36 39.58 39.82 40.67
30.67 31.45 31.25 32.93 35.95 34.55 31.78 27.76 27.73 27.38 26.82 27.12 27.37 27.57 28.01 27.23 26.40 27.64 25.60 26.48 27.26 28.50 28.88 29.12 29.38 29.76 30.13 33.49 33.98 35.37 36.23 37.85 38.55 39.03 39.44 39.80 39.94 40.27
28.69 29.56 30.02 33.36 32.33 35.57 35.63 35.61 33.96 29.54 27.81 26.63 27.45 27.36 26.98 26.48 26.90 25.57 24.83 23.65 23.36 29.87 25.89 26.56 28.42 27.36 28.77 29.91 34.43 35.97 36.66 37.28 38.09 38.59 39.11 39.51 39.80 40.20
28.22 28.33 29.13 32.12 32.15 29.16 32.70 34.60 33.60 34.63 34.41 30.51 27.35 26.36 25.64 26.64 24.96 24.47 26.04 27.14 26.44 27.20 26.40 24.47 27.59 26.21 28.47 30.01 33.65 35.08 36.23 36.57 37.30 37.95 38.41 38.87 39.33 39.71
28.25 28.12 27.40 27.47 28.74 31.25 29.64 26.68 27.65 28.61 29.99 30.66 28.66 28.16 28.06 29.05 30.14 30.65 28.75 26.44 26.65 27.13 27.06 22.92 26.22 24.90 27.05 28.23 33.14 33.95 35.06 35.94 36.95 37.70 38.06 38.31 38.61 39.19
28.63 28.25 29.34 28.15 32.74 34.90 30.74 26.50 27.86 28.07 31.72 33.16 33.07 33.54 34.03 34.09 32.79 28.79 25.14 23.82 22.71 24.15 26.47 24.14 23.85 24.25 24.99 25.43 27.40 32.79 34.23 35.06 35.01 36.04 37.01 37.75 38.40 39.21
26.79 28.22 32.73 31.56 34.09 34.36 30.48 29.11 25.71 25.19 25.77 26.27 27.56 27.94 28.85 26.89 31.37 26.98 25.96 23.82 22.94 21.29 24.05 22.37 22.73 23.54 20.32 24.16 24.47 26.83 27.25 31.52 33.55 34.64 36.00 36.75 37.33 35.89
25.93 26.35 27.02 32.91 33.78 34.33 34.04 27.30 26.29 29.04 28.97 25.89 24.50 24.64 25.10 25.19 25.83 26.33 27.43 26.10 23.07 21.48 25.29 25.51 23.27 22.69 22.41 20.93 23.33 25.72 26.36 27.00 27.87 29.68 33.51 36.01 37.18 37.08
26.04 26.08 27.05 32.95 33.18 32.70 30.91 31.23 31.72 31.12 24.42 23.58 23.25 22.96 23.29 23.94 24.88 25.56 25.94 25.57 25.92 25.22 26.44 26.64 24.05 23.11 21.77 20.55 20.17 25.01 26.41 27.24 28.03 29.58 31.02 34.37 36.59 37.71
27.86 30.16 32.32 32.01 31.19 28.71 29.43 30.56 29.74 23.44 22.93 22.16 22.42 22.95 23.37 24.10 24.61 24.24 24.57 24.64 24.27 25.13 26.65 25.73 24.86 24.39 24.03 22.43 22.03 23.65 25.16 27.32 29.45 29.39 31.32 32.46 33.40 33.99
29.41 26.54 29.07 28.97 28.90 27.60 25.75 24.84 23.67 23.42 23.58 22.83 22.30 23.41 24.17 23.29 22.19 22.89 22.76 22.77 22.29 22.29 25.14 25.23 25.18 26.24 24.60 24.99 25.38 24.76 26.32 25.83 29.54 31.05 32.44 33.10 33.60 33.80
28.92 24.42 22.39 21.30 21.34 21.91 22.26 22.50 22.82 22.85 22.42 22.61 22.40 22.50 22.25 21.88 21.73 22.33 22.05 22.48 21.51 20.63 21.70 24.52 27.37 28.23 27.64 26.42 24.79 25.93 26.80 28.18 30.17 30.10 31.02 30.39 31.73 32.44
24.01 20.24 19.69 20.41 20.26 20.58 20.60 20.83 21.67 22.65 22.08 22.57 22.21 21.77 21.34 21.07 20.70 21.98 22.97 21.14 20.24 20.91 21.80 23.86 25.02 25.41 25.78 27.72 31.63 27.73 27.85 27.30 28.82 30.31 30.39 29.20 30.29 32.03
19.94 18.83 19.38 19.77 19.78 20.10 20.04 20.05 19.99 21.21 21.93 21.52 21.15 20.80 20.79 21.03 22.05 20.57 21.05 21.04 20.69 21.25 22.07 23.93 25.42 24.77 22.34 21.07 27.20 33.48 28.69 28.78 29.33 29.50 30.75 30.59 30.18 31.47
19.64 19.10 18.94 19.56 19.67 19.59 19.98 20.37 20.76 20.99 20.99 20.65 20.85 21.82 21.37 20.65 20.07 20.18 20.78 20.79 21.39 22.78 24.04 24.40 25.04 26.12 25.05 24.72 25.03 28.13 32.59 30.13 30.00 29.26 29.76 31.74 33.04 35.69
19.35 19.27 19.84 19.70 19.77 20.57 20.97 20.95 20.93 20.84 22.19 22.48 21.10 21.40 21.56 21.51 20.45 20.91 21.29 24.80 25.57 23.79 22.89 23.73 26.75 32.51 29.39 28.85 26.34 26.47 29.75 33.63 33.28 31.37 31.24 30.29 30.20 31.55
19.70 19.48 19.90 20.30 20.59 20.71 20.68 20.73 20.61 20.69 20.63 21.03 21.23 21.71 22.09 22.16 21.28 21.47 22.00 21.99 22.97 24.70 25.13 27.26 29.30 28.90 27.05 26.35 25.17 26.14 27.99 30.34 33.10 34.37 34.88 34.11 31.15 28.79
19.38 19.87 20.02 20.57 20.88 20.80 20.89 20.57 19.97 20.19 20.92 21.19 21.15 21.80 22.48 22.07 22.86 22.81 22.81 24.08 25.10 25.72 27.58 26.82 27.58 27.86 25.97 26.36 28.16 27.82 27.74 27.88 29.14 29.61 30.78 35.68 36.17 36.39

GFSNE_sfc_wetblb_051.txt.gz
Wetbulb
32.87 32.13 32.03 32.28 32.22 31.38 30.78 29.67 26.56 22.61 24.38 25.28 26.35 29.19 30.09 30.57 33.16 33.65 32.39 37.54 39.77 40.68 41.02 41.47 41.87 41.96 42.23 42.84 43.02 43.25 43.61 44.09 44.42 45.17 45.66 45.84 46.46 47.21
33.01 31.31 31.05 31.55 30.99 30.51 29.79 29.50 28.34 25.69 22.93 25.72 27.19 27.24 29.10 32.58 33.73 33.91 33.10 37.25 37.93 39.35 40.16 40.31 40.44 40.68 41.30 41.47 41.93 42.33 42.82 43.15 43.74 44.60 45.29 45.57 45.99 46.34
32.14 31.58 31.54 31.12 29.87 29.00 28.73 28.31 27.20 25.80 23.92 26.35 27.17 28.32 27.08 27.83 30.42 31.05 31.90 31.75 32.85 38.14 39.06 39.28 39.60 40.06 40.17 40.53 40.79 41.22 41.66 42.35 42.71 43.60 44.24 44.75 44.99 45.22
31.60 31.48 31.43 33.42 29.68 29.01 27.77 26.77 25.87 25.96 24.58 24.59 27.01 27.72 27.29 28.40 29.18 28.84 31.37 33.52 33.06 35.83 37.61 38.20 38.27 38.58 38.93 39.25 39.87 40.23 39.93 40.54 41.04 41.53 42.08 42.54 43.14 43.74
31.76 31.50 30.94 30.13 28.46 27.75 26.73 25.95 26.43 29.18 26.61 25.92 26.06 28.35 27.74 29.05 28.77 29.90 30.39 30.68 31.76 34.85 36.00 36.27 37.05 37.43 38.25 38.82 38.54 38.67 38.54 38.62 39.11 39.40 39.86 40.53 41.32 42.17
31.96 31.09 30.20 29.12 27.73 26.86 26.99 26.57 27.61 25.66 25.53 25.70 26.12 25.98 27.72 29.57 28.93 27.23 26.82 28.67 27.76 30.47 32.38 33.76 35.68 36.44 36.57 36.66 36.57 36.28 36.29 36.95 37.96 38.77 39.34 39.86 40.35 41.39
30.34 30.22 30.21 31.65 35.60 34.01 31.03 27.14 26.23 25.58 25.00 24.21 25.41 25.78 27.29 26.75 25.66 26.67 25.54 26.24 26.91 28.00 27.45 28.74 28.94 29.12 29.45 32.61 33.02 34.27 35.22 37.02 37.85 38.45 39.04 39.91 40.36 40.80
27.72 28.58 28.43 32.35 31.72 35.35 35.35 35.43 33.87 28.57 23.84 23.45 26.55 26.10 25.52 25.34 25.95 25.64 24.79 23.45 22.72 29.31 27.28 26.97 28.21 27.01 27.91 28.58 33.18 34.94 35.80 36.22 36.98 37.73 38.10 38.89 39.42 40.06
26.95 27.29 27.59 30.68 30.57 27.58 31.63 34.69 33.76 34.77 34.41 29.89 26.44 25.72 25.18 25.76 25.27 23.58 25.70 26.80 26.08 27.45 26.43 24.87 27.19 25.53 27.68 29.13 32.97 33.91 34.95 35.70 36.25 36.88 37.47 38.44 38.99 39.78
27.08 26.70 25.91 26.17 27.33 30.60 28.49 27.10 28.18 27.76 28.16 29.63 28.26 27.36 27.45 29.02 30.03 29.71 27.65 25.76 25.87 26.47 26.52 22.41 25.83 24.54 26.49 26.94 31.95 33.09 34.04 34.80 35.63 36.35 36.77 36.94 37.51 38.28
27.43 27.33 28.30 27.22 32.00 34.46 30.03 25.89 26.36 27.33 31.56 32.91 33.27 33.64 33.77 33.44 31.88 28.11 23.62 22.62 20.96 22.84 25.74 23.74 23.34 23.02 23.99 24.45 26.39 31.60 32.91 33.73 33.90 34.60 35.35 36.13 36.55 37.61
26.20 26.54 31.68 30.80 33.44 34.40 30.91 28.32 24.91 24.34 25.18 25.55 26.43 26.52 27.69 26.14 30.61 26.23 24.03 21.68 21.30 20.94 23.62 22.20 22.35 22.92 20.04 21.60 22.73 25.45 25.25 30.24 32.36 33.48 34.29 35.01 35.73 33.57
25.04 25.40 25.96 32.19 33.63 34.11 33.47 26.62 26.04 29.27 27.95 22.83 23.43 23.71 24.38 24.52 25.34 25.64 25.57 24.64 22.38 21.25 25.00 25.33 23.33 22.65 22.51 21.12 23.25 24.70 25.13 25.56 26.52 28.13 31.96 33.50 34.68 35.37
25.25 25.12 25.83 32.32 32.49 31.99 29.89 30.92 31.57 30.05 23.49 22.72 22.38 22.21 22.75 23.24 23.94 24.50 25.13 24.84 24.84 24.03 25.12 25.03 22.57 22.25 21.57 20.12 19.38 23.18 24.65 25.89 26.41 26.38 27.61 31.35 34.22 35.78
26.88 29.59 31.96 31.01 29.58 27.00 28.76 29.79 28.95 22.63 22.07 20.96 21.35 21.83 22.39 23.22 23.78 23.45 23.48 23.14 22.56 23.58 25.36 24.68 23.81 23.13 22.67 20.85 20.30 21.74 23.57 25.17 27.08 26.83 26.81 29.69 30.55 32.00
28.89 25.62 27.72 26.92 27.09 26.38 24.76 24.16 22.88 22.50 22.42 22.25 21.47 22.49 23.10 22.95 22.00 22.24 21.05 21.34 20.72 21.04 24.83 24.42 23.94 23.61 22.36 23.12 23.60 22.90 24.85 23.60 26.43 27.99 29.51 30.49 31.21 32.04
27.53 22.34 20.80 20.70 20.56 21.14 21.51 21.82 22.10 22.11 21.48 21.45 21.19 21.55 21.67 21.66 21.30 21.97 20.74 20.73 20.17 19.92 20.00 22.70 24.28 24.54 24.67 24.45 23.06 23.81 24.10 24.98 27.34 28.39 28.26 28.07 30.26 31.09
21.56 19.41 18.84 19.43 19.33 19.57 19.60 19.80 20.60 21.66 20.89 21.20 20.63 20.40 20.05 19.84 19.84 21.06 22.39 20.94 19.25 19.66 20.37 21.39 21.94 22.25 23.40 26.16 29.68 25.67 26.51 26.71 27.67 28.42 29.53 27.94 28.32 31.25
19.27 18.38 18.28 18.73 18.77 19.10 19.04 18.97 18.99 20.33 20.81 20.56 20.15 20.20 20.15 20.11 21.47 19.80 19.69 20.05 19.63 20.06 20.39 21.78 23.86 23.28 20.38 19.58 26.66 33.03 27.60 27.68 28.17 27.86 28.89 29.13 28.99 30.26
18.73 18.04 18.12 18.71 18.87 18.63 18.86 19.21 19.68 19.87 19.82 20.11 20.92 21.94 21.77 20.82 19.84 19.61 19.75 19.65 19.78 21.07 22.67 23.29 23.21 24.03 23.28 23.53 24.77 27.28 31.28 28.38 28.65 27.91 28.82 30.83 32.28 34.93
18.49 18.57 19.14 18.98 18.91 19.36 19.56 19.61 19.49 19.50 21.62 21.57 20.01 20.79 21.51 21.42 20.09 20.31 20.57 24.05 24.72 22.03 20.60 22.31 24.94 31.28 29.89 29.03 24.74 24.67 27.99 32.19 32.22 30.27 30.47 29.31 28.63 29.68
18.70 18.61 19.15 19.57 19.63 19.50 19.43 19.40 19.10 19.11 19.13 19.47 20.34 21.31 21.95 22.11 21.22 21.20 21.68 21.43 21.43 21.79 22.84 24.78 27.40 27.49 27.24 25.54 23.43 23.71 26.39 29.20 32.12 33.57 34.32 33.81 30.02 27.47
18.57 19.41 19.87 20.20 20.29 19.93 19.87 19.42 19.17 19.07 19.56 20.66 21.28 21.85 22.48 22.27 23.42 23.36 23.08 22.86 22.88 23.34 25.27 25.27 26.33 27.28 26.40 26.26 26.72 26.26 26.19 26.95 28.15 29.68 31.24 35.36 35.88 35.96

GFSNE_sfc_wetblb_054.txt.gz
Wetbulb
34.53 33.76 31.82 31.47 31.43 30.90 30.65 29.69 27.08 22.97 23.49 26.37 26.72 28.52 29.59 29.59 31.87 33.10 30.93 36.44 38.91 39.71 40.29 40.72 41.16 41.67 42.20 42.69 43.02 43.43 44.26 43.91 44.60 45.29 45.93 46.16 46.68 47.32
34.10 32.60 31.07 30.70 30.26 29.83 29.38 28.94 27.89 25.62 22.53 25.45 26.19 27.03 28.68 31.73 32.83 32.77 31.56 36.20 36.76 38.32 39.22 39.52 39.95 40.29 40.83 41.44 41.85 42.24 42.29 43.15 43.79 44.72 45.58 45.70 46.15 46.54
33.35 32.95 31.19 30.85 30.42 28.83 28.46 27.95 26.75 25.32 22.87 24.90 25.65 27.05 26.30 27.19 29.13 29.69 30.87 30.36 31.23 36.91 38.30 38.90 39.06 39.56 39.75 39.94 40.40 40.80 41.32 41.98 43.22 43.52 43.97 44.68 45.24 45.40
31.30 30.36 30.90 33.02 29.34 28.24 27.10 26.66 25.64 25.27 24.06 23.54 25.09 25.39 25.55 27.30 27.21 27.31 30.24 32.06 31.43 35.21 37.33 37.97 38.22 38.20 38.54 38.97 39.27 39.92 40.09 40.22 40.57 41.18 41.93 42.30 42.83 43.46
32.44 30.64 30.61 29.08 27.87 27.40 26.33 25.56 25.34 27.96 25.28 24.57 25.16 26.04 26.20 26.42 27.76 28.20 28.16 29.54 31.09 34.39 35.83 36.13 36.79 37.16 37.71 38.46 38.77 38.49 38.30 38.40 38.77 39.06 39.55 40.16 40.90 41.93
31.46 30.17 29.42 29.05 28.07 26.98 26.99 26.20 26.99 25.55 25.24 24.85 25.30 24.74 24.67 27.38 26.84 25.80 25.85 27.62 27.16 29.99 32.19 33.53 35.47 36.10 36.83 37.11 36.73 36.28 36.13 36.61 37.52 38.19 38.67 39.29 39.85 41.10
29.41 29.07 29.44 31.54 35.17 33.89 30.72 27.45 26.64 25.87 25.29 23.21 24.20 21.93 23.11 25.69 24.86 25.98 24.74 25.64 26.48 27.67 27.32 27.34 28.24 28.17 29.66 32.71 32.98 33.93 34.48 36.02 37.09 38.04 38.49 38.83 39.21 40.33
27.29 27.45 27.70 30.86 30.51 34.63 35.11 35.26 33.81 28.09 22.24 20.00 20.17 24.31 25.12 25.13 25.97 24.93 24.31 23.05 22.64 28.25 25.47 26.37 27.91 26.80 27.83 28.27 32.66 34.39 35.50 36.06 36.40 36.93 37.51 38.23 38.62 39.41
25.56 25.66 26.88 29.66 29.72 27.06 31.27 34.18 33.34 34.85 34.44 30.37 26.33 25.56 25.00 25.80 25.69 23.75 24.94 25.81 25.27 26.67 25.82 23.32 26.22 24.85 27.23 28.65 32.87 33.78 34.66 35.26 35.60 36.05 36.82 37.38 38.17 39.04
26.00 25.92 25.10 26.35 27.44 30.06 28.28 26.77 27.17 27.82 27.94 28.39 27.36 27.47 27.48 28.21 29.59 28.94 26.37 25.11 25.29 25.73 25.66 20.98 24.66 23.75 26.11 26.68 31.74 32.97 33.78 34.49 35.05 35.75 36.34 36.41 36.38 37.11
26.61 26.70 27.71 27.15 31.46 33.93 29.43 25.88 26.77 26.86 31.38 33.23 33.44 33.88 33.97 33.64 32.01 27.21 23.08 22.32 20.31 21.95 24.81 22.38 22.65 22.55 23.99 24.40 26.25 31.50 32.74 33.57 33.97 34.41 34.98 35.40 35.79 36.41
26.00 26.44 30.62 29.98 32.86 33.99 30.45 26.74 23.82 23.98 24.85 25.19 24.77 25.19 27.09 25.46 30.32 25.93 23.20 20.92 20.24 19.65 22.39 20.83 21.85 22.56 20.27 21.52 23.72 23.97 25.49 30.07 31.87 32.79 33.75 34.44 34.89 32.47
24.85 25.24 26.02 31.67 33.35 33.58 32.74 25.45 25.39 28.38 25.57 22.25 22.65 22.87 23.64 23.79 24.74 25.07 25.02 23.29 21.59 20.55 24.55 24.98 22.10 21.73 21.58 20.39 22.45 24.25 24.80 25.20 25.22 26.57 30.78 32.47 33.49 33.50
25.17 25.42 25.76 32.04 31.68 30.97 28.69 30.04 31.11 29.44 22.68 21.88 21.62 21.40 21.88 22.34 23.07 23.79 24.87 24.70 24.55 23.52 24.34 24.10 21.30 20.28 20.16 19.08 18.82 22.65 23.65 24.65 25.12 24.90 25.84 29.77 32.73 34.43
26.77 29.40 31.00 30.12 28.55 26.13 27.87 29.06 28.40 21.83 21.41 20.21 20.44 21.23 21.72 22.29 23.05 23.77 24.17 23.26 21.45 22.61 24.24 23.59 22.81 22.18 21.66 19.75 19.15 21.06 22.35 23.82 25.40 25.06 25.53 25.09 26.17 28.83
28.31 23.35 26.25 26.02 26.06 25.65 24.10 23.51 22.53 21.97 21.89 21.45 20.58 21.72 23.04 22.85 22.23 22.50 21.23 21.39 20.62 20.02 23.57 23.60 21.67 21.18 20.56 21.37 21.77 21.13 22.98 22.29 24.82 25.57 25.83 26.55 28.82 30.53
24.84 21.26 20.08 20.04 19.68 20.31 20.78 21.15 21.39 21.39 20.76 20.68 20.65 21.02 21.07 21.02 20.42 21.01 20.24 19.72 18.65 18.91 19.42 21.70 23.19 22.89 22.77 22.37 20.85 21.99 22.37 22.80 24.59 25.84 26.85 26.78 28.45 30.03
21.17 18.49 17.97 18.41 18.46 18.82 18.94 19.18 19.86 20.80 20.02 20.54 20.29 19.74 19.37 19.25 19.30 20.58 21.58 20.15 18.21 18.55 19.12 20.48 20.87 21.12 22.03 24.45 27.71 22.63 23.55 24.77 26.90 27.58 28.46 27.12 27.39 29.96
18.42 17.49 17.31 17.97 18.11 18.51 18.48 18.37 17.90 19.27 19.50 19.54 19.00 19.12 19.79 20.28 21.67 19.60 19.27 19.51 18.94 19.29 19.60 20.48 21.49 22.34 19.53 17.86 24.90 31.40 26.83 27.92 27.88 27.38 27.94 27.43 26.92 28.58
17.74 17.10 17.36 18.15 18.49 18.42 18.61 18.36 18.62 18.90 19.22 18.77 19.52 20.91 20.52 19.52 19.16 19.46 19.84 19.38 19.32 20.28 22.10 22.87 22.20 22.25 21.44 21.69 23.49 27.30 31.63 28.06 27.01 26.17 26.43 28.36 30.45 33.68
17.44 17.66 18.36 18.33 18.85 19.32 19.16 18.68 18.42 18.31 20.91 20.26 18.42 19.59 20.09 20.60 19.87 20.50 20.71 24.17 24.97 22.23 20.43 21.77 24.65 30.20 28.26 28.06 24.43 24.93 27.93 31.62 31.09 28.54 29.03 28.39 27.29 28.01
17.76 17.81 18.51 19.12 19.50 19.14 18.97 18.74 18.37 18.19 17.94 18.58 19.55 20.50 21.90 22.44 21.29 21.40 22.01 22.21 22.32 22.85 23.27 24.44 26.37 27.78 26.84 25.73 23.90 24.39 25.86 28.74 31.93 33.11 33.46 33.04 29.79 27.00
17.40 18.39 18.80 18.83 19.02 19.36 19.39 18.82 18.59 18.36 18.44 19.86 20.54 21.98 22.99 23.21 23.79 24.14 24.31 24.52 25.00 25.02 25.86 26.14 26.80 27.77 27.09 26.50 26.87 26.25 26.48 27.69 28.92 29.38 30.97 35.37 36.07 35.98

GFSNE_sfc_wetblb_057.txt.gz
Wetbulb
35.12 34.11 34.32 33.18 33.62 32.64 30.50 29.19 26.88 22.63 22.84 25.42 26.16 27.74 28.41 29.03 31.28 31.67 29.79 35.66 38.60 39.09 39.69 40.23 40.54 41.08 41.69 42.30 42.80 43.24 43.90 43.72 44.54 44.81 45.47 45.85 46.81 47.51
34.70 33.76 33.07 32.24 31.19 32.19 31.67 29.62 27.77 25.67 22.74 25.14 25.38 25.67 27.39 30.68 31.46 31.79 30.30 35.96 36.37 37.74 38.54 38.83 39.38 40.07 40.64 41.11 41.72 41.84 42.06 42.78 43.62 44.43 45.12 45.86 46.29 46.57
33.87 33.52 33.20 33.08 32.34 29.36 29.43 27.68 26.65 25.69 23.47 24.72 25.01 26.00 25.56 26.54 28.56 28.57 29.86 29.05 30.09 36.18 37.66 38.30 38.77 39.42 39.84 40.00 40.29 40.69 41.13 41.79 42.76 43.71 44.26 45.00 45.19 45.46
33.44 32.62 32.25 33.36 31.05 29.91 29.06 26.93 25.88 25.28 24.09 23.12 23.51 24.53 25.00 26.48 26.71 26.21 29.46 31.39 30.19 34.26 36.91 37.66 38.07 38.25 38.60 38.97 39.22 39.73 40.03 40.59 41.12 41.20 41.84 42.23 43.06 43.44
33.41 32.84 32.14 31.10 29.98 29.02 27.91 26.25 25.77 27.45 24.61 23.33 24.24 24.83 25.27 25.72 25.33 26.90 27.20 27.62 29.97 33.89 35.40 35.68 36.41 37.17 37.66 38.31 38.75 38.93 38.79 38.79 38.96 39.08 39.62 40.19 41.06 41.84
32.87 31.94 31.26 30.34 29.16 28.02 27.53 26.50 26.84 24.58 24.38 24.47 25.08 23.99 24.36 25.83 24.87 25.31 25.04 26.60 26.53 29.30 31.73 33.25 35.11 35.98 36.58 36.92 36.85 36.57 36.49 36.83 37.53 38.11 38.41 38.75 39.30 40.15
30.69 30.09 29.76 31.37 34.34 33.51 30.70 26.54 25.74 25.19 25.16 23.69 23.50 22.22 20.15 24.13 24.72 25.94 24.62 25.50 25.64 26.98 26.80 26.13 26.93 27.77 28.90 32.37 32.84 33.98 34.47 35.73 37.00 37.89 38.31 39.02 39.09 39.71
27.37 26.84 27.08 30.05 30.32 34.01 34.44 35.00 33.55 27.39 21.66 20.58 17.82 22.07 25.10 24.63 25.85 24.93 24.45 23.13 22.73 26.63 24.28 25.90 27.51 26.29 27.07 27.38 32.24 34.26 35.43 36.20 36.69 36.97 37.31 37.70 38.02 38.59
26.15 25.46 26.58 29.00 29.09 26.85 30.97 33.78 33.30 34.86 34.41 29.83 26.17 25.58 24.88 25.83 25.78 24.22 25.12 24.37 24.92 26.51 25.58 23.11 25.71 24.27 26.40 27.73 32.58 33.83 34.86 35.35 35.80 36.25 36.41 36.81 37.44 38.17
26.19 24.89 24.50 25.60 27.03 29.51 28.12 26.65 27.10 27.53 27.99 28.24 26.61 27.09 27.14 28.08 29.09 28.92 27.11 24.91 25.14 25.56 25.16 20.10 23.79 23.18 25.58 26.17 31.86 33.27 34.21 34.78 35.26 35.69 36.14 36.40 36.64 36.87
25.80 25.77 26.95 26.23 30.71 33.36 28.91 26.79 27.57 27.03 30.87 32.91 33.07 33.55 33.70 33.52 31.94 27.00 22.71 21.97 20.42 21.73 24.26 21.95 21.43 22.24 23.99 24.48 26.34 31.72 33.10 33.87 34.40 34.79 35.13 35.22 35.47 35.89
26.31 26.17 30.17 29.43 32.77 33.96 30.80 26.24 23.00 23.25 24.27 24.31 24.36 24.78 26.53 24.86 30.03 25.50 22.65 19.29 20.77 19.85 22.25 18.86 21.74 21.85 18.83 21.73 22.05 24.51 25.80 30.09 31.87 32.83 33.61 34.23 34.50 31.75
25.33 25.29 26.12 31.81 33.06 32.88 32.10 23.72 24.73 27.77 25.55 21.59 21.93 22.21 23.03 23.23 24.17 24.49 24.57 21.62 21.06 20.46 24.58 24.82 21.50 21.69 21.42 19.95 21.46 23.39 24.29 24.67 24.84 26.28 30.25 31.60 32.59 32.53
25.38 25.55 26.06 31.58 31.03 30.26 28.21 29.55 30.81 29.35 22.05 21.27 21.06 20.86 21.31 21.89 22.60 23.10 24.23 24.62 24.94 23.67 24.29 24.47 21.00 19.41 19.21 18.13 17.86 22.04 23.11 24.00 24.37 24.19 24.90 28.37 31.56 33.30
26.86 28.58 29.42 28.84 28.13 25.34 27.52 29.21 28.24 21.25 20.92 19.72 19.92 20.71 21.36 21.71 22.09 22.14 23.06 23.69 23.00 23.41 24.61 23.31 22.04 21.83 21.16 19.03 18.35 19.80 21.49 22.94 24.21 23.66 23.93 24.08 24.41 25.63
26.71 21.81 25.37 25.33 25.41 25.16 23.57 23.02 21.97 21.47 21.50 21.19 20.02 20.94 21.72 21.12 20.93 21.22 20.22 20.61 20.16 19.69 22.81 22.68 21.10 20.92 19.83 20.58 20.54 19.89 21.92 20.86 23.24 24.50 24.63 25.05 26.05 27.64
24.32 20.48 19.36 19.23 18.95 19.69 20.23 20.65 20.81 20.78 20.15 20.06 20.00 20.36 20.50 20.47 19.98 20.39 19.58 19.23 17.95 18.14 19.23 21.23 22.31 22.43 22.03 21.46 19.80 21.00 21.35 21.74 23.13 23.53 23.95 24.52 26.64 27.62
20.55 17.73 17.26 17.74 17.95 18.40 18.53 18.73 19.25 20.14 19.17 19.46 19.28 19.11 18.66 18.64 18.92 20.55 21.85 19.86 18.30 18.57 18.78 20.32 20.84 20.80 21.16 23.13 26.59 21.32 22.32 22.81 24.35 25.73 27.16 26.09 26.49 28.62
17.64 16.40 16.54 17.35 17.73 18.19 18.14 17.90 17.19 18.40 17.76 18.06 17.59 17.97 18.40 19.10 21.39 18.88 18.98 19.44 19.22 19.48 19.96 21.19 20.60 20.84 19.45 17.89 24.67 30.69 25.55 26.62 27.36 27.39 27.71 27.74 26.64 27.57
16.78 16.15 16.56 17.56 18.00 18.15 18.08 17.68 17.58 17.67 17.45 17.48 18.45 20.03 19.60 19.36 19.45 19.06 19.70 19.81 20.10 21.54 23.06 24.47 23.86 23.27 21.33 21.14 22.90 26.39 30.93 27.72 27.20 26.33 26.26 27.68 29.25 32.37
16.45 16.74 17.60 17.75 17.98 18.55 18.67 17.85 17.00 17.13 20.15 19.94 17.65 18.10 20.21 21.38 20.83 21.25 21.39 24.97 25.57 23.55 22.18 23.13 26.01 31.48 28.64 27.48 24.26 24.94 28.45 31.98 31.46 28.80 28.28 27.46 26.46 27.13
16.83 16.96 17.69 18.32 18.46 18.09 17.67 17.36 17.18 17.32 17.07 17.91 18.53 20.08 21.77 22.98 21.91 22.22 23.12 23.15 23.62 24.09 24.44 26.67 28.71 28.66 27.48 26.15 24.64 25.26 26.75 29.45 32.21 33.64 34.20 33.12 29.66 26.26
16.38 17.21 17.76 18.08 17.94 17.52 17.43 16.98 17.23 17.54 18.13 18.87 19.38 21.51 23.02 23.32 24.44 24.30 24.18 24.72 26.45 26.39 26.76 25.73 26.61 27.72 27.20 26.62 27.05 26.29 26.49 27.92 29.08 29.93 31.20 35.33 35.81 35.74

GFSNE_sfc_wetblb_060.txt.gz
Wetbulb
36.02 35.64 35.14 34.64 34.69 33.96 33.39 32.22 30.33 23.93 23.68 26.82 29.13 29.89 28.60 28.35 30.88 31.36 29.97 35.26 38.45 39.17 39.62 40.03 40.34 40.83 41.41 42.09 42.79 43.25 43.64 44.10 44.00 44.82 45.50 46.04 46.20 47.21
35.59 34.82 34.12 33.84 33.04 32.99 32.26 32.19 30.03 28.53 23.27 25.75 26.74 27.57 27.98 30.38 31.04 32.01 30.00 36.06 36.75 37.96 38.57 38.74 39.20 39.88 40.53 41.14 41.75 42.12 42.48 42.80 43.47 44.10 45.13 45.53 45.94 46.53
35.02 34.47 33.89 34.13 33.82 32.64 31.94 30.88 30.23 28.91 24.42 25.49 25.89 26.11 25.97 27.37 29.02 28.17 28.98 27.76 28.95 35.92 37.63 38.11 38.65 39.35 39.96 40.29 40.64 41.06 41.54 41.93 42.37 43.33 44.10 44.82 45.22 45.41
33.99 33.47 32.68 34.21 32.14 31.72 31.12 30.15 29.61 26.86 25.55 23.60 24.67 24.63 24.77 26.41 26.23 25.52 28.97 31.08 30.00 33.90 36.59 37.66 38.03 38.25 38.71 39.14 39.36 39.79 40.07 40.67 41.24 41.50 41.96 42.53 43.04 43.67
33.96 33.67 32.94 32.31 31.48 30.99 30.06 29.40 27.86 28.50 25.15 23.87 23.39 24.32 24.64 25.14 24.89 25.54 25.90 27.45 29.25 33.46 35.34 35.59 36.35 37.12 37.75 38.38 38.96 38.92 38.73 38.90 39.14 39.48 39.90 40.29 41.04 41.90
33.30 32.73 31.81 31.08 30.41 29.59 28.77 27.87 27.49 25.25 24.80 24.12 24.22 22.90 24.11 25.45 23.80 24.54 25.00 25.96 26.50 29.17 31.69 33.01 34.90 35.76 36.48 37.01 36.97 36.56 36.42 36.87 37.75 38.37 38.66 38.78 39.09 39.95
31.55 31.27 30.77 31.61 33.98 32.88 31.49 28.68 26.88 26.02 24.97 21.43 23.35 22.83 20.46 22.87 24.56 26.01 24.71 25.37 25.79 26.48 26.64 26.42 26.72 27.04 28.47 32.38 32.74 33.89 34.36 35.76 37.04 38.01 38.58 38.87 39.10 39.66
28.62 28.23 28.56 30.27 31.30 32.55 33.47 34.40 33.10 27.56 22.17 19.93 18.53 21.20 23.90 24.08 24.23 24.82 24.43 23.66 23.24 26.95 24.06 25.93 27.48 26.40 27.36 27.50 32.07 34.10 35.39 36.42 36.95 37.45 37.68 37.75 38.02 38.37
27.71 27.63 28.20 29.27 29.10 27.27 30.61 33.26 32.80 34.50 34.07 29.45 25.50 24.83 24.38 25.34 25.46 23.98 25.42 25.10 24.87 27.06 25.56 23.17 26.06 24.49 26.56 27.54 32.45 33.92 35.12 35.74 36.34 36.79 37.11 37.14 37.40 37.76
26.81 25.75 24.80 26.01 27.15 29.32 28.12 27.55 27.81 27.52 27.96 28.22 26.23 26.33 26.12 27.23 27.92 28.43 26.94 24.94 25.03 25.53 24.90 20.31 24.25 23.30 25.47 25.95 31.49 33.32 34.38 35.16 35.60 36.08 36.33 36.47 36.64 36.99
27.04 26.23 27.20 26.46 30.67 33.39 29.27 27.36 27.10 26.20 29.93 32.19 32.63 33.32 33.44 33.19 31.65 26.74 22.51 21.97 20.30 21.60 24.16 21.99 21.44 21.49 23.88 24.53 26.38 31.75 33.36 34.17 34.73 34.95 35.21 35.34 35.64 35.80
26.65 26.25 29.98 29.67 32.95 33.64 30.44 25.18 21.83 22.38 23.41 24.02 24.25 24.49 25.88 24.36 29.76 25.16 21.61 18.21 20.30 19.58 21.94 20.65 19.25 22.30 17.80 21.77 21.86 24.39 25.98 30.32 31.88 32.78 33.62 34.12 34.34 31.70
25.65 25.92 26.43 31.71 32.59 32.36 31.66 23.44 24.06 27.17 25.54 21.05 21.36 21.70 22.53 22.70 23.73 24.05 24.13 19.19 20.41 19.92 23.73 24.57 18.40 21.29 20.86 19.45 21.16 23.24 23.71 24.16 24.32 25.90 29.93 31.29 32.02 32.03
25.66 25.81 25.95 30.84 30.06 29.82 27.80 29.44 31.09 28.78 21.57 20.79 20.58 20.42 20.90 21.45 22.07 22.73 23.30 22.93 23.28 23.11 24.15 24.39 21.14 18.49 19.08 17.82 17.38 21.63 22.57 23.45 23.91 23.76 24.43 27.85 30.75 32.32
27.01 28.19 29.01 28.20 27.58 24.83 27.36 28.79 27.62 20.68 20.38 19.30 19.67 20.34 20.59 20.94 21.38 20.97 21.50 21.29 20.33 21.72 23.56 22.40 22.03 21.43 20.45 18.21 17.66 19.35 20.72 22.65 24.05 23.07 23.11 23.12 23.43 24.73
25.89 21.55 24.77 24.93 25.11 24.82 23.12 22.50 21.51 21.11 21.45 20.60 19.20 20.23 20.87 18.43 20.05 20.34 19.00 19.33 18.96 19.29 21.76 20.82 20.14 20.77 19.43 20.06 19.99 18.95 21.02 19.91 22.47 23.45 23.86 24.37 24.98 25.63
23.65 19.79 18.57 18.58 18.39 19.20 19.82 20.13 20.19 20.23 19.60 19.36 18.78 19.41 19.32 19.57 19.27 19.88 18.78 18.78 18.02 18.12 19.30 21.57 23.11 23.38 22.99 22.12 19.69 20.59 21.05 21.13 22.60 22.75 23.16 23.31 25.32 26.12
19.62 16.97 16.46 16.96 17.44 17.99 18.19 18.36 18.78 19.56 18.50 18.52 18.03 17.73 17.41 17.40 18.04 19.85 21.14 19.15 17.78 18.40 18.92 20.76 21.47 21.30 22.28 24.32 26.55 20.80 21.54 21.75 23.35 24.76 25.87 24.43 25.05 28.17
16.87 15.33 15.58 16.67 17.11 17.58 17.57 17.16 16.41 17.78 16.48 15.90 15.89 16.34 17.21 19.04 21.91 18.86 19.21 19.71 19.42 20.38 21.50 23.05 23.55 22.93 20.22 18.59 25.26 31.09 25.62 25.70 26.16 26.72 27.53 27.08 26.32 27.61
15.92 15.23 15.77 16.88 17.25 17.11 17.12 16.57 16.84 16.96 16.47 16.42 16.48 18.69 19.52 19.52 19.78 20.01 20.84 20.30 20.67 22.81 23.98 24.91 24.64 24.96 23.35 23.12 24.66 27.31 30.91 27.39 26.73 25.89 26.22 27.92 29.85 32.82
15.58 15.96 16.88 16.94 17.08 17.44 17.72 17.05 16.31 15.94 19.46 19.30 16.98 17.67 20.06 20.68 20.90 21.90 22.16 25.43 26.35 24.45 23.12 23.74 26.55 32.12 29.82 28.66 24.84 25.54 29.00 32.31 31.86 29.44 29.06 28.15 27.18 27.94
16.05 16.14 16.83 17.23 17.61 17.10 16.91 16.58 15.88 15.80 15.35 16.00 17.79 19.90 21.09 22.02 22.37 23.32 24.38 24.31 23.97 24.22 24.93 27.45 28.85 28.16 26.83 25.98 24.66 25.19 26.64 29.29 32.15 33.63 34.56 33.56 30.16 27.09
15.52 16.25 16.58 16.95 17.29 16.95 16.53 16.19 16.46 17.81 17.34 18.03 19.17 21.04 21.96 22.49 24.86 25.51 25.33 25.15 25.87 26.79 27.08 26.52 27.53 27.76 26.64 26.30 26.81 26.04 25.63 27.16 28.47 29.73 30.96 35.26 35.76 35.87

GFSNE_sfc_wetblb_063.txt.gz
Wetbulb
38.96 37.43 36.53 36.75 36.44 36.79 35.43 35.13 34.23 29.81 29.59 31.85 31.92 33.54 35.26 35.99 36.35 37.26 37.09 37.07 38.80 39.68 40.23 40.54 40.64 41.03 41.54 42.20 42.83 43.53 43.95 44.36 44.87 45.45 45.98 45.94 46.96 47.64
36.78 36.06 35.20 35.55 34.26 35.53 34.93 34.43 34.75 32.68 30.04 30.73 31.71 32.44 33.31 34.40 35.43 36.52 36.22 36.53 37.49 38.43 39.17 39.16 39.45 39.85 40.45 41.15 41.88 42.48 42.98 43.43 44.09 44.88 45.76 45.88 46.66 46.97
35.80 34.86 34.47 35.25 35.02 33.61 33.67 32.94 32.20 31.30 28.65 30.13 32.65 33.46 32.54 33.68 34.60 35.49 35.33 35.10 35.59 36.70 38.05 38.45 38.63 39.31 40.00 40.43 40.84 41.41 41.73 42.30 42.96 43.78 44.46 45.04 45.62 46.05
35.16 34.60 33.96 35.13 33.72 33.47 33.20 32.13 31.76 31.25 29.98 28.45 31.54 31.55 31.59 32.85 33.44 32.90 33.17 34.33 34.74 35.43 36.92 37.60 38.08 38.33 38.76 39.13 39.58 40.07 40.46 40.88 41.63 41.83 42.22 43.01 43.43 44.28
34.92 34.29 34.00 34.37 33.17 32.63 31.55 30.90 30.78 31.20 30.65 28.40 28.84 31.01 31.64 31.98 32.14 32.65 32.32 33.14 33.24 34.34 35.62 35.96 36.56 37.10 37.72 38.30 38.79 39.13 39.12 39.38 39.53 39.79 40.24 40.82 41.49 42.32
34.38 33.83 32.64 32.11 31.74 31.49 31.24 30.63 31.18 30.13 30.26 29.71 30.15 30.19 30.48 32.14 31.34 29.73 29.96 32.09 31.24 32.55 33.95 34.23 35.36 35.82 36.47 36.98 36.94 36.76 36.81 37.17 37.98 38.59 38.96 39.16 39.45 40.32
33.06 32.88 32.56 32.61 33.85 34.23 33.48 32.55 31.82 31.15 30.80 30.52 29.73 29.89 29.66 30.06 29.20 30.42 28.57 29.67 30.82 32.27 31.67 32.26 32.39 32.55 33.12 34.28 34.10 34.58 34.88 35.92 37.13 38.11 38.77 39.29 39.39 40.04
30.00 29.74 30.62 32.92 32.82 32.63 33.03 33.89 34.30 32.05 31.12 30.15 29.69 28.54 28.96 29.39 29.76 28.84 28.58 27.63 25.10 32.95 30.34 29.88 32.19 30.98 31.98 32.60 33.82 34.67 35.70 36.46 37.01 37.55 37.99 38.46 38.75 38.97
29.76 30.21 30.43 30.63 30.27 29.87 31.34 32.82 33.08 33.87 33.86 32.50 29.83 29.33 28.54 29.55 29.81 28.10 29.02 28.43 26.91 30.63 30.11 27.52 30.61 29.24 31.51 31.55 33.31 34.08 34.99 35.68 36.26 36.90 37.40 37.65 37.92 38.31
29.42 29.34 28.77 29.43 29.77 31.66 31.57 31.47 31.28 31.76 31.44 31.20 31.11 30.61 31.00 31.57 31.51 30.81 29.87 28.83 29.11 29.92 30.07 23.90 29.25 28.26 30.52 30.98 32.67 33.43 34.28 35.26 35.80 36.27 36.63 37.00 37.12 37.28
29.16 29.30 30.33 29.64 31.14 33.54 32.07 30.63 29.65 29.08 30.50 31.51 32.50 32.91 32.86 32.66 32.01 29.99 27.38 25.71 23.15 25.68 28.60 25.53 26.82 27.63 28.24 29.06 30.52 32.33 33.29 34.02 34.89 35.21 35.43 35.58 35.85 36.17
29.37 29.17 30.57 31.14 32.68 33.40 31.02 28.15 25.79 26.77 28.03 28.88 28.67 28.53 28.72 28.22 29.61 28.37 27.10 23.75 23.16 22.48 28.59 24.86 25.80 25.38 23.45 28.94 29.72 30.16 30.05 31.52 32.40 33.05 33.72 34.22 34.49 32.61
28.19 28.22 28.91 31.35 31.64 31.04 30.82 27.25 27.35 30.91 27.59 26.39 26.22 26.72 27.00 27.27 27.64 27.88 27.51 25.52 22.69 22.74 27.32 26.48 25.46 24.80 23.49 23.41 26.50 28.31 28.86 28.97 29.05 29.64 30.98 31.66 32.11 31.98
27.33 28.27 28.70 29.91 29.15 28.94 28.22 29.76 30.75 28.74 25.66 24.79 24.45 24.75 25.08 25.74 26.50 26.60 26.33 26.30 26.62 25.04 26.82 26.50 23.01 23.44 22.73 22.09 21.66 26.79 28.57 29.33 29.04 28.23 28.76 30.11 31.34 32.37
28.70 28.79 28.20 27.51 27.21 25.91 27.58 28.05 26.90 24.69 23.79 23.28 23.41 24.18 24.83 25.39 25.26 25.25 26.13 26.34 25.34 25.20 25.87 25.31 24.50 24.29 23.84 21.84 21.69 23.14 24.24 26.83 28.51 27.78 28.18 28.48 28.59 29.16
26.48 25.06 25.55 25.46 25.17 25.30 24.49 24.48 24.30 24.23 24.32 23.72 22.81 23.51 24.24 24.48 24.14 25.26 23.80 24.40 23.15 24.75 28.67 27.30 25.43 24.56 22.72 23.86 23.75 22.63 25.25 23.30 27.92 28.57 28.69 28.78 29.53 29.96
25.63 22.93 22.16 21.84 21.97 22.40 22.79 22.97 23.24 23.23 22.88 22.49 21.90 21.83 22.37 22.98 23.17 24.70 23.82 23.20 21.94 22.95 24.05 26.91 28.43 27.49 26.57 24.96 22.78 24.86 25.35 26.00 27.95 28.02 27.61 26.45 28.47 30.10
21.98 20.01 20.00 20.53 20.49 20.66 20.82 21.17 21.79 22.02 21.92 21.42 21.05 20.79 20.74 21.15 21.95 24.66 26.60 23.93 22.09 23.26 23.95 25.90 26.66 26.21 27.20 28.44 28.68 24.73 26.52 26.97 28.85 29.42 29.10 26.55 27.32 31.23
19.78 19.35 19.27 19.83 20.09 20.41 20.56 20.64 20.31 21.17 20.56 20.01 19.84 20.05 20.60 21.12 23.58 23.92 24.06 24.09 24.37 25.04 25.77 27.23 27.71 27.07 23.70 22.48 29.37 33.37 29.16 30.05 30.19 29.40 30.19 29.43 28.18 30.07
19.16 18.87 19.28 19.78 20.06 20.17 20.28 20.17 20.21 20.37 20.19 19.97 20.43 21.43 22.05 21.65 22.43 23.65 24.87 24.77 25.28 26.62 27.26 28.59 28.24 28.33 26.65 26.20 26.80 28.94 31.56 30.11 29.91 29.50 30.15 32.19 32.77 34.09
18.60 18.95 19.61 19.85 19.93 20.21 20.22 19.85 19.36 19.03 20.78 22.09 19.97 19.80 21.26 22.90 23.28 24.63 25.55 27.13 27.48 27.42 25.99 26.74 29.13 32.45 31.51 31.03 27.27 27.69 30.80 32.85 32.73 30.84 31.10 30.29 29.76 30.95
18.59 18.80 19.51 20.00 19.96 19.82 19.60 19.27 19.12 19.45 19.75 19.75 20.11 21.38 22.86 23.99 23.82 24.64 25.57 25.97 26.48 27.16 27.20 28.98 31.05 31.08 30.39 28.63 26.49 26.93 28.67 31.25 32.82 33.40 33.86 32.86 30.62 28.58
18.50 18.87 19.44 19.56 19.67 19.44 19.28 18.89 18.82 19.67 20.97 22.05 21.70 22.67 23.56 23.72 25.31 26.06 26.41 26.98 29.11 29.11 29.02 28.31 29.68 30.56 29.73 28.96 27.86 27.38 27.01 28.14 30.11 30.41 31.85 35.52 35.79 35.56

GFSNE_sfc_wetblb_066.txt.gz
Wetbulb
45.45 41.71 39.64 38.08 39.22 37.69 38.19 39.35 38.59 32.47 32.15 33.08 33.25 35.21 35.54 35.99 36.50 37.04 37.58 39.26 39.71 40.27 40.97 41.22 41.38 41.56 41.78 42.34 42.84 43.42 44.03 44.41 44.99 45.86 46.60 46.75 47.54 48.21
40.07 38.55 37.42 36.33 36.84 36.45 36.88 37.07 36.92 34.13 33.72 32.81 32.69 33.42 33.81 34.85 36.21 36.79 38.06 38.32 38.70 39.43 39.92 40.02 40.09 40.38 40.68 41.00 41.67 42.38 43.04 43.46 44.45 45.18 46.08 46.71 47.35 47.58
39.46 37.02 35.15 36.56 35.73 35.26 35.31 34.97 33.80 34.21 32.48 33.39 32.87 33.39 32.84 33.93 36.87 37.51 37.13 37.13 37.99 38.64 39.17 39.29 39.10 39.38 40.00 40.53 40.89 41.36 41.90 42.51 43.28 44.07 44.71 45.52 46.20 46.51
36.17 35.22 35.01 36.56 35.38 35.17 35.05 33.28 33.25 32.62 31.91 30.56 31.95 31.98 33.06 34.38 34.47 34.68 35.90 36.74 36.44 37.40 38.16 38.07 38.70 39.06 39.32 39.60 39.65 40.13 40.54 40.96 41.62 41.98 42.96 43.51 44.13 44.57
36.49 35.97 35.17 35.34 34.33 33.93 33.24 32.90 32.60 32.80 31.56 30.98 30.58 33.25 33.09 34.05 34.33 35.51 35.38 35.53 36.19 36.70 37.17 37.23 37.83 38.11 38.40 38.83 39.12 39.40 39.34 39.44 39.92 40.20 40.60 41.16 41.85 42.57
36.00 35.76 35.17 34.58 33.55 32.99 33.43 32.59 32.54 32.37 33.66 32.79 32.82 32.85 33.49 34.52 34.38 32.70 32.64 34.11 33.41 35.01 36.19 36.74 36.82 36.92 37.19 37.57 37.72 37.50 37.54 37.80 38.39 38.90 39.21 39.33 39.51 40.36
33.70 33.63 33.36 34.29 34.83 34.11 33.88 34.29 33.63 32.63 32.45 32.11 31.79 32.62 32.62 32.58 31.66 32.55 30.72 32.24 33.60 34.70 34.65 35.23 35.46 35.56 36.06 36.98 36.60 36.50 36.59 37.07 37.67 38.35 38.84 39.35 39.51 39.96
30.65 31.05 32.93 34.50 34.67 34.00 33.57 34.17 34.61 32.87 32.46 32.40 31.84 30.75 31.86 32.50 32.50 31.17 30.70 28.93 26.91 34.78 33.34 32.57 35.07 33.75 35.16 35.74 36.58 36.48 36.78 37.08 37.34 37.63 38.13 38.59 38.65 39.01
30.48 31.19 31.67 32.78 31.67 31.63 32.09 33.00 33.52 33.80 34.09 33.70 31.47 31.48 30.90 31.76 31.51 30.35 29.52 29.23 28.32 32.81 32.47 29.74 33.54 31.98 34.65 34.95 36.19 36.20 36.27 36.31 36.57 36.98 37.42 37.80 38.13 38.45
32.06 31.46 31.59 31.44 31.07 32.31 32.98 33.50 33.51 33.77 33.58 32.93 32.47 32.32 32.86 33.51 32.58 32.65 31.56 31.26 32.17 33.10 33.46 28.25 32.23 31.02 33.35 34.37 35.77 35.70 35.81 35.96 36.01 36.36 36.79 37.07 37.21 37.40
30.63 31.35 31.51 31.33 31.51 33.77 33.52 32.33 31.88 31.60 32.42 31.77 32.61 33.42 33.72 33.47 33.00 31.48 29.70 29.06 26.77 28.68 32.05 29.59 30.68 30.49 31.82 31.98 33.48 34.59 34.44 34.63 35.17 35.65 35.99 35.98 36.12 36.43
31.62 31.40 30.51 32.04 32.65 32.92 32.01 30.71 28.31 28.89 30.67 31.36 31.82 31.90 32.06 31.94 31.17 31.07 30.42 26.44 25.44 25.26 32.12 27.42 28.41 28.07 25.71 30.72 32.15 32.96 32.61 34.08 34.27 34.65 34.81 34.84 34.82 33.16
30.13 30.20 30.78 31.03 31.05 30.59 30.53 29.96 28.64 31.91 31.17 30.28 30.16 30.79 31.19 31.47 31.60 31.88 31.22 28.77 25.44 24.88 29.93 29.24 27.80 27.01 26.23 25.54 29.06 31.39 32.17 32.19 32.70 33.34 33.98 34.07 33.84 33.30
28.97 30.11 30.50 29.50 28.97 28.75 29.26 29.97 30.79 30.15 29.36 28.62 28.40 28.94 29.24 29.93 30.84 30.56 29.65 29.26 29.25 28.09 29.74 29.36 25.17 25.17 24.40 23.92 23.80 29.35 31.84 32.36 32.18 31.16 32.02 33.36 33.78 33.98
29.95 29.21 27.96 27.46 27.58 27.96 28.11 28.15 28.14 28.49 27.74 27.36 27.76 28.43 29.15 29.35 28.73 29.10 31.21 31.23 30.24 29.99 29.90 28.82 27.00 25.47 24.71 23.97 24.14 25.86 26.95 29.59 31.09 30.66 31.16 31.35 31.08 31.13
28.34 28.61 26.47 26.24 25.92 26.66 27.29 27.89 27.97 27.78 27.37 27.27 27.05 27.82 28.44 28.16 27.93 29.30 27.81 28.10 26.28 27.69 32.93 31.61 30.22 28.19 24.90 25.94 25.93 25.23 27.91 25.51 29.81 30.56 31.03 31.12 31.38 31.29
27.87 26.57 26.42 26.54 26.57 26.80 26.97 27.12 27.30 27.17 26.68 26.86 26.08 26.19 26.47 27.00 27.20 29.55 28.04 27.86 25.95 24.95 26.06 30.33 32.16 31.52 29.93 28.20 25.20 26.75 27.38 28.57 30.39 30.46 30.13 28.89 30.50 31.24
25.29 24.23 24.86 25.34 25.04 24.98 25.07 25.54 26.33 25.86 26.35 25.84 25.42 25.28 24.83 25.10 26.43 28.14 29.37 27.16 25.59 26.14 26.25 28.84 29.46 28.46 29.77 31.27 31.87 28.18 29.25 29.21 31.15 31.82 31.77 29.56 29.67 33.07
23.87 24.21 23.91 24.36 24.39 24.75 25.10 25.27 25.07 25.80 25.01 24.00 24.15 24.16 24.47 25.44 26.60 26.81 27.60 27.56 26.92 27.79 28.91 29.96 29.80 28.49 25.45 24.30 30.73 34.85 31.02 31.57 31.24 30.51 30.98 30.56 30.29 32.41
23.29 23.37 23.77 24.27 24.44 24.52 24.77 24.56 24.51 24.79 24.62 24.28 24.01 24.57 25.35 25.52 25.24 26.17 27.27 25.89 26.01 27.69 28.57 30.41 30.14 29.59 28.20 26.83 27.34 30.66 32.93 30.98 30.70 30.07 29.89 32.34 33.86 35.27
23.07 23.37 24.07 24.27 24.63 24.66 24.30 24.04 23.63 23.17 23.90 24.50 24.22 23.95 24.79 25.61 25.46 26.54 26.93 27.76 28.09 27.62 27.28 28.25 30.58 33.47 32.06 32.09 28.98 29.34 32.31 33.71 33.30 31.17 31.12 30.01 29.68 31.07
22.76 23.09 24.02 24.53 24.68 24.38 24.01 23.66 23.26 23.78 24.57 24.73 25.32 25.86 26.22 26.38 26.00 26.47 26.90 27.43 27.24 27.56 28.58 31.07 31.97 31.84 31.12 29.69 28.26 28.98 29.39 32.25 33.95 34.05 34.08 33.18 29.94 27.71
22.72 23.36 24.03 24.73 25.01 24.63 24.07 23.76 23.57 23.86 24.24 24.77 25.31 26.12 26.30 25.59 26.92 26.34 27.57 27.62 27.84 28.71 30.31 29.30 30.46 31.54 30.98 30.73 29.86 29.38 28.97 29.16 30.73 30.58 31.87 35.21 35.45 35.30

GFSNE_sfc_wetblb_069.txt.gz
Wetbulb
54.32 48.01 42.91 41.94 41.02 40.24 39.93 41.02 39.90 36.72 34.91 34.34 33.89 35.58 36.01 36.49 36.73 37.24 36.92 38.58 40.70 41.85 41.98 42.37 42.41 42.44 42.73 42.95 43.48 43.74 44.01 44.31 44.83 45.69 46.36 47.02 47.46 48.19
44.79 42.77 40.54 40.75 38.83 39.04 38.78 38.00 38.00 36.39 34.19 34.31 33.67 34.48 35.45 36.18 36.63 37.20 36.71 38.60 39.98 40.76 41.36 41.33 41.18 41.48 41.63 41.71 42.01 42.49 42.99 43.49 44.26 45.10 45.95 46.53 46.83 47.37
40.24 38.68 37.61 38.46 37.68 36.97 36.98 36.30 36.15 36.03 34.64 33.30 34.42 34.84 34.05 34.04 34.49 35.94 37.28 36.56 36.71 39.78 40.37 40.42 40.49 40.55 40.60 40.99 41.48 41.84 42.18 42.72 43.30 44.01 44.61 45.01 45.67 45.94
37.10 37.42 36.82 37.28 36.81 36.50 35.85 34.83 34.50 33.79 34.08 32.24 32.41 32.29 32.19 33.83 34.57 34.12 35.04 36.54 36.17 38.14 39.51 39.51 39.62 39.91 40.12 40.34 40.47 40.65 40.84 41.30 41.71 42.25 42.82 43.36 43.92 44.42
36.90 36.87 37.09 36.33 35.80 34.39 34.20 33.88 33.27 33.60 32.57 31.97 31.50 33.64 33.65 34.16 33.50 34.53 34.54 35.12 36.27 38.24 38.54 38.53 39.18 39.38 39.54 39.61 39.83 40.09 40.07 40.23 40.32 40.44 40.71 41.27 41.96 42.68
37.25 37.25 37.12 36.15 34.68 33.54 33.37 32.99 32.88 32.06 32.27 31.97 32.22 33.13 33.52 34.18 33.87 31.98 31.81 33.32 32.36 35.06 36.81 37.69 38.73 38.80 39.13 39.32 39.33 38.99 38.79 38.92 39.15 39.36 39.46 39.58 39.80 40.47
34.64 35.31 34.69 35.98 36.58 35.60 34.17 33.69 33.59 32.78 32.59 32.66 31.61 32.09 32.46 31.80 30.64 31.91 30.22 30.96 31.98 33.01 32.58 33.56 33.81 34.13 34.84 37.29 37.28 37.88 38.15 38.42 38.65 39.07 39.42 39.56 39.46 40.00
31.57 33.94 34.43 35.51 36.07 36.06 34.90 34.58 34.32 32.66 32.89 32.41 32.33 30.07 30.50 31.46 31.21 29.97 29.23 27.83 26.24 32.55 30.72 30.63 33.58 31.96 33.21 33.98 37.25 37.92 38.16 38.25 38.29 38.39 38.50 38.66 38.65 38.85
31.49 31.72 32.10 32.74 32.37 31.62 32.37 32.83 33.26 33.78 34.00 32.63 30.27 30.23 29.46 30.40 29.83 28.31 29.18 29.10 27.81 30.71 31.44 28.56 32.01 30.76 32.90 34.32 37.05 37.46 37.70 37.94 37.96 37.93 37.98 37.99 38.23 38.57
31.66 31.54 31.32 30.93 31.14 31.92 32.41 32.56 32.95 33.03 33.38 33.12 31.43 30.93 31.11 31.97 31.78 31.00 30.33 29.77 30.29 31.41 31.88 26.60 30.56 29.62 31.92 32.74 36.57 36.92 36.93 37.17 37.07 37.04 37.19 37.33 37.45 37.83
30.83 31.44 31.55 31.46 32.23 33.72 32.83 32.01 31.05 30.70 33.33 32.83 32.58 33.58 34.31 34.75 34.08 30.62 27.79 27.65 26.42 27.10 29.85 27.58 28.41 28.51 29.23 29.20 31.03 35.50 36.13 36.54 36.66 36.83 36.94 36.83 36.91 37.03
31.36 31.24 31.34 31.89 32.86 32.90 30.71 29.69 27.47 27.49 28.99 30.70 30.48 31.29 32.46 31.50 33.58 30.20 28.84 26.38 25.99 25.08 29.16 25.94 26.78 26.68 25.32 27.71 28.86 29.90 30.06 34.45 35.54 36.05 36.10 36.34 36.41 33.38
29.26 29.18 29.85 31.14 31.03 30.82 30.79 28.53 27.57 30.41 30.87 29.04 28.44 28.67 29.27 29.65 29.94 30.34 30.20 29.91 26.50 25.25 28.87 28.89 24.80 25.40 25.07 24.76 26.64 28.24 28.46 29.00 30.03 31.45 34.34 34.84 35.00 34.47
28.17 29.04 29.77 30.08 29.44 29.37 29.04 30.23 31.26 31.02 28.21 27.20 27.05 27.40 28.02 28.85 30.17 30.12 29.45 29.05 29.25 27.85 28.59 28.38 25.36 24.27 23.14 22.03 21.68 25.43 27.10 28.30 28.73 28.77 29.64 32.51 34.27 34.57
29.32 29.17 28.89 28.41 28.42 28.65 28.75 29.21 29.34 27.33 26.69 26.22 26.92 27.43 28.44 29.19 28.79 28.49 30.01 30.36 30.17 30.45 30.50 28.89 27.94 26.73 25.40 22.91 22.34 23.62 25.23 26.76 28.06 27.61 28.21 30.06 30.11 30.76
29.11 28.95 27.09 27.01 27.84 27.59 27.56 27.82 27.28 26.75 26.16 25.66 26.06 27.00 27.79 27.90 27.30 28.33 27.46 27.59 26.58 27.16 30.38 29.90 30.45 29.33 26.45 25.94 25.43 24.51 26.37 24.52 27.35 28.15 29.33 30.37 30.80 30.65
27.67 26.00 25.37 25.55 25.74 26.20 26.36 26.54 26.53 26.39 25.74 26.53 26.00 25.35 25.56 26.12 26.08 27.82 27.35 27.29 26.25 25.29 25.94 28.85 30.64 30.68 30.34 28.76 26.09 26.97 27.28 27.76 29.20 29.34 29.69 28.95 30.04 31.29
24.83 23.71 23.92 24.87 24.84 24.84 24.87 25.17 26.01 26.51 26.20 25.96 24.26 24.39 24.15 24.04 24.29 26.27 27.62 26.64 25.58 25.97 26.51 27.97 28.64 28.76 29.19 30.00 32.19 27.64 28.81 29.22 30.13 31.17 31.57 29.66 29.57 31.53
23.33 23.76 23.58 24.36 24.44 24.69 24.78 25.29 24.56 25.57 25.88 24.52 24.47 24.11 23.95 23.82 24.17 25.29 26.10 26.45 25.84 25.90 26.52 28.16 28.29 27.46 24.99 23.10 28.96 35.01 29.18 29.27 29.54 29.60 29.94 29.62 28.97 30.56
23.18 23.11 23.62 24.27 24.34 24.70 24.97 24.18 24.59 24.68 24.30 24.04 23.87 24.38 24.70 24.33 23.93 24.56 25.38 25.67 25.78 26.37 26.80 28.26 27.08 27.17 26.40 25.38 26.63 29.51 33.23 29.84 29.26 28.96 29.59 31.19 31.96 34.47
23.05 23.18 23.97 24.03 24.91 24.74 24.94 24.66 24.34 23.94 24.28 24.63 24.60 24.38 24.61 23.91 23.63 24.56 25.10 27.45 27.87 26.49 25.38 26.07 27.49 33.08 31.05 31.06 27.70 27.60 30.47 33.91 33.33 30.83 30.52 29.43 28.64 29.14
22.77 22.69 23.52 24.19 25.02 24.97 24.14 24.16 23.80 23.42 23.39 24.23 25.07 25.34 25.04 25.76 25.20 25.11 25.29 24.88 25.22 25.80 26.36 28.18 29.55 30.69 29.02 27.98 26.98 27.70 28.89 30.93 33.36 34.44 34.55 33.67 29.71 26.22
22.49 22.75 23.35 24.03 25.31 24.83 24.50 24.50 24.37 24.26 24.18 24.40 24.51 24.44 24.90 24.65 25.35 25.52 25.40 25.42 25.66 26.10 27.21 27.48 29.54 29.40 28.36 28.83 29.46 27.46 27.81 28.43 29.72 29.31 30.40 34.53 34.95 35.07

GFSNE_sfc_wetblb_072.txt.gz
Wetbulb
55.31 51.53 44.55 42.93 42.89 42.53 42.56 43.60 43.03 36.75 34.72 35.60 34.93 36.96 37.03 37.59 38.05 37.76 37.80 38.71 41.13 43.02 43.54 43.21 43.17 43.12 43.42 43.52 43.88 44.23 44.25 44.36 44.73 45.58 46.28 46.85 47.45 48.06
45.67 43.62 42.83 41.69 40.75 41.33 41.22 41.07 41.77 39.73 35.72 34.87 34.33 35.10 36.32 37.35 37.23 37.82 37.60 39.70 40.42 41.18 41.83 41.83 42.14 42.16 42.29 42.53 42.55 42.80 43.25 43.73 44.36 45.22 45.89 46.30 46.62 47.02
41.06 40.20 39.15 39.26 39.05 39.21 39.25 39.31 38.42 37.49 35.89 33.14 34.39 34.75 34.78 35.32 35.97 35.78 36.36 36.14 36.10 39.34 40.36 40.78 41.00 41.17 41.20 41.40 41.79 42.21 42.60 42.94 43.43 43.96 44.62 44.95 45.35 45.67
38.49 37.91 37.43 38.43 37.44 37.66 37.32 37.20 34.99 34.80 35.39 32.47 32.62 32.40 32.75 34.06 34.23 34.02 34.91 36.12 33.90 37.84 39.52 40.32 40.42 40.27 40.47 40.72 40.93 41.20 41.44 41.74 42.10 42.32 42.82 43.23 43.70 44.02
37.46 36.91 36.95 36.63 35.30 35.01 34.68 33.80 33.66 33.90 33.32 32.80 31.82 33.32 33.22 33.65 31.59 32.11 31.99 32.19 34.88 37.63 38.06 38.40 39.07 39.77 40.24 40.51 40.59 40.72 40.67 40.70 40.81 40.67 40.77 41.15 41.90 42.48
36.47 36.48 36.35 35.69 34.76 34.26 34.16 33.47 33.25 32.20 32.23 31.47 31.09 31.49 31.43 31.86 30.66 29.73 28.91 29.66 28.22 33.09 35.01 36.39 37.93 38.73 38.97 39.30 39.34 39.06 39.00 39.26 39.75 39.98 40.01 40.06 40.28 40.64
34.66 35.30 35.67 36.59 37.21 35.88 33.82 33.24 33.00 31.97 31.44 31.50 31.04 30.92 29.94 29.33 28.07 28.76 27.06 27.33 28.51 29.74 28.93 29.65 29.71 31.33 32.34 35.93 36.15 37.34 37.98 38.98 39.40 39.76 40.03 39.86 39.79 40.09
32.16 32.60 33.41 33.91 35.50 37.01 35.76 35.64 34.74 32.07 31.71 28.61 28.19 28.14 27.96 27.76 27.47 26.24 25.76 23.87 22.21 28.00 26.68 28.66 29.30 28.65 30.21 30.16 36.26 38.02 38.54 38.72 39.01 39.28 39.47 39.59 39.49 39.51
31.77 31.99 32.40 32.80 32.28 31.52 32.51 33.16 33.38 33.91 33.74 30.89 27.97 27.23 25.86 26.85 25.49 22.78 24.86 21.86 23.73 28.38 26.83 26.64 27.87 27.37 30.38 32.59 36.27 37.34 37.99 38.29 38.47 38.64 38.77 38.77 38.91 38.88
31.67 31.85 31.20 30.24 30.66 32.11 31.62 30.00 30.43 30.67 31.57 31.72 28.14 27.26 27.44 28.67 28.65 25.92 25.15 26.02 26.69 27.26 27.45 23.30 25.97 26.78 29.15 28.88 35.08 35.93 36.58 37.33 37.69 37.92 38.20 38.29 38.08 38.19
29.77 30.18 30.14 29.54 33.08 34.38 30.74 29.75 28.47 27.43 32.36 32.97 32.46 33.41 34.28 34.78 33.80 25.79 21.10 20.12 22.91 24.64 26.53 24.48 24.52 24.81 27.39 27.52 28.39 34.34 35.39 35.81 35.92 36.57 37.18 37.49 37.58 37.56
27.45 28.84 32.39 31.06 32.91 32.63 27.81 25.31 23.76 23.71 25.33 27.49 27.28 28.21 29.71 28.27 33.44 27.62 23.37 15.31 25.39 24.06 25.13 22.22 22.43 22.76 22.26 24.46 25.58 27.68 27.20 32.15 33.89 34.36 35.22 35.95 36.25 33.49
25.29 25.45 26.26 31.22 30.85 30.65 30.37 24.53 24.86 27.12 27.95 25.05 23.91 24.21 25.47 25.93 27.02 27.45 27.34 25.96 25.84 25.76 29.12 28.73 25.55 25.75 24.82 24.17 24.55 24.68 26.29 26.37 27.21 28.63 32.12 33.67 34.53 34.60
24.24 24.96 25.98 30.24 29.59 29.54 27.78 30.55 31.21 30.39 24.78 23.73 23.81 23.09 23.55 23.94 27.98 29.44 29.10 29.06 29.21 27.82 29.15 28.87 25.52 24.95 23.54 22.52 22.34 24.78 25.65 26.89 26.38 26.33 27.45 30.82 33.34 34.39
26.13 28.04 29.30 28.78 29.06 27.41 29.54 30.06 29.57 23.62 23.49 22.01 21.88 21.05 21.29 21.57 24.40 28.28 29.54 29.99 29.68 29.98 30.49 29.93 28.23 27.40 26.59 24.19 23.60 24.80 25.77 26.58 27.58 26.50 23.04 26.42 27.18 28.63
27.83 24.94 26.81 27.70 28.69 27.52 26.94 25.87 24.67 23.67 22.61 20.59 19.94 21.08 23.10 26.84 26.34 27.58 26.48 27.12 26.50 26.86 30.16 30.55 29.58 28.74 26.74 27.09 26.93 25.38 26.59 25.37 27.87 29.24 29.59 29.24 29.24 29.57
26.20 22.18 21.21 21.89 22.25 23.10 23.36 23.67 23.57 23.63 22.08 21.11 23.90 24.91 24.99 25.42 25.22 26.25 24.90 25.02 24.89 25.11 25.95 28.59 30.47 30.53 29.91 28.52 26.45 27.70 27.81 27.97 29.41 29.59 29.86 29.15 30.60 31.29
22.54 19.95 19.35 20.35 21.10 22.44 22.57 22.87 23.34 25.69 25.25 25.31 24.15 23.56 23.34 23.22 23.22 24.35 25.25 24.72 24.03 24.83 25.93 27.11 27.50 27.35 27.04 28.45 31.97 27.73 28.27 28.75 29.28 29.43 29.24 28.40 28.73 31.14
19.90 18.87 19.50 20.42 20.82 21.09 20.31 22.63 23.86 24.79 25.15 24.46 24.16 23.84 23.64 23.45 23.80 23.28 23.31 23.48 23.52 25.21 26.24 27.55 27.40 26.47 23.26 21.27 26.95 33.81 27.76 28.25 28.38 29.00 29.48 28.73 28.28 29.36
19.24 18.57 18.55 20.18 20.23 19.86 24.09 23.99 23.93 24.00 23.86 23.67 23.27 22.30 22.19 21.42 19.65 19.54 20.15 22.42 23.21 24.63 25.92 26.15 26.65 26.28 24.37 23.49 25.14 28.67 32.90 29.36 28.92 28.60 28.93 30.68 31.72 34.66
18.78 18.82 20.03 19.37 18.63 24.07 24.13 24.02 23.83 23.46 23.88 23.76 22.49 23.13 23.75 21.95 21.13 21.04 22.37 26.09 26.41 24.90 23.60 24.28 25.75 31.62 29.36 29.02 26.34 26.73 29.22 33.24 33.04 30.90 30.43 29.63 28.55 28.82
19.14 18.51 19.26 18.65 17.25 23.54 24.15 23.91 23.35 23.35 23.06 23.07 23.19 22.96 23.03 22.77 22.17 22.57 23.07 22.47 23.43 24.24 24.52 26.22 27.69 27.77 28.09 27.87 25.85 26.00 27.73 30.63 32.80 33.82 34.35 33.62 29.74 26.27
18.08 18.68 17.68 16.60 13.71 22.35 24.10 23.77 23.42 23.39 23.45 22.84 22.02 22.26 22.43 22.13 23.11 23.33 23.21 23.58 24.34 24.69 25.32 25.33 26.07 28.38 27.85 27.48 28.25 27.55 26.36 26.83 28.23 28.56 30.27 34.64 34.87 34.80

GFSNE_sfc_wetblb_075.txt.gz
Wetbulb
53.02 51.55 47.44 45.23 45.88 46.01 46.35 46.22 46.30 37.69 36.48 36.85 36.84 38.68 39.09 39.77 39.87 39.51 38.39 39.87 42.19 43.34 44.25 45.37 45.13 44.23 44.20 44.42 44.51 44.77 44.89 44.61 44.90 45.45 46.06 46.66 47.29 47.92
45.91 44.64 42.72 42.10 42.21 42.71 43.48 44.02 44.21 41.89 38.65 37.23 35.85 35.73 37.14 38.20 38.45 38.57 38.16 39.68 41.60 42.97 43.11 42.57 42.60 42.81 42.84 42.94 43.18 43.31 43.43 44.03 44.71 45.31 45.89 46.23 46.58 46.96
41.87 40.87 39.70 40.39 39.91 39.75 40.10 40.22 39.79 39.54 37.78 34.35 34.93 35.22 34.86 35.54 37.10 37.95 37.49 36.57 36.83 39.94 40.55 41.19 41.31 41.64 41.89 41.87 42.04 42.40 42.71 43.15 43.47 43.98 44.51 44.91 45.53 45.79
38.85 38.74 38.21 39.02 37.86 38.06 37.92 36.76 35.88 36.04 37.50 33.31 33.03 33.16 34.05 34.82 34.95 34.36 35.29 36.32 35.25 37.41 39.46 40.31 40.57 40.30 40.46 40.95 41.24 41.53 41.50 41.72 41.80 42.04 42.41 42.93 43.67 44.13
37.77 37.47 37.06 36.80 35.55 35.26 34.88 34.41 34.35 35.07 34.81 34.08 32.17 33.80 33.63 33.88 33.27 33.55 33.30 31.74 33.89 37.23 38.00 38.15 38.66 39.24 39.88 40.50 40.52 40.54 40.36 40.48 40.69 40.93 41.14 41.49 41.94 42.41
36.71 36.54 36.17 35.54 34.69 34.27 34.04 33.78 33.58 32.42 32.23 31.66 31.34 31.63 31.50 32.70 32.19 29.10 27.70 29.65 28.32 32.65 34.40 35.36 36.97 37.56 38.14 38.76 38.82 38.11 38.16 38.71 39.33 40.04 40.44 40.60 40.77 41.08
35.24 36.19 36.43 37.33 38.01 36.84 34.46 33.21 32.96 32.07 31.80 31.92 31.16 30.77 29.96 29.10 27.89 28.08 26.66 27.33 27.87 28.93 28.20 27.88 28.64 29.40 30.41 34.82 35.39 36.56 37.71 39.00 39.60 40.07 40.40 40.63 40.30 40.42
32.21 32.87 33.64 34.32 35.68 37.03 37.47 36.75 34.20 31.82 31.76 30.09 28.05 27.97 27.53 26.08 25.87 25.71 24.76 22.83 22.26 27.82 26.85 27.01 28.71 27.78 28.19 28.70 35.20 37.54 37.98 38.46 39.06 39.55 39.90 39.88 39.80 40.01
31.00 31.34 32.12 32.86 32.37 31.43 32.98 33.76 33.60 34.32 33.86 29.71 26.71 26.24 25.40 25.31 24.24 21.35 24.91 22.01 22.79 26.83 26.85 24.91 26.61 26.22 27.60 30.95 35.12 36.52 37.08 37.42 37.96 38.47 38.79 38.85 38.98 39.11
30.18 28.82 28.16 28.09 28.89 31.07 30.80 29.52 29.57 30.01 30.68 31.26 28.37 27.12 26.45 27.26 27.75 25.88 25.17 25.40 25.59 26.26 26.64 19.46 24.67 25.11 26.51 27.80 33.73 35.13 35.92 36.47 36.73 36.83 37.27 37.70 38.06 38.43
27.94 27.82 27.99 27.31 33.18 34.29 27.82 25.87 25.49 25.47 30.98 33.20 32.64 33.74 34.67 35.08 33.76 25.39 21.25 18.99 19.59 23.88 25.52 23.81 23.34 24.61 25.37 25.11 26.83 33.05 34.20 34.21 34.50 34.93 35.65 36.05 36.39 37.12
26.41 26.90 32.35 29.87 32.23 31.85 25.82 23.91 22.47 22.71 24.60 26.35 26.16 26.82 27.80 27.14 32.82 26.84 22.81 13.13 15.65 16.90 24.58 23.22 21.08 24.42 21.77 23.54 24.74 27.16 25.81 30.97 32.84 33.20 33.75 34.30 34.81 32.77
24.60 24.94 25.72 31.36 30.82 30.54 30.16 24.03 24.46 25.98 27.30 23.81 22.99 23.53 24.70 25.76 26.90 26.94 26.50 16.95 22.49 25.08 29.22 28.30 25.06 25.87 24.94 24.08 23.40 25.09 26.14 25.79 26.05 27.94 31.39 32.60 33.33 33.91
24.03 24.73 25.41 30.30 29.69 29.76 27.85 30.35 31.16 29.74 23.98 23.28 23.39 22.72 22.81 22.69 25.56 26.43 28.70 29.10 29.31 27.71 29.27 28.99 25.70 25.37 24.37 23.40 22.86 24.45 25.70 26.95 26.56 26.10 26.26 29.84 32.65 33.71
25.84 28.30 29.92 28.88 28.63 26.57 29.67 30.32 29.54 23.24 23.00 21.43 21.02 19.86 19.86 19.18 20.31 27.81 29.17 29.74 29.28 28.50 29.44 29.78 28.39 27.71 26.65 24.46 23.55 24.41 25.93 26.93 27.98 26.07 26.30 25.97 28.03 27.77
27.35 23.93 26.96 27.50 28.42 27.47 26.47 25.27 24.23 23.27 22.14 19.91 19.22 20.63 24.34 26.24 25.71 27.23 25.80 26.39 20.79 22.73 24.37 25.66 29.28 28.49 26.23 26.31 25.92 25.67 27.34 25.82 27.79 29.51 29.57 29.00 29.49 29.17
25.54 22.23 20.78 21.40 21.90 22.63 22.97 23.25 23.42 23.85 21.63 20.71 23.92 24.32 24.04 24.12 24.51 25.66 25.05 24.53 22.04 22.53 21.86 23.19 29.72 30.03 29.03 26.64 25.39 26.60 26.95 27.63 29.19 28.68 28.51 28.36 30.21 31.42
22.66 19.65 18.76 19.97 20.63 22.01 22.14 22.36 22.60 25.22 25.25 25.15 24.46 24.04 23.46 23.41 23.23 23.97 21.92 23.69 20.94 21.84 22.78 24.12 26.31 26.13 26.55 26.37 30.62 26.49 26.94 27.12 28.22 28.51 28.55 27.43 27.98 30.87
19.45 18.13 18.63 19.34 19.66 19.94 19.01 19.25 23.73 24.75 24.89 24.12 23.81 23.72 23.58 22.30 21.99 17.19 17.46 19.17 21.66 22.84 22.23 22.95 24.69 25.30 21.96 20.54 25.35 32.12 25.93 27.19 27.89 28.20 28.42 28.83 28.16 29.81
18.68 17.29 17.48 18.90 19.02 17.78 21.01 23.69 23.72 24.18 23.91 23.72 23.34 23.25 20.42 21.44 19.41 18.04 17.71 18.10 19.49 22.26 23.24 23.33 25.40 22.83 22.64 22.16 23.36 26.84 31.75 27.42 27.12 27.03 27.98 29.86 31.71 34.40
17.77 17.77 18.98 18.17 17.34 16.87 20.57 23.87 23.88 23.38 23.78 23.70 23.09 22.59 16.85 19.37 19.80 19.52 20.56 24.62 25.42 23.29 21.09 22.60 24.54 30.15 27.59 26.61 24.18 24.71 27.92 32.34 31.81 28.85 29.25 29.01 27.57 27.97
18.37 17.98 18.49 17.72 15.93 12.91 14.99 23.75 23.47 23.35 23.05 22.01 18.83 18.92 20.11 21.06 20.49 20.63 21.30 20.98 21.24 21.68 22.72 25.19 27.04 26.18 24.58 24.49 23.86 25.76 26.44 28.81 32.03 33.52 33.71 32.94 28.80 25.62
17.74 18.02 17.15 15.39 12.01 10.01 10.82 22.49 22.83 22.58 22.63 22.68 19.40 19.50 20.51 20.40 20.82 21.92 22.05 22.29 22.14 22.82 23.65 24.08 25.32 26.30 25.39 25.43 27.21 26.83 26.64 26.85 27.63 27.43 29.23 33.73 34.51 34.77

GFSNE_sfc_wetblb_078.txt.gz
Wetbulb
49.85 48.78 47.84 46.00 46.55 46.62 47.48 47.68 46.96 40.47 38.30 37.65 37.12 39.69 40.32 41.55 42.87 42.20 40.60 42.91 44.65 44.69 45.76 45.79 45.94 46.75 46.07 45.31 45.44 45.40 45.40 45.39 45.43 45.77 46.38 46.95 47.67 48.23
45.03 44.65 43.07 42.69 42.69 43.42 43.92 44.16 44.66 43.50 40.12 38.01 37.12 36.80 38.53 39.62 40.59 39.24 39.26 40.87 42.31 43.86 44.50 44.57 44.02 43.20 43.34 43.42 43.71 43.78 43.74 44.11 44.90 45.41 46.09 46.55 46.98 47.18
41.76 40.95 40.21 40.98 40.26 40.30 40.72 40.61 40.32 40.00 37.19 34.29 35.61 35.78 35.79 36.81 37.69 38.84 38.69 38.34 38.06 41.10 42.10 41.79 41.78 41.77 42.10 42.43 42.33 42.39 42.80 43.37 43.62 44.21 44.74 45.25 45.79 46.27
39.55 39.22 38.80 39.32 37.98 38.10 37.59 36.26 36.03 36.07 37.21 33.97 33.86 33.87 34.69 35.80 35.99 35.42 36.35 36.91 35.90 37.49 39.32 40.24 40.76 40.51 40.50 40.92 41.34 41.81 42.10 42.07 42.30 42.56 42.98 43.56 43.72 44.27
37.71 37.45 37.47 37.16 35.93 35.73 35.34 34.61 34.58 35.13 34.87 34.51 31.62 34.22 34.09 34.20 33.39 33.77 33.42 31.49 33.42 36.67 37.61 37.58 38.21 38.90 39.44 40.34 40.84 40.78 40.47 40.35 40.50 40.81 41.28 41.79 42.42 43.07
35.28 36.01 36.11 35.66 34.92 34.51 34.33 34.18 33.83 32.94 32.96 32.44 31.91 31.84 32.11 32.24 32.20 28.78 27.04 28.28 27.68 31.81 33.29 34.87 36.13 37.14 37.95 38.39 38.69 38.31 38.10 38.60 39.30 40.03 40.56 40.98 41.32 41.86
35.66 35.93 36.28 37.83 38.46 36.95 33.13 32.97 33.79 33.13 32.56 32.07 31.25 31.03 26.92 29.03 26.62 25.68 25.02 25.28 25.60 26.95 27.18 27.64 28.01 28.27 29.30 33.88 34.72 36.05 37.23 38.83 39.71 40.26 40.66 40.95 41.08 41.23
32.48 33.18 33.84 33.10 35.89 38.40 38.21 36.73 34.81 32.19 28.00 28.15 26.15 26.44 25.90 25.48 25.48 24.98 24.24 21.49 21.15 26.90 26.25 26.63 27.22 26.63 27.51 27.94 34.47 36.90 37.70 38.16 38.84 39.33 39.67 39.89 40.08 40.25
29.87 25.41 29.81 32.56 32.22 30.77 32.67 34.00 33.50 34.78 33.54 27.93 25.38 24.60 24.02 24.18 22.21 18.98 23.12 18.96 21.36 25.90 25.62 23.79 26.07 25.83 27.03 29.69 34.21 35.50 36.55 37.17 37.71 38.12 38.22 38.53 39.12 39.50
24.62 24.63 26.00 26.63 28.30 29.90 28.68 27.87 27.82 28.07 28.38 30.46 27.25 26.21 25.37 25.41 25.75 23.76 23.65 24.51 25.02 25.75 25.92 17.94 24.13 24.57 26.21 27.41 33.01 34.36 35.18 35.74 35.70 35.98 36.36 36.80 37.33 37.89
27.24 26.85 26.87 26.91 33.76 33.78 27.05 25.60 24.72 24.99 30.59 33.93 32.88 33.65 34.39 35.22 32.39 26.12 21.47 18.88 19.22 23.65 25.15 23.70 23.17 23.57 24.75 24.74 26.44 32.66 34.35 33.99 34.21 34.77 35.44 35.70 35.82 36.41
25.91 26.08 32.60 29.23 32.20 31.90 25.59 23.81 22.39 22.82 24.12 26.35 25.72 25.86 27.11 27.54 32.46 26.43 22.52 13.33 13.97 15.25 24.20 26.20 24.79 23.82 19.21 23.30 24.60 25.71 26.12 31.61 33.36 34.08 34.49 34.61 34.78 32.24
24.54 24.91 25.62 31.56 31.07 30.64 30.11 23.85 24.34 25.42 27.11 23.27 22.64 23.18 24.58 25.34 26.38 26.64 25.23 14.96 21.38 25.10 29.02 28.16 21.69 25.44 24.99 21.77 23.08 24.34 25.04 26.17 26.04 27.74 31.75 33.04 33.44 33.52
24.13 24.80 25.35 30.36 29.99 30.00 28.25 30.03 31.09 28.25 23.31 23.10 23.33 22.36 22.24 22.06 22.59 23.67 26.44 28.78 29.24 27.60 29.18 29.10 24.96 22.09 21.94 22.77 22.36 22.92 22.59 26.47 26.21 26.17 26.44 29.79 33.05 34.22
25.73 27.73 30.59 29.36 28.73 26.36 29.60 30.45 29.37 23.08 22.78 20.74 20.16 18.97 19.23 18.39 22.61 27.30 28.84 29.17 29.00 27.12 26.78 18.20 26.32 25.48 26.22 24.67 23.83 24.87 25.97 27.86 28.54 26.42 19.73 24.28 25.48 27.22
27.46 23.96 26.50 27.40 28.29 27.05 26.07 24.79 23.96 23.12 21.74 19.25 18.62 19.98 25.01 25.62 25.24 26.49 24.93 25.49 24.63 21.99 21.78 20.89 19.36 24.45 25.59 25.62 25.15 24.82 26.62 24.69 25.62 28.20 28.40 28.49 28.73 30.16
24.99 21.83 20.56 21.17 21.58 22.33 22.68 23.08 23.24 23.67 20.94 22.26 24.35 24.54 24.70 24.92 24.58 25.36 24.53 23.70 22.38 22.32 22.51 23.34 23.38 25.37 26.91 25.74 24.62 25.87 25.78 26.00 26.92 27.35 26.91 27.43 28.40 29.47
22.76 19.32 18.04 19.33 19.99 21.50 21.67 21.94 22.05 24.83 25.22 24.85 24.66 24.30 23.70 23.51 22.42 17.58 14.89 15.99 19.55 19.29 20.14 21.63 17.39 21.24 23.02 25.53 29.90 25.43 25.66 24.68 26.11 26.62 26.63 26.89 27.64 30.57
19.27 17.42 17.95 18.41 18.78 19.10 18.19 16.85 22.52 24.50 24.93 24.02 23.72 23.38 23.50 22.83 21.65 16.30 14.76 15.07 17.96 17.74 18.80 19.87 14.49 20.78 21.27 18.89 23.53 30.74 23.88 24.66 26.04 26.12 27.24 27.29 27.34 29.12
18.20 16.72 16.57 18.08 18.18 16.93 16.70 16.33 23.73 24.05 24.00 23.79 23.46 23.30 23.07 18.21 16.84 14.92 14.53 14.36 16.53 17.22 18.45 17.87 13.30 20.47 21.63 21.18 22.15 25.12 30.60 25.75 25.60 25.31 25.99 28.03 29.46 33.31
17.38 17.18 18.13 17.64 16.81 15.74 15.94 15.62 23.58 23.46 23.57 23.33 23.27 22.80 16.23 13.84 17.86 15.13 17.28 23.48 24.39 21.50 19.27 19.42 20.65 28.16 27.57 26.56 23.18 23.82 26.07 31.18 30.85 27.50 27.55 27.49 27.45 27.90
18.10 17.56 17.83 17.29 15.85 11.85 9.40 10.90 21.75 23.01 22.76 22.77 22.71 20.36 16.07 17.12 18.39 18.76 19.52 19.15 19.60 20.06 20.27 22.37 25.18 25.98 25.45 23.74 22.15 23.42 24.38 28.08 31.38 32.71 33.44 32.64 28.26 24.95
17.74 17.75 16.74 15.52 13.00 9.10 5.28 7.57 13.49 18.80 22.28 22.04 21.71 21.49 17.13 17.85 18.97 20.20 20.44 20.76 20.48 20.23 20.68 21.47 22.94 24.06 24.91 24.51 24.76 24.38 25.66 27.24 27.67 27.10 27.99 32.55 33.52 33.87

GFSNE_sfc_wetblb_081.txt.gz
Wetbulb
48.36 48.47 47.71 45.84 46.45 46.88 47.69 48.25 47.44 43.00 40.93 38.89 38.08 40.06 41.19 42.37 45.25 42.80 42.43 45.83 46.67 47.47 47.04 47.28 47.62 47.22 47.54 46.69 46.29 46.35 46.30 46.31 46.11 46.31 46.53 47.22 47.82 48.41
45.23 44.45 41.92 43.16 43.28 43.51 43.99 44.25 44.22 43.50 41.03 38.11 37.20 37.70 39.59 40.55 41.67 40.34 40.63 42.16 43.70 45.72 45.75 45.52 45.71 44.88 44.02 44.20 44.27 44.34 44.36 44.68 45.06 45.91 46.38 46.77 47.19 47.27
42.56 41.89 40.95 41.42 39.67 40.69 40.75 40.59 40.02 40.40 37.88 34.62 35.79 36.20 36.67 37.77 38.75 39.55 39.27 39.22 39.26 40.95 42.92 42.81 42.84 42.58 42.70 42.72 42.99 42.94 43.07 43.70 44.18 44.59 45.17 45.54 45.71 46.03
40.07 39.93 39.15 39.83 38.31 38.16 37.30 36.76 36.07 36.81 37.60 34.64 34.21 34.28 34.91 36.24 36.54 36.35 37.27 37.80 36.58 37.91 39.59 40.39 40.85 41.36 41.17 41.05 41.33 41.61 42.18 42.61 42.58 42.87 43.25 43.83 44.39 44.73
38.13 37.78 37.51 37.28 35.51 35.28 34.76 31.38 30.72 35.24 35.40 34.75 32.70 34.02 34.07 34.44 33.81 34.39 33.87 33.05 33.78 36.38 37.73 37.71 38.27 38.76 39.31 39.97 40.55 40.97 40.92 40.73 40.65 40.68 41.06 41.74 42.36 42.97
34.23 33.95 33.61 33.38 32.27 31.48 31.36 31.14 32.07 31.78 31.33 30.42 31.48 32.20 32.57 33.08 32.45 28.91 27.68 27.09 27.17 30.97 32.54 34.64 35.48 36.45 37.21 38.24 38.50 38.59 38.42 38.69 39.47 40.12 40.66 41.05 41.43 42.11
35.23 36.44 36.54 37.51 38.37 35.93 32.34 31.02 30.85 30.28 32.02 31.75 30.84 31.14 30.22 27.83 26.30 25.56 24.89 24.58 24.52 25.51 26.12 26.74 27.38 27.72 28.51 33.08 33.84 35.52 36.88 38.53 39.51 40.16 40.59 40.94 41.11 41.42
32.92 32.99 33.48 32.68 35.63 38.25 37.61 37.07 35.12 29.18 26.59 25.90 28.58 24.86 24.30 24.01 24.32 24.03 22.53 19.28 19.48 25.77 25.41 25.45 26.71 26.07 27.01 27.48 34.06 36.59 37.21 37.92 38.54 39.09 39.39 39.73 39.80 40.07
26.45 24.52 28.93 31.33 30.16 28.62 32.97 34.11 34.45 35.74 33.28 27.11 24.65 23.93 23.62 23.90 21.70 18.29 22.51 17.56 20.61 25.17 25.11 23.28 25.70 25.31 26.70 28.86 33.78 35.23 36.07 36.89 37.31 37.43 37.49 38.13 38.38 38.74
23.01 23.53 25.28 25.94 28.64 28.73 27.92 27.34 27.33 26.52 28.41 29.90 26.81 25.97 25.75 25.11 25.07 22.38 22.49 24.11 25.05 25.34 25.43 17.75 23.77 24.24 25.72 26.75 32.27 34.03 35.29 35.25 35.59 35.83 36.20 36.80 37.13 37.31
26.68 26.37 26.87 27.00 33.66 33.34 26.59 25.49 24.30 24.67 30.52 33.84 33.00 33.52 34.01 34.27 32.17 28.46 23.86 18.92 19.37 23.28 24.87 23.31 22.84 22.96 24.34 24.31 26.20 32.30 34.72 34.86 34.82 35.12 35.64 36.05 36.12 36.47
25.36 25.76 32.68 29.18 32.24 31.94 25.10 23.53 22.05 22.60 23.70 26.16 25.14 25.39 26.83 28.05 32.17 26.22 21.95 11.60 13.31 15.80 23.50 21.22 21.68 22.30 17.92 22.60 24.23 25.40 25.75 31.59 33.50 34.01 34.47 34.76 35.07 32.48
24.58 24.92 25.90 32.01 31.73 31.00 30.05 23.64 24.13 25.28 26.96 22.96 22.41 23.15 24.61 24.91 25.77 26.23 24.46 14.66 21.53 24.60 28.73 28.18 24.46 26.03 25.03 19.83 22.79 23.95 24.78 25.90 25.73 27.68 31.62 33.10 33.75 33.65
24.07 25.01 25.29 30.38 30.13 30.28 28.28 29.78 31.09 27.64 23.05 22.84 22.90 21.51 21.48 21.33 21.81 22.67 24.91 26.84 29.08 27.44 28.88 28.47 25.37 24.48 21.39 22.78 22.72 23.05 22.20 25.37 25.80 25.85 26.24 30.06 32.72 33.89
26.08 27.61 30.76 30.72 29.15 26.51 29.53 30.60 29.16 22.93 22.38 20.06 19.50 18.24 18.62 17.85 22.31 26.97 28.46 28.67 28.39 29.07 29.44 25.38 21.53 25.45 25.27 23.40 22.92 24.55 25.48 24.65 27.94 24.68 18.51 22.91 24.77 26.85
27.55 23.91 26.39 27.55 28.34 26.93 26.05 24.70 23.82 22.88 21.21 18.62 17.97 19.06 23.52 25.83 24.80 26.28 24.39 24.85 23.82 19.89 22.02 17.92 15.13 15.59 22.53 24.33 24.84 23.82 25.74 24.38 24.81 27.09 26.13 26.48 27.61 27.90
24.83 21.32 20.12 20.72 21.11 21.87 22.25 22.60 22.76 23.19 20.15 21.43 24.01 24.73 25.15 25.30 24.81 25.22 24.19 23.19 18.72 15.25 18.70 20.36 22.32 22.32 21.71 21.96 22.56 24.60 25.17 25.42 26.43 25.28 24.83 25.34 26.85 27.94
22.88 19.36 17.50 18.73 19.40 20.89 21.18 21.40 21.51 22.96 23.66 25.22 24.67 24.30 23.55 23.26 23.13 16.17 12.89 12.80 16.45 15.72 15.24 15.80 12.55 14.82 16.55 22.02 27.97 24.27 25.36 25.09 25.01 24.80 24.32 24.56 25.84 28.33
20.15 17.03 17.41 17.87 18.08 18.53 17.53 16.28 14.98 21.99 24.77 23.89 23.59 23.35 23.42 23.36 22.13 14.06 13.10 11.63 15.52 15.06 15.86 15.13 7.10 14.77 17.21 17.29 23.70 30.11 22.90 17.66 22.98 24.43 25.14 24.96 25.39 27.41
18.01 16.46 16.44 17.55 17.83 17.15 16.31 13.47 14.27 20.98 23.98 23.85 23.48 23.33 23.10 22.58 13.29 12.29 12.53 12.87 15.19 15.63 15.59 13.48 10.04 14.19 18.20 18.22 20.96 24.25 30.00 24.80 21.84 23.06 23.90 26.26 28.43 32.56
17.18 17.02 17.74 17.30 16.83 16.32 16.50 13.65 12.19 13.09 17.51 23.07 23.14 23.01 22.84 15.74 13.55 13.12 15.17 22.28 23.53 20.49 17.42 17.43 19.43 25.81 24.50 26.01 22.87 23.31 25.39 30.17 29.48 26.32 26.30 26.60 26.62 27.48
18.75 17.78 17.77 17.30 16.29 14.54 12.48 9.86 8.51 12.47 14.14 19.45 22.37 22.43 22.22 19.35 15.30 16.77 17.83 17.45 18.04 18.24 18.41 19.76 20.94 20.31 20.19 22.69 21.85 22.92 24.48 26.33 29.35 31.28 32.84 32.06 27.64 24.70
18.87 18.48 17.23 16.27 15.32 13.28 10.56 10.61 9.27 10.87 11.80 12.85 19.12 21.41 21.21 19.74 17.03 18.40 18.85 19.18 19.06 18.81 18.78 19.44 20.40 20.98 22.09 22.95 23.82 23.44 22.95 23.34 25.87 26.89 27.73 32.50 33.39 33.64

GFSNE_sfc_wetblb_084.txt.gz
Wetbulb
48.84 48.26 47.92 46.06 45.83 46.66 47.92 48.66 47.90 43.78 42.15 39.03 38.88 40.35 41.55 43.45 45.04 43.70 43.73 48.52 48.30 47.41 47.49 47.83 48.00 48.22 47.94 47.74 46.73 46.58 46.88 47.04 47.21 47.41 47.26 47.33 48.16 48.72
45.99 45.23 42.83 42.39 42.22 42.90 43.57 44.89 44.93 44.94 41.82 38.64 37.39 38.38 40.20 41.21 43.05 41.37 41.78 43.21 43.86 45.28 46.26 46.09 45.96 45.98 44.84 44.88 45.19 45.05 45.00 45.17 45.39 45.93 46.61 47.03 47.46 47.70
43.39 42.65 41.50 41.94 40.87 40.46 38.97 38.70 38.30 38.54 38.50 35.09 36.27 36.62 37.36 38.38 39.12 39.62 39.76 39.55 39.71 41.42 43.04 44.12 43.79 43.67 43.26 43.18 43.19 43.11 43.05 43.41 44.14 44.68 45.40 45.71 46.05 46.45
40.75 40.49 39.62 40.10 38.39 38.00 38.09 36.88 34.37 36.72 38.00 35.10 34.59 34.76 35.16 36.58 36.77 36.63 37.57 38.10 36.97 37.94 39.84 40.49 40.91 41.38 41.42 41.22 41.10 41.42 41.75 42.44 42.98 42.89 43.57 44.06 44.47 44.71
38.66 38.27 37.86 37.59 36.17 35.85 35.23 34.52 32.94 33.42 31.76 31.51 31.54 34.03 33.78 34.30 33.48 34.81 34.23 33.78 34.22 36.01 37.49 37.70 38.25 38.53 38.89 39.60 40.16 40.55 40.90 41.26 41.34 41.34 41.25 41.67 42.47 43.18
34.50 34.13 33.42 32.70 31.50 30.68 30.39 30.38 30.97 30.25 30.00 29.34 29.11 31.80 32.41 33.28 32.45 30.45 29.50 28.18 27.12 30.30 31.83 33.98 36.33 36.18 36.57 37.35 38.37 38.41 38.46 38.93 39.54 40.18 40.69 41.26 41.62 42.25
35.76 36.63 36.70 37.71 38.30 35.91 31.77 29.71 29.62 28.96 29.22 28.68 27.83 28.31 28.95 27.94 27.67 25.09 24.61 24.30 24.23 25.24 25.86 26.52 27.11 27.43 28.02 32.44 33.37 35.04 36.81 38.37 39.36 40.27 40.50 40.80 40.87 41.18
32.80 32.59 32.90 33.40 36.47 38.66 37.83 37.29 33.29 28.25 24.51 22.10 19.65 23.21 23.67 23.29 23.86 23.51 21.95 19.24 18.83 25.15 24.96 25.09 26.05 25.86 26.97 27.49 33.73 36.53 36.94 37.66 38.46 39.06 39.46 39.60 39.86 40.27
25.88 26.15 28.80 31.24 29.97 28.38 33.46 34.52 34.74 35.73 32.87 26.62 24.21 23.52 23.37 23.59 21.21 18.12 21.93 16.96 20.02 24.81 24.90 22.92 25.20 24.78 26.62 28.41 33.64 35.27 35.97 36.93 37.29 37.21 37.49 37.77 38.10 38.60
23.34 23.77 25.30 26.08 29.11 27.62 27.48 27.20 26.12 25.89 28.67 29.20 26.45 25.44 25.37 24.77 24.66 21.75 22.22 23.64 24.94 25.11 24.97 17.52 23.53 24.20 25.75 25.98 31.74 33.97 36.08 35.26 35.83 36.28 36.52 36.87 37.14 37.42
26.45 25.90 26.89 26.58 33.39 32.48 26.19 25.63 24.05 24.36 30.70 33.96 32.86 33.38 33.42 33.80 31.01 28.54 27.70 19.30 18.99 22.88 24.41 22.90 22.60 22.53 24.22 24.19 25.93 32.26 35.00 35.49 34.89 35.38 35.86 36.13 36.28 36.58
24.98 25.49 32.95 28.84 32.30 32.10 24.95 23.36 21.53 22.12 23.83 25.52 24.39 25.25 27.05 29.26 31.42 25.81 21.56 11.11 13.10 15.13 22.88 23.01 20.36 21.07 17.53 22.09 23.98 25.40 25.80 31.28 33.52 33.97 34.21 34.70 35.07 32.85
24.50 24.58 25.66 31.79 31.45 31.02 30.07 23.08 23.96 25.08 26.61 22.85 22.32 23.45 24.42 24.53 25.25 25.55 23.92 13.75 16.26 22.92 26.33 27.70 17.70 21.66 23.02 18.95 22.44 24.09 24.91 25.63 26.31 28.02 31.59 33.06 33.75 33.95
23.57 24.55 25.17 30.56 30.08 30.28 28.29 29.77 31.31 27.79 22.95 22.63 22.46 20.71 20.78 20.63 21.38 22.41 24.73 23.78 28.28 27.21 28.62 28.07 24.77 23.51 22.46 22.31 20.73 22.18 21.12 23.90 25.28 25.80 26.15 29.76 32.47 33.56
25.70 27.65 30.42 30.56 29.53 26.69 29.38 30.80 29.18 22.78 22.10 19.56 19.01 17.70 18.06 17.55 21.29 26.42 27.94 28.41 27.34 26.64 27.66 28.44 26.03 24.95 22.03 22.31 22.41 23.73 25.00 24.18 27.22 21.53 17.48 20.71 25.28 26.65
27.35 23.92 26.44 27.39 28.17 26.95 25.92 24.67 23.51 22.50 20.71 18.20 17.60 18.37 21.10 25.85 25.22 26.19 24.19 24.54 22.90 14.79 21.32 15.78 10.93 12.44 13.58 20.28 22.39 22.32 24.21 23.56 23.29 27.16 26.28 24.40 25.91 26.50
24.71 21.02 19.79 20.23 20.50 21.35 21.80 22.11 22.30 22.74 19.73 18.85 20.39 24.86 24.89 25.55 25.15 25.38 24.03 21.07 16.73 11.19 15.37 16.65 20.73 20.59 18.72 18.89 19.91 21.68 21.93 22.74 26.39 25.58 24.17 23.74 25.36 26.40
23.22 19.75 17.26 17.99 18.80 20.36 20.63 20.90 21.15 22.45 21.54 20.36 21.60 24.41 23.77 23.46 23.38 23.64 20.30 10.11 11.51 10.19 11.10 11.24 9.76 13.44 16.13 20.53 25.74 20.77 21.40 24.25 24.56 24.29 22.96 23.10 24.00 26.57
21.58 17.66 16.70 17.64 17.74 18.03 17.18 15.93 14.48 18.42 16.00 17.34 23.63 23.19 23.48 23.36 23.57 20.77 9.55 9.35 11.15 10.78 12.78 9.61 4.52 10.68 11.78 14.69 20.93 29.95 22.31 14.65 17.41 23.17 24.51 23.61 23.50 25.26
18.25 17.10 16.68 17.41 17.29 16.58 15.98 13.19 12.68 13.77 14.31 16.38 16.52 23.02 23.10 22.79 22.11 15.33 9.84 7.95 12.97 10.99 12.12 9.02 6.70 12.32 14.04 14.32 15.90 21.99 28.54 23.48 20.86 22.19 23.00 24.92 26.45 30.82
17.20 16.86 17.53 17.03 16.57 15.97 15.99 13.62 11.35 8.85 10.54 10.20 13.57 22.39 22.75 22.40 20.85 17.40 13.74 21.53 22.63 18.97 16.32 16.16 17.78 24.62 19.32 21.49 19.42 20.77 24.19 29.72 28.85 24.59 24.50 24.75 24.60 26.27
20.51 19.01 18.33 17.44 16.49 14.48 12.65 11.16 8.04 7.52 8.18 10.13 13.21 12.82 14.07 22.08 20.64 19.45 16.94 15.44 16.00 16.01 16.47 18.20 19.02 12.18 13.15 20.04 19.10 20.09 21.88 25.32 28.67 30.37 31.01 30.03 25.85 23.45
21.18 20.48 19.42 18.04 16.85 15.72 14.41 12.76 11.02 9.85 8.57 8.96 9.82 13.21 13.20 15.25 20.71 20.29 18.29 17.02 17.35 17.30 17.56 18.07 19.24 16.37 18.58 20.32 22.05 22.23 23.22 23.37 24.13 23.96 25.67 31.51 32.77 33.67

GFSNE_sfc_wetblb_087.txt.gz
Wetbulb
52.31 51.75 50.32 48.25 48.38 49.21 50.84 52.54 51.13 47.39 47.21 41.96 45.09 43.40 44.10 44.63 46.24 46.40 47.74 50.00 49.56 48.80 48.40 48.34 48.16 47.99 47.72 47.42 46.57 46.99 47.31 47.27 47.40 47.46 47.84 48.00 48.16 48.92
48.90 48.31 46.72 45.84 45.88 46.28 47.11 47.02 48.40 48.40 44.70 41.44 41.08 40.83 42.30 42.40 43.57 42.09 43.11 43.62 45.45 46.22 46.44 46.19 46.03 45.86 45.31 45.22 45.49 45.38 45.40 45.61 45.83 46.03 46.35 46.89 47.18 47.65
46.61 45.03 43.16 43.70 42.58 42.31 43.14 43.83 43.63 43.85 43.32 37.01 38.19 38.49 39.08 40.21 40.09 40.93 40.99 41.18 41.11 42.38 43.51 44.17 43.86 43.69 43.65 43.23 43.10 43.21 43.26 43.55 44.06 44.76 45.34 45.88 46.12 46.23
43.84 43.04 41.52 41.33 40.60 41.00 41.38 39.87 39.48 40.80 42.48 37.98 36.59 36.65 37.20 37.50 37.88 37.98 38.45 38.92 39.80 38.58 39.88 40.45 40.87 41.26 41.30 41.07 41.04 41.25 41.54 42.01 42.90 43.31 43.51 43.85 44.11 44.31
41.67 40.80 39.82 39.67 38.20 38.27 37.89 37.47 37.22 37.75 39.26 39.17 35.33 36.66 36.26 36.86 36.52 37.04 36.24 35.10 36.00 36.10 37.30 37.49 38.01 38.24 38.53 39.04 39.80 40.37 40.77 41.15 41.64 41.82 41.62 41.71 42.31 42.91
37.29 37.35 37.13 37.06 36.32 35.69 35.70 36.06 36.41 37.21 37.16 36.86 36.08 35.12 34.96 35.20 34.50 33.26 33.85 33.78 33.51 34.00 33.89 34.87 36.52 36.34 36.34 37.09 37.80 38.70 38.78 39.09 39.64 40.19 40.57 41.13 41.66 42.11
37.96 38.01 37.51 37.55 37.87 37.02 35.78 35.23 35.57 35.40 35.33 35.37 33.26 33.85 32.82 33.09 32.64 32.14 31.76 32.15 32.85 32.59 33.08 34.48 34.65 34.92 35.13 34.37 34.88 35.50 36.73 38.44 39.40 40.15 40.70 40.88 41.04 41.12
34.40 34.49 34.93 35.12 38.74 39.36 38.72 37.57 35.68 34.10 32.75 33.27 31.90 31.42 30.46 30.79 31.22 30.84 30.50 30.15 29.10 32.35 31.75 32.48 32.82 33.43 34.43 35.22 33.79 36.37 37.28 37.88 38.47 38.93 39.71 39.34 38.99 39.42
31.98 32.46 32.44 33.22 32.88 33.60 36.31 35.77 36.06 36.55 34.11 32.63 30.23 30.40 29.86 30.64 30.30 28.99 29.29 29.44 29.68 32.07 31.05 30.46 32.27 31.99 34.27 33.18 33.75 35.31 36.18 36.93 37.07 36.80 37.21 37.64 38.09 38.56
29.79 30.80 31.75 31.79 32.03 31.43 31.68 31.00 30.62 32.70 32.66 31.65 31.74 31.15 31.67 31.09 31.22 30.64 30.62 30.66 31.60 31.12 31.17 28.64 31.32 31.11 32.61 32.84 31.92 34.78 35.86 36.74 36.05 36.13 36.51 37.01 37.31 37.63
29.89 31.05 31.48 31.90 34.38 31.67 30.11 29.19 28.77 28.79 33.17 34.40 33.64 33.91 33.42 33.97 32.35 31.76 30.84 29.81 28.22 28.70 30.40 28.85 29.89 29.12 30.32 30.93 32.28 33.12 34.44 35.06 34.95 35.28 35.91 36.02 36.10 36.56
29.76 31.21 32.97 32.27 32.86 32.28 28.82 27.77 26.68 27.21 29.64 29.28 29.03 29.34 30.46 32.83 31.51 30.71 30.11 28.19 27.77 27.78 29.62 28.19 28.46 28.35 27.87 30.23 30.93 32.15 32.41 32.14 33.19 34.10 34.59 34.76 35.02 34.24
27.62 27.80 29.91 32.39 31.92 31.96 30.01 27.82 27.86 29.52 29.52 27.67 27.83 28.81 28.98 29.22 29.38 29.72 29.03 28.66 27.58 27.37 30.52 29.59 28.34 28.11 27.92 26.92 29.26 30.70 30.96 31.39 31.85 32.29 32.38 32.84 33.32 34.12
26.86 28.05 29.05 31.29 30.78 31.20 30.71 31.03 33.13 29.72 27.66 27.13 27.05 26.92 27.27 27.58 28.03 28.52 28.65 29.40 29.45 28.92 30.51 30.73 27.98 27.44 26.19 24.98 24.79 29.30 30.22 30.84 31.25 30.79 31.42 32.20 32.88 33.60
28.56 29.65 31.14 31.45 30.75 28.94 30.95 31.73 31.10 27.70 26.51 26.01 26.00 26.44 27.27 27.73 27.20 28.48 29.36 30.17 29.29 29.43 30.60 29.11 29.04 28.25 27.05 24.71 24.12 25.32 26.31 29.52 30.07 30.46 31.26 30.69 30.64 31.51
30.49 29.15 28.41 28.46 27.80 28.04 28.74 28.40 26.99 26.84 26.37 26.35 26.11 26.51 27.24 27.82 27.19 28.00 26.72 26.84 26.06 26.39 27.57 27.21 25.74 24.27 24.88 25.55 25.18 23.64 26.45 25.12 29.81 29.96 30.40 30.63 30.99 31.27
26.81 25.09 24.15 24.17 24.43 24.83 25.16 25.52 26.00 26.57 26.56 26.14 25.97 26.39 26.61 26.48 26.29 27.70 26.75 25.49 23.01 22.85 23.37 25.63 26.10 26.20 25.15 23.96 23.26 25.26 26.09 27.04 28.57 28.58 28.79 28.34 29.82 30.56
26.78 23.88 22.84 22.72 23.16 23.81 24.00 24.41 25.12 26.30 26.32 26.42 26.30 26.18 25.69 25.37 25.48 26.31 25.67 22.86 21.11 21.71 22.01 23.09 22.97 23.35 25.18 26.76 27.30 25.30 26.67 26.69 28.32 29.21 28.85 26.38 26.75 30.36
26.51 24.51 23.04 22.47 22.74 23.33 23.82 24.20 24.50 25.60 25.11 25.77 25.70 25.83 25.69 25.45 25.33 24.86 24.27 21.68 21.30 21.65 22.02 22.57 21.23 20.48 20.14 20.15 26.46 29.81 27.03 27.67 27.51 27.15 28.12 27.92 27.48 29.21
25.09 24.36 23.62 23.22 22.69 22.74 23.10 23.46 23.87 24.15 23.21 24.63 25.04 25.18 24.90 24.89 24.29 23.69 23.16 20.55 20.53 20.87 21.33 23.03 21.49 21.23 20.08 20.99 21.50 25.17 28.25 26.84 26.90 26.71 27.04 28.96 30.25 31.26
23.42 22.52 22.60 22.63 22.61 22.74 22.75 22.43 22.16 21.91 21.78 22.50 23.43 23.40 24.29 24.64 23.46 23.20 22.48 22.72 22.82 22.80 21.11 21.62 24.10 25.86 24.27 23.48 20.63 22.28 26.74 28.75 29.09 28.35 28.52 26.58 25.46 26.95
24.68 24.15 23.59 23.14 22.77 22.38 21.94 21.12 20.38 20.08 21.79 21.60 21.33 22.25 23.61 24.02 22.86 22.20 21.57 20.56 20.28 20.32 20.45 22.00 23.24 23.15 21.41 20.89 20.45 21.64 23.76 26.53 28.92 29.93 30.39 29.94 27.24 23.73
25.67 25.43 25.50 24.76 23.92 23.01 21.77 20.69 19.02 19.82 19.15 18.67 19.25 19.52 19.84 20.45 22.68 22.93 21.76 21.05 20.11 19.08 19.37 19.75 22.32 23.59 21.60 21.23 21.91 21.99 23.08 24.50 26.90 27.59 29.20 31.20 31.26 31.53

GFSNE_sfc_wetblb_090.txt.gz
Wetbulb
55.60 54.41 52.61 51.48 52.41 52.30 52.31 53.40 53.30 50.66 50.38 47.65 48.79 46.30 45.42 46.27 45.95 47.55 47.25 48.89 49.84 49.76 49.48 48.90 48.42 48.22 48.09 47.23 47.02 47.21 47.51 47.39 47.49 47.86 48.21 48.29 48.55 49.17
51.37 50.69 50.16 49.88 49.42 49.97 50.20 50.53 51.15 50.96 47.53 45.97 43.26 43.53 44.07 43.85 43.85 42.99 43.22 43.99 45.67 46.78 46.68 46.36 46.33 46.18 46.06 45.71 45.63 45.45 45.37 45.51 45.67 46.07 46.40 46.71 47.09 47.50
50.75 50.81 48.74 47.39 46.07 45.78 46.48 48.06 48.81 49.05 47.19 39.83 40.32 40.87 42.47 43.40 44.09 44.74 43.04 42.69 42.73 43.19 43.72 43.66 43.44 43.36 43.50 43.27 43.08 43.14 43.24 43.62 44.04 44.46 44.98 45.52 46.12 46.32
48.42 47.31 44.82 44.31 44.32 45.28 46.73 45.52 45.77 46.36 45.60 40.82 39.03 39.70 40.51 40.60 41.40 40.88 40.55 41.30 42.08 39.72 40.63 40.95 41.27 41.54 41.31 41.06 41.18 41.48 41.53 41.87 42.32 43.00 43.28 43.41 43.77 44.22
46.94 46.21 44.82 44.33 42.64 42.49 43.24 42.40 42.32 42.00 44.00 42.81 38.15 39.32 39.58 40.78 40.81 41.34 40.17 40.29 38.77 36.49 37.19 37.39 38.11 38.56 38.71 39.14 39.70 40.49 40.84 40.95 41.33 41.63 41.73 41.63 42.07 42.64
43.12 42.61 42.18 42.12 41.47 41.27 40.51 40.88 41.60 42.04 42.20 41.45 39.99 39.20 40.46 39.83 39.75 38.69 38.23 38.51 37.81 37.12 36.06 35.09 36.35 37.20 37.57 37.83 38.10 38.44 39.03 39.13 39.42 39.89 40.35 40.82 41.50 42.05
39.90 40.05 40.32 39.43 39.37 39.53 40.40 40.05 40.46 40.65 41.05 40.72 38.82 38.71 38.09 37.44 37.57 36.76 35.74 36.31 37.13 36.34 36.17 37.46 37.01 37.60 37.98 37.00 36.22 36.41 36.75 37.80 39.07 39.92 40.65 41.10 41.14 41.29
38.40 38.96 39.39 40.36 40.31 39.89 38.91 37.72 38.64 38.60 37.43 38.05 37.11 36.73 35.17 35.65 35.60 34.94 34.17 33.31 32.56 35.87 34.41 35.12 36.59 36.43 37.53 37.86 34.85 36.21 37.41 38.13 38.65 39.17 39.56 39.93 39.54 39.35
35.64 35.95 36.19 36.24 37.81 38.21 37.74 37.40 37.36 36.35 36.03 36.56 34.65 34.65 33.64 34.59 33.95 32.37 32.44 32.29 32.22 35.15 33.60 33.50 36.06 35.03 37.51 36.33 35.20 35.57 36.61 37.45 37.90 37.05 37.25 37.83 38.33 38.76
35.09 35.42 34.68 34.03 34.22 34.14 34.45 33.85 34.55 34.76 34.55 34.35 35.00 34.11 34.32 34.16 34.20 33.66 33.53 33.24 34.36 34.59 34.03 31.57 35.48 33.91 36.39 36.55 32.56 35.09 36.28 37.37 36.76 36.38 36.57 36.88 37.32 37.62
33.67 35.00 35.38 35.23 33.59 33.09 33.42 31.99 32.32 33.33 35.29 34.65 34.93 34.40 33.96 34.14 34.44 34.70 33.15 32.27 31.66 31.94 33.73 31.41 33.49 32.23 34.21 34.12 35.15 33.10 34.49 35.15 35.79 35.97 36.27 36.43 36.44 36.60
33.05 33.50 33.32 34.32 34.46 31.54 31.74 31.62 30.37 31.00 31.66 31.47 32.03 31.83 33.39 33.48 32.24 33.85 33.36 31.01 31.19 31.13 32.35 30.13 30.17 30.65 30.59 34.49 33.85 34.70 35.10 34.80 34.49 34.80 35.51 35.30 35.18 35.32
31.67 32.35 33.78 33.43 32.95 33.00 30.62 31.11 30.71 32.04 31.31 31.18 31.28 31.73 32.04 32.37 32.76 32.71 32.13 31.59 29.58 29.57 32.12 30.53 28.69 28.45 28.61 29.37 31.82 33.72 34.09 33.95 34.40 34.60 34.96 34.64 34.00 34.22
30.01 31.07 31.71 32.22 31.87 32.14 32.08 31.56 33.16 31.67 31.28 30.41 30.22 30.32 30.49 30.69 31.05 31.28 30.77 31.09 31.16 30.00 31.45 31.38 28.31 28.25 27.03 26.19 26.87 32.23 33.19 33.77 33.55 33.21 33.78 34.42 34.92 34.94
30.92 31.09 31.65 32.36 31.25 31.19 31.27 32.28 33.42 31.23 29.86 28.95 29.20 29.72 30.59 30.99 29.96 30.20 30.41 30.73 31.27 30.57 31.74 31.20 29.25 28.91 28.06 25.63 25.65 27.00 28.01 31.39 32.62 32.51 33.22 32.64 32.08 33.22
30.64 32.06 30.70 30.52 31.17 30.01 30.80 32.28 31.40 30.92 29.83 30.05 29.80 30.35 30.43 29.42 28.70 29.33 28.10 27.93 27.04 27.92 31.21 30.21 29.11 28.53 26.91 27.37 27.41 25.96 28.49 27.01 31.83 32.25 32.39 31.16 31.77 32.83
30.35 29.28 28.43 28.23 28.58 28.53 28.88 29.53 29.58 29.39 29.00 29.52 29.35 29.10 29.05 28.89 28.15 29.12 27.78 26.93 24.93 25.50 27.32 29.52 29.83 29.05 28.68 27.22 25.45 27.64 28.82 30.48 32.19 31.02 29.89 29.33 31.85 32.26
28.66 27.49 27.17 27.17 26.98 27.38 27.09 27.47 28.37 28.52 29.13 29.73 29.38 29.17 28.47 27.89 27.74 28.02 27.69 25.70 24.16 25.10 26.19 27.79 27.38 26.84 28.23 29.61 29.72 27.12 28.93 30.01 30.59 30.63 29.91 27.93 28.98 31.95
29.07 28.24 27.82 27.38 26.65 26.93 27.49 27.72 27.95 28.67 31.03 29.61 29.36 28.81 28.14 27.78 27.08 26.38 25.94 25.25 24.20 25.04 25.94 26.70 25.49 24.15 22.42 22.55 29.09 31.28 27.79 28.79 30.12 29.67 30.19 30.01 29.11 31.23
30.95 29.41 28.44 27.90 27.25 26.91 27.25 27.58 28.10 28.38 28.03 28.02 28.09 28.07 27.80 27.25 26.42 25.74 25.00 24.11 23.74 24.21 24.06 25.63 25.22 24.32 22.56 22.96 23.46 26.96 29.72 27.84 27.30 27.49 28.68 30.78 31.76 32.49
30.33 28.97 28.69 28.15 27.42 27.65 27.75 27.81 27.63 27.58 27.66 26.96 27.05 27.25 27.19 26.80 26.02 26.26 25.88 25.21 24.80 23.67 22.55 24.19 27.37 28.44 27.05 25.86 21.51 24.04 29.17 29.84 29.07 27.85 28.26 27.50 26.72 27.79
29.69 28.80 28.52 27.97 28.07 28.11 27.83 27.27 26.64 26.21 26.15 26.19 25.59 26.29 26.64 26.67 25.69 25.25 24.86 24.10 23.78 23.71 23.52 25.45 26.37 25.62 23.56 21.29 21.64 23.67 26.24 28.89 30.17 30.28 30.35 29.37 26.75 24.14
31.17 30.29 30.16 29.70 29.71 29.20 28.30 27.43 25.98 25.89 25.61 25.47 25.48 25.45 25.07 24.09 24.99 24.99 24.83 24.44 23.68 22.72 22.57 22.15 23.80 25.21 23.53 23.28 22.72 22.08 23.03 25.13 27.68 27.97 30.14 32.32 32.36 32.71

GFSNE_sfc_wetblb_093.txt.gz
Wetbulb
58.62 57.73 55.17 53.69 54.17 54.01 53.73 54.26 53.65 49.25 49.79 48.41 46.89 45.56 45.61 45.89 45.91 46.85 46.37 49.07 50.19 50.17 49.90 49.64 49.36 49.39 48.54 47.97 47.56 47.50 47.36 47.20 47.37 47.83 48.31 48.53 48.52 48.81
52.33 50.95 50.12 50.33 50.99 51.19 51.39 51.18 51.07 50.82 48.99 46.61 43.29 44.05 44.59 44.41 44.37 43.66 43.75 44.28 46.30 47.36 47.25 47.04 46.95 46.80 46.41 45.96 45.56 45.30 45.27 45.51 45.75 46.27 46.66 46.90 47.03 47.45
51.17 50.49 49.60 49.95 48.34 48.05 48.33 48.88 49.39 49.37 46.90 40.43 42.12 42.01 42.93 43.69 44.05 44.75 44.02 43.53 43.34 43.71 44.19 44.05 43.84 43.74 43.74 43.63 43.70 43.57 43.59 43.89 44.23 44.58 44.99 45.53 45.76 46.05
49.03 48.23 46.35 46.33 46.15 46.90 47.64 47.43 47.86 47.89 46.56 41.88 40.52 40.47 41.59 41.87 42.19 42.11 41.05 41.81 41.88 40.70 42.16 42.43 42.56 42.18 41.67 41.53 41.46 41.51 41.44 41.47 42.20 42.97 43.28 43.22 43.75 44.09
47.94 46.90 45.45 45.84 45.09 45.01 45.29 44.08 43.74 43.33 45.10 42.30 38.69 40.24 40.29 41.13 40.55 40.83 39.47 39.13 38.73 37.29 37.88 37.98 38.36 38.91 39.07 39.41 39.52 39.80 40.66 40.85 41.02 41.41 41.71 41.76 42.03 42.60
45.45 45.41 44.90 44.77 43.55 43.11 42.44 42.54 42.72 42.55 42.83 41.74 40.07 39.68 39.89 39.50 39.19 37.53 36.52 36.84 35.92 37.34 36.82 35.76 36.55 37.49 38.19 38.63 38.41 38.14 38.48 39.25 39.47 39.72 40.17 40.64 41.17 41.77
41.62 41.27 41.32 41.23 42.07 41.78 42.02 41.11 41.58 41.16 41.17 40.80 38.64 38.32 37.41 36.62 35.92 34.61 32.77 33.22 33.95 33.42 33.07 34.13 33.79 34.57 35.55 37.58 37.04 36.75 36.93 37.60 38.74 39.70 40.33 41.01 41.23 41.28
40.10 39.97 39.91 40.11 40.11 40.19 39.57 39.30 39.66 39.35 37.97 38.12 37.04 36.34 33.93 33.56 32.88 31.90 31.15 30.44 29.21 33.25 31.44 31.56 33.36 32.41 34.19 34.27 36.39 35.96 37.18 38.08 38.75 39.26 39.60 40.06 39.91 39.78
36.24 36.97 37.55 38.61 39.42 37.87 38.62 38.15 37.37 37.56 37.70 35.91 33.70 32.32 31.55 32.30 32.06 30.64 29.90 29.80 29.02 31.98 30.73 29.85 32.29 31.09 33.91 35.25 35.76 35.37 36.49 37.54 38.01 38.07 37.23 37.85 38.37 38.78
37.56 37.15 35.78 35.37 35.00 35.07 33.90 33.57 33.29 33.40 33.79 34.35 33.66 32.41 32.87 32.70 32.75 32.17 30.96 30.41 31.25 31.59 31.21 28.19 31.81 30.38 32.70 33.04 34.73 34.62 37.00 36.97 37.96 36.76 36.93 37.27 37.37 37.76
34.32 35.13 34.84 33.80 34.60 35.15 33.29 31.89 31.91 32.23 35.21 36.05 35.77 35.56 35.15 35.07 34.53 32.50 30.97 30.15 29.14 28.70 30.53 28.17 30.15 29.22 30.85 30.99 31.40 33.70 35.00 36.01 36.73 36.94 37.11 37.08 37.20 37.36
33.50 33.13 34.58 35.23 33.69 33.12 32.10 30.93 28.95 29.52 30.16 30.53 30.56 31.19 34.02 32.30 33.70 31.50 31.19 27.66 28.76 28.35 29.28 27.89 28.87 27.28 25.59 30.36 30.08 30.89 31.02 35.47 35.98 36.27 35.95 36.49 36.32 32.72
30.85 31.29 32.14 34.54 34.60 32.61 31.65 29.40 29.77 31.12 31.01 29.09 28.95 29.25 29.75 30.34 30.40 30.30 30.18 30.28 29.03 27.74 29.54 27.80 28.13 27.74 27.76 26.48 27.52 30.00 30.21 30.27 30.42 31.77 35.65 36.11 36.04 34.00
29.82 30.88 32.45 33.73 33.02 33.35 30.84 32.72 32.82 32.37 29.36 28.51 28.34 28.39 28.67 29.06 29.24 29.59 29.14 29.47 31.29 29.48 30.39 30.25 27.52 27.79 26.71 25.36 24.56 27.85 28.01 29.09 29.31 29.38 29.84 33.23 35.55 36.15
30.35 31.16 32.51 32.99 32.21 31.91 32.68 32.95 33.95 29.60 28.09 27.46 27.78 28.38 29.23 29.93 27.69 27.90 30.73 29.80 27.74 28.39 29.56 25.02 25.01 28.26 27.70 25.57 24.99 25.59 26.86 26.90 28.66 27.70 29.88 30.81 29.59 29.59
31.16 31.30 31.87 31.98 32.54 30.88 30.29 31.35 30.68 29.88 28.39 28.36 28.63 29.17 29.38 29.31 28.50 29.96 28.36 28.69 27.45 27.28 30.91 25.86 23.50 22.00 25.16 26.03 26.05 25.22 27.03 25.37 26.01 28.68 29.55 30.45 30.68 30.73
30.68 29.32 27.65 27.34 27.26 27.22 27.71 29.26 28.92 27.83 26.99 27.54 28.38 28.39 28.16 27.95 28.33 29.21 28.42 27.59 25.37 24.68 26.10 28.74 29.51 28.81 27.59 26.35 23.72 24.65 24.64 25.68 26.92 30.43 29.69 27.97 29.25 30.24
28.87 26.35 25.87 25.87 25.80 26.65 26.33 26.41 26.84 28.07 27.85 28.95 28.52 28.11 26.97 26.14 27.92 28.23 27.83 26.53 24.23 24.22 24.74 27.01 27.31 25.75 25.61 26.82 28.98 24.12 24.86 25.14 28.16 29.52 29.20 27.28 27.11 28.55
27.81 26.76 26.35 26.14 25.76 25.86 25.99 26.57 26.89 27.34 27.15 27.95 27.50 27.01 26.32 25.74 27.25 26.19 26.44 25.54 24.81 24.54 25.07 26.37 25.53 23.43 20.07 19.43 25.28 32.36 24.69 22.55 23.81 25.85 26.68 26.53 26.18 28.36
28.71 28.31 27.54 27.43 26.71 26.10 26.36 27.05 26.96 27.49 27.16 27.09 27.22 26.23 25.02 24.69 23.74 24.11 25.12 24.65 23.93 23.71 23.42 24.81 24.61 23.95 21.42 21.13 22.64 22.20 30.68 24.58 23.79 23.46 24.37 26.63 28.65 32.36
29.79 29.52 29.21 28.46 27.71 27.40 27.24 27.43 26.94 26.84 26.91 26.21 26.04 25.26 25.43 24.94 23.74 23.71 23.64 26.57 25.19 21.88 20.86 22.30 23.36 29.96 27.34 25.45 21.31 20.62 24.10 29.68 28.49 24.16 22.53 24.83 24.66 24.51
30.11 29.48 29.23 28.67 28.12 27.60 27.67 27.31 26.60 26.16 25.56 25.63 25.10 25.16 25.55 25.19 24.01 23.42 23.77 22.17 21.85 21.58 20.89 19.77 20.77 22.19 23.84 21.51 19.34 20.20 21.56 24.99 28.84 29.95 30.87 29.86 25.30 21.32
30.85 29.65 29.04 28.76 28.21 28.05 27.82 27.46 26.48 26.21 25.46 24.92 25.14 25.26 24.68 23.91 24.50 24.57 23.80 23.02 21.90 20.07 19.57 19.89 19.59 20.40 21.87 22.60 22.41 21.97 22.68 22.26 23.66 24.28 25.83 31.42 32.52 33.12

GFSNE_sfc_wetblb_096.txt.gz
Wetbulb
60.69 59.63 56.47 54.27 54.42 54.20 54.32 54.11 53.16 49.13 49.08 46.30 42.61 44.73 45.19 45.00 45.99 45.62 45.56 49.82 50.67 50.77 51.03 50.89 50.54 50.09 49.76 49.33 48.83 48.21 47.83 47.55 47.39 47.64 47.98 48.21 48.35 48.50
53.34 52.49 50.80 50.88 50.90 51.29 50.81 51.12 50.96 50.85 47.67 44.36 42.19 43.29 43.85 43.84 44.90 43.41 44.27 44.93 47.09 48.29 48.11 47.58 47.54 47.49 47.10 46.72 46.29 46.03 46.15 46.26 46.19 46.41 46.60 46.80 47.03 47.98
51.24 50.44 49.61 49.58 48.15 47.00 46.71 47.14 48.04 48.76 45.86 39.59 41.37 41.63 42.19 42.59 43.09 43.15 43.00 42.55 41.65 44.44 45.13 44.51 44.44 44.64 44.68 44.76 44.76 44.49 44.31 44.29 44.21 44.22 44.62 45.16 45.70 45.64
49.04 47.83 46.63 46.61 45.27 46.13 46.61 45.99 46.41 46.13 45.15 40.16 39.72 39.57 40.63 41.25 41.27 39.85 40.27 41.65 39.75 42.60 43.41 43.33 43.13 42.80 42.35 42.12 41.91 41.81 41.55 41.71 42.43 42.76 42.76 42.95 43.10 43.47
47.77 46.25 45.18 45.50 44.55 44.16 41.85 40.48 41.09 41.74 42.65 39.34 36.56 39.60 39.33 39.66 39.35 38.15 36.82 34.77 36.30 38.66 38.79 38.78 39.30 39.30 39.32 39.62 39.61 39.58 40.37 40.72 40.58 40.83 41.23 41.34 41.59 42.20
44.80 44.90 44.73 44.42 42.83 40.37 39.70 38.81 39.34 38.58 38.89 38.93 38.34 38.15 37.59 36.59 36.38 34.63 32.47 32.97 31.78 35.55 36.68 36.35 36.89 37.40 37.85 38.14 38.13 37.70 38.03 38.88 39.19 39.23 39.73 40.28 40.81 41.52
40.64 40.49 39.65 40.98 42.98 41.18 39.03 37.11 38.26 37.81 37.34 36.15 37.27 35.65 33.62 33.49 32.35 30.99 29.07 28.58 28.64 29.06 28.25 29.35 29.99 30.44 31.75 37.29 36.93 36.90 36.82 37.34 38.24 39.29 39.97 40.51 41.12 41.29
36.23 36.53 38.96 40.43 40.95 42.00 41.76 41.40 39.72 36.93 35.00 37.47 31.43 31.98 31.82 29.54 29.00 27.75 26.29 23.42 23.96 28.81 27.42 27.15 29.16 28.28 30.49 31.26 37.70 36.67 36.87 37.68 38.59 39.13 39.46 39.88 40.17 39.82
35.82 36.26 37.37 38.74 37.26 35.84 39.09 39.25 39.17 39.85 38.23 34.25 32.40 29.08 27.84 28.70 28.42 25.66 26.19 23.86 23.54 27.72 27.24 26.00 28.12 27.51 30.05 33.50 36.68 35.77 36.33 37.55 38.26 38.58 38.18 37.67 38.22 38.56
36.53 35.97 34.12 33.02 34.28 32.42 31.97 30.07 29.52 31.55 32.49 32.58 29.07 29.10 29.36 29.47 29.49 28.08 27.36 26.76 27.57 27.72 27.66 22.07 27.34 27.24 28.88 29.39 35.87 35.18 36.23 37.92 37.44 37.77 36.92 37.24 37.56 37.80
32.81 32.51 31.82 30.99 36.05 36.65 31.21 29.45 29.44 30.03 36.29 37.20 36.55 36.70 36.58 36.48 33.18 29.06 25.12 23.66 23.53 25.58 27.23 25.28 25.52 25.55 27.76 28.30 29.04 34.40 34.76 36.38 37.26 37.11 37.43 37.28 37.48 37.79
30.15 31.37 36.33 32.47 35.92 36.03 30.14 28.33 27.55 28.08 28.74 28.14 27.66 32.19 31.80 32.31 34.78 27.96 25.81 18.38 20.30 21.27 25.95 21.64 22.93 23.16 19.56 26.90 28.02 28.57 29.01 34.97 36.28 36.75 37.05 36.79 37.14 31.64
28.80 28.40 29.81 36.29 34.35 33.31 32.33 27.03 27.89 28.69 30.44 26.38 25.26 25.92 27.19 27.21 27.13 27.41 28.02 20.35 16.33 17.07 28.05 20.99 18.02 24.48 25.99 22.62 24.17 26.81 26.95 28.22 28.51 30.01 34.50 35.52 36.24 35.34
27.59 28.60 30.28 34.93 34.55 33.90 30.20 33.26 34.75 32.56 26.66 25.65 25.34 24.86 24.95 23.82 24.36 25.83 27.22 25.89 24.58 22.34 27.76 29.28 21.49 18.83 25.12 24.14 21.98 24.24 23.07 25.99 26.04 27.15 27.26 31.94 34.05 34.98
28.00 30.74 34.36 34.53 33.82 32.79 33.16 33.78 33.95 27.08 25.67 24.59 24.51 23.63 22.73 22.58 22.22 23.16 25.14 26.80 21.23 24.90 26.86 28.82 24.77 15.62 24.25 24.51 23.94 25.40 26.15 23.99 27.17 23.50 28.70 27.40 30.12 30.73
31.44 29.38 31.14 31.67 31.70 29.87 30.40 30.26 29.34 27.62 25.45 24.45 24.22 24.38 24.13 20.38 21.00 21.57 22.81 27.36 26.14 25.58 28.91 29.93 20.26 17.68 13.75 20.74 25.26 24.24 26.30 23.10 19.38 23.29 25.54 30.34 30.97 31.01
28.79 28.06 26.37 25.48 26.24 25.82 25.45 27.45 27.96 27.39 25.04 23.80 23.24 23.32 25.29 24.67 22.73 22.25 27.31 26.33 24.36 23.93 25.24 28.54 29.76 28.14 27.18 25.83 23.56 24.40 24.18 19.68 22.39 24.16 29.15 28.37 29.59 30.11
28.00 25.19 24.61 24.59 24.78 25.31 25.21 25.76 26.28 27.68 25.26 24.49 22.84 24.13 22.92 22.24 20.27 23.50 26.92 25.79 24.01 24.09 24.45 25.96 26.65 25.88 26.01 25.77 29.09 23.10 21.37 18.92 20.03 24.49 25.14 22.09 25.22 26.51
27.21 24.96 24.26 24.28 24.14 24.67 25.02 24.68 23.56 24.54 20.42 22.96 24.52 22.01 19.53 18.69 24.08 21.27 25.87 25.55 24.81 24.63 24.61 25.48 24.76 23.34 20.26 19.03 22.66 31.09 23.28 15.60 19.48 22.30 22.69 22.54 23.99 25.69
27.59 26.05 25.45 25.58 25.11 24.92 24.76 23.73 23.54 22.45 22.82 23.64 20.79 20.78 20.99 19.47 14.47 14.40 17.27 17.65 17.37 20.61 23.42 24.36 23.31 23.44 21.39 19.79 21.08 19.75 28.97 18.06 17.53 22.21 22.67 23.96 26.11 30.38
28.32 26.99 27.54 26.95 26.57 25.90 24.77 24.81 24.03 22.77 20.89 18.51 22.11 22.45 21.26 19.00 17.13 18.62 18.90 26.18 23.37 17.10 16.87 15.82 19.30 27.60 25.00 23.37 21.28 21.06 21.07 27.58 27.80 25.58 21.64 23.18 23.62 24.54
28.99 28.85 28.79 28.41 27.80 26.82 26.37 25.55 23.83 26.14 22.95 23.48 24.14 23.89 22.98 23.07 21.45 20.55 20.60 19.16 21.30 17.33 15.05 13.69 15.62 14.81 13.46 16.80 18.47 17.16 20.08 23.05 26.53 28.56 29.29 28.43 24.12 22.00
30.01 29.48 29.02 28.75 28.70 27.73 26.48 25.27 25.15 25.27 24.66 24.28 24.61 24.33 23.56 23.23 23.48 23.31 22.37 21.84 20.46 18.07 17.11 15.08 16.94 16.84 17.34 18.40 21.09 21.14 20.15 20.52 23.34 23.54 24.35 29.59 30.61 31.28

GFSNE_sfc_wetblb_099.txt.gz
Wetbulb
59.93 59.57 58.62 57.14 56.69 56.41 55.91 55.47 53.48 48.76 49.14 44.27 42.79 44.69 45.04 45.42 46.38 45.84 46.74 50.47 51.06 51.68 51.81 51.23 51.13 50.98 50.94 50.81 50.20 49.68 49.12 48.45 48.02 48.13 48.48 48.27 48.19 48.45
55.15 56.25 53.76 52.58 52.91 52.90 51.98 52.94 52.61 52.09 48.66 44.89 42.30 43.24 44.44 43.53 45.47 44.03 44.77 46.05 48.49 49.33 48.71 48.07 47.97 48.03 47.83 47.69 47.51 47.28 47.35 47.22 47.06 46.95 46.88 46.86 47.20 47.77
52.23 52.14 50.95 50.82 49.64 47.98 48.93 49.14 49.31 50.10 47.24 40.03 41.44 42.42 42.69 42.65 43.12 43.09 43.55 42.23 42.94 45.73 46.35 45.72 45.17 45.49 45.63 45.82 45.91 45.60 45.38 45.17 44.71 44.44 44.88 45.37 45.83 45.58
50.60 49.57 48.34 48.19 47.44 47.27 47.38 46.86 45.50 47.26 45.64 40.31 39.71 39.87 40.70 42.08 41.93 40.34 40.11 41.28 40.04 43.69 44.77 44.62 44.32 43.91 43.53 43.08 42.73 42.40 42.07 42.47 43.09 42.99 42.94 42.99 43.02 43.24
48.60 47.57 46.52 46.54 45.02 45.53 45.21 43.95 43.96 43.76 44.01 40.61 38.00 39.93 39.33 39.83 39.58 39.55 38.14 35.06 36.20 39.90 40.16 40.21 40.24 40.02 40.23 40.48 40.20 40.21 40.89 40.94 40.68 40.89 41.21 41.35 41.53 41.98
46.12 45.85 45.50 45.32 44.36 43.48 42.55 41.60 39.48 39.13 40.29 39.50 38.19 37.95 38.13 38.75 38.61 34.20 32.25 32.84 31.18 34.56 36.34 36.15 37.11 37.93 38.21 38.61 38.53 38.07 38.27 39.16 39.51 39.47 39.76 40.23 40.62 41.23
41.36 41.29 41.74 43.08 43.85 42.73 40.87 37.75 37.72 36.87 36.34 38.17 37.44 36.94 35.40 33.32 32.93 31.64 30.59 28.71 28.27 28.34 28.15 28.44 29.14 28.97 30.35 37.57 36.86 37.52 37.28 37.68 38.39 39.38 39.77 40.18 40.68 41.15
36.64 37.79 39.56 41.83 42.61 43.77 42.56 41.89 39.59 36.43 34.44 32.23 33.83 29.55 30.97 30.90 29.18 28.55 27.23 23.85 24.21 28.31 26.91 26.38 28.14 27.35 29.11 29.90 38.39 37.45 37.12 37.58 38.48 39.09 39.28 39.62 39.78 39.91
35.99 36.13 36.88 38.60 38.59 38.05 40.88 40.60 40.99 41.29 39.39 35.72 33.84 31.67 28.55 28.84 28.37 26.26 25.98 24.26 23.83 27.55 26.86 25.88 27.01 26.73 28.63 32.15 37.17 36.37 36.50 37.60 38.25 38.66 38.75 37.86 37.93 38.39
37.20 37.08 36.60 34.07 33.77 33.03 30.31 29.55 30.32 31.83 31.19 32.15 30.29 28.99 29.24 29.52 29.66 28.46 27.12 26.36 27.06 27.45 27.01 22.02 26.13 26.81 28.06 28.78 36.41 35.57 36.04 38.07 37.47 38.41 37.32 37.12 37.39 37.82
35.36 34.99 34.12 32.31 37.13 36.94 30.08 29.16 28.80 30.53 36.66 37.15 36.41 36.81 36.46 35.76 32.58 28.39 25.51 25.13 23.64 25.40 26.65 24.77 24.24 24.52 26.34 27.38 28.33 35.05 35.59 36.22 37.48 37.32 37.03 37.32 37.51 37.67
31.79 32.58 36.43 33.07 37.56 37.22 29.73 28.96 27.46 28.13 29.22 28.87 30.07 32.46 32.26 33.95 34.60 28.99 26.77 19.89 21.00 21.30 25.48 21.61 22.13 22.28 18.51 25.38 27.05 27.38 28.16 34.82 36.01 36.26 36.56 36.84 37.08 31.34
30.12 29.53 30.19 36.51 36.77 36.69 33.89 28.30 28.86 29.46 31.29 26.68 26.00 27.33 26.84 27.04 26.97 27.99 27.42 21.88 15.68 16.67 27.28 21.23 13.93 18.96 17.66 20.24 23.26 25.74 26.54 26.77 26.99 28.16 32.86 34.25 35.41 35.43
28.46 28.07 29.30 36.79 35.08 34.38 31.35 33.07 34.70 33.06 26.98 25.47 25.43 24.99 25.44 24.58 25.65 26.55 27.20 26.08 24.71 21.84 25.46 23.40 13.63 13.38 11.05 14.98 19.09 23.57 22.05 23.99 25.16 26.23 25.95 30.85 33.18 33.84
28.03 30.76 33.73 35.75 35.01 33.75 32.83 34.29 35.20 27.59 26.19 25.04 25.25 24.91 24.74 24.72 23.57 23.89 24.80 23.30 19.47 23.89 26.48 21.12 26.39 22.69 12.82 14.71 16.08 21.87 24.52 22.65 25.17 19.40 19.96 21.20 25.20 30.33
31.83 30.91 32.98 33.24 32.70 30.76 31.66 31.39 29.04 27.12 25.75 25.37 25.44 25.16 24.47 21.01 21.37 20.84 16.20 18.00 23.33 25.70 26.68 29.35 27.91 20.04 13.27 14.43 17.86 20.10 23.57 21.27 17.29 19.68 21.37 21.78 26.11 30.53
28.23 28.33 27.82 27.41 27.41 26.86 26.42 27.68 28.49 28.42 26.64 25.75 25.49 25.55 25.98 24.77 23.85 17.97 18.10 20.99 23.66 23.20 24.19 24.74 29.54 27.08 26.25 25.57 23.15 23.63 24.62 24.57 19.54 21.33 19.85 23.12 22.81 26.58
28.37 26.67 26.55 25.98 25.63 26.61 25.49 25.20 27.16 29.29 26.88 26.38 25.82 26.22 25.03 23.16 21.76 19.12 20.27 21.37 21.93 19.09 22.07 24.13 26.09 25.46 25.30 24.40 28.68 24.51 24.69 22.11 19.13 21.06 21.49 18.81 24.41 24.92
28.46 26.46 25.85 25.58 25.04 25.13 25.29 25.18 25.18 27.17 26.31 25.54 24.12 24.10 22.75 20.25 25.72 20.01 17.57 17.89 17.44 17.60 19.90 22.95 23.64 21.33 16.86 16.42 22.19 29.71 24.24 22.77 24.75 23.00 21.79 21.22 22.43 24.57
30.07 27.42 25.73 25.10 24.65 24.73 25.10 25.18 25.19 25.33 24.94 24.30 23.90 23.79 22.69 19.93 17.51 16.92 17.14 15.92 15.32 14.02 14.24 15.53 19.53 16.41 16.29 14.70 13.12 18.20 28.24 15.61 15.31 14.93 19.56 23.18 24.96 29.46
30.17 28.35 28.07 27.19 26.35 26.05 25.47 25.19 24.99 24.65 24.68 24.19 24.42 23.47 23.05 22.38 19.73 21.93 20.00 25.72 22.37 14.71 16.59 15.75 19.79 27.29 16.98 20.30 20.70 20.66 21.18 28.33 25.53 16.35 17.84 22.37 21.74 21.93
29.63 29.20 28.67 28.09 27.71 27.09 26.37 25.69 24.58 25.34 26.14 24.27 24.30 23.89 23.79 23.23 23.99 22.00 21.44 21.66 22.48 20.98 19.66 13.58 13.91 12.05 11.67 18.23 19.44 18.38 18.64 22.19 25.87 28.12 28.85 27.74 22.68 20.03
29.58 29.33 29.29 28.88 28.71 28.58 28.11 26.57 25.60 25.31 25.92 25.92 24.34 23.68 23.78 23.15 24.67 24.58 23.93 23.39 22.85 20.99 19.32 15.11 15.16 15.20 18.30 17.14 21.10 19.22 19.36 19.35 21.70 21.72 23.46 29.10 29.94 30.40

GFSNE_sfc_wetblb_102.txt.gz
Wetbulb
59.59 59.23 58.54 57.62 57.29 57.23 57.04 56.04 55.31 49.33 48.77 43.85 42.90 44.80 45.48 46.07 46.74 46.66 47.44 50.83 51.86 52.27 52.06 51.90 51.26 51.46 52.01 52.23 52.09 51.61 50.90 49.78 49.23 49.15 49.11 48.56 48.36 48.69
54.98 55.82 56.36 55.06 55.34 54.29 54.94 54.43 53.71 52.86 49.02 44.71 43.03 43.55 44.62 44.56 46.06 44.83 45.59 46.74 49.64 49.82 49.35 48.93 48.67 48.62 48.92 49.05 49.05 48.83 48.67 48.53 48.36 48.02 47.49 47.30 47.66 47.66
52.57 53.34 53.62 52.45 51.68 51.06 50.55 50.23 51.25 51.40 48.91 40.38 41.79 42.80 42.79 43.14 43.38 43.64 43.37 42.23 43.89 46.56 46.90 46.60 46.24 46.26 46.76 47.13 47.36 47.10 46.84 46.63 45.99 45.35 45.55 45.95 46.40 45.89
51.84 49.92 50.78 49.30 49.27 48.65 48.65 48.54 48.29 48.34 46.44 40.73 39.76 40.32 41.06 42.51 42.35 40.44 40.68 41.20 41.65 44.40 45.41 45.50 45.49 45.15 44.88 44.56 44.06 43.59 43.29 43.63 44.11 43.79 43.70 43.65 43.43 43.31
50.06 48.49 48.63 47.79 46.87 46.44 46.44 45.90 45.73 45.07 44.56 41.52 38.74 40.13 39.68 40.85 40.16 39.52 37.45 35.93 37.86 41.32 41.97 42.12 41.61 41.52 41.83 41.81 41.55 41.58 41.84 41.55 41.14 41.24 41.40 41.60 41.71 42.02
46.82 46.62 46.60 46.30 45.83 44.89 44.09 43.47 42.74 42.66 42.63 40.37 38.82 38.13 38.38 39.22 38.88 35.72 34.09 33.61 30.15 33.86 36.07 36.06 37.22 38.74 39.03 39.42 39.27 38.60 38.62 39.55 39.94 39.95 39.94 40.16 40.56 41.24
41.32 41.89 42.67 43.99 45.25 44.53 42.82 41.52 40.87 40.11 39.22 39.50 37.79 37.56 36.00 35.77 35.94 34.47 31.83 28.39 27.48 28.35 28.20 28.65 29.19 28.76 30.32 37.55 37.07 37.82 37.61 38.13 38.58 39.57 40.04 40.22 40.54 41.05
37.08 38.90 40.29 42.60 43.54 44.54 43.67 42.85 40.98 36.63 34.69 36.96 36.23 34.81 34.48 34.12 32.29 30.63 27.52 24.82 25.39 29.05 27.03 26.61 27.92 27.27 28.89 29.24 37.73 38.16 37.61 37.92 38.68 39.28 39.42 39.56 39.77 40.17
36.34 36.80 37.52 39.24 39.80 40.15 41.75 41.41 42.35 42.89 40.32 36.26 35.33 34.55 31.52 31.11 28.89 26.92 27.16 25.57 25.13 27.73 26.82 25.94 27.31 26.75 28.45 31.57 37.91 36.89 36.65 37.59 38.11 38.66 39.15 38.72 38.09 38.37
37.99 37.85 37.49 35.70 35.43 34.20 32.11 31.22 30.49 30.20 32.97 35.32 35.20 32.49 30.91 30.28 30.67 29.86 28.38 27.02 27.08 27.62 26.82 23.60 26.51 26.60 27.71 28.31 36.83 35.83 35.98 37.75 37.75 38.51 38.26 37.33 37.35 37.68
36.59 36.26 36.05 34.71 38.04 36.56 30.19 29.53 29.85 31.13 36.80 36.94 35.88 36.40 36.54 35.91 32.85 29.29 27.57 27.37 25.14 25.73 26.85 25.47 24.71 25.00 25.88 26.84 27.85 35.46 36.12 36.21 37.77 37.97 37.37 37.33 37.64 37.59
32.41 33.30 37.88 34.64 38.14 37.65 29.71 27.65 28.87 29.63 29.82 30.69 31.20 32.49 33.55 34.35 35.36 29.40 28.62 25.20 23.43 22.51 26.29 22.82 22.52 22.34 18.54 24.90 26.45 26.69 27.35 34.96 35.61 36.15 36.45 36.62 36.86 30.70
30.75 30.49 31.86 37.14 37.40 38.05 34.19 28.33 28.16 29.56 31.40 28.08 27.37 26.91 27.29 27.95 28.45 28.69 28.21 24.94 18.97 18.74 27.62 21.61 12.34 17.58 14.98 19.41 23.03 25.40 25.65 26.13 26.32 27.62 32.24 33.76 34.95 34.34
29.88 30.35 30.87 37.04 36.50 36.61 33.93 33.56 35.00 33.43 27.48 26.15 26.86 26.60 26.39 26.25 26.63 27.68 27.85 26.91 26.21 24.19 25.87 19.99 12.56 13.17 8.59 12.37 18.46 23.01 21.32 22.70 25.14 25.84 25.65 30.01 32.62 33.54
30.08 31.36 33.32 35.99 36.53 34.07 34.40 33.72 35.42 27.80 26.74 25.25 25.37 25.42 26.21 26.24 25.57 25.92 26.18 25.24 22.74 25.21 26.17 17.87 17.73 13.89 11.00 9.56 12.72 17.81 20.43 21.35 22.59 18.25 18.42 20.37 21.91 25.18
32.35 31.44 33.33 33.74 33.86 31.32 31.46 31.33 28.58 27.24 26.41 26.12 25.80 26.20 25.41 24.61 24.54 23.69 20.03 19.13 18.83 20.01 26.09 23.50 26.28 24.54 18.39 20.08 13.95 14.87 17.98 17.91 17.38 18.20 19.45 19.51 21.58 24.86
28.86 27.88 27.90 27.96 27.51 27.26 27.75 28.07 28.64 28.19 26.85 25.96 25.95 25.82 26.40 26.05 25.29 21.44 20.26 17.52 16.39 16.67 21.31 24.65 28.83 27.13 24.31 21.11 20.67 21.53 18.78 24.58 25.78 19.15 18.17 16.10 21.23 25.14
29.12 27.15 27.04 26.71 27.00 27.45 26.43 25.81 27.07 29.76 27.80 26.46 25.60 26.57 26.63 25.36 23.82 19.37 18.50 18.23 17.03 18.53 15.26 17.13 22.30 25.23 26.07 23.35 28.14 21.64 25.11 24.43 24.29 19.46 20.04 21.37 21.93 23.67
29.12 26.52 26.54 27.02 26.91 26.35 26.58 25.39 25.10 27.30 26.87 26.53 24.18 26.36 26.29 25.67 27.14 21.57 20.52 19.18 17.69 16.11 14.86 14.47 15.41 21.07 19.33 16.74 21.28 29.92 23.10 20.12 19.04 19.63 21.45 20.85 20.86 23.04
30.82 28.49 27.19 26.96 26.41 26.07 25.82 25.59 25.49 25.29 26.39 25.99 25.53 25.35 25.41 23.66 22.09 21.11 21.55 21.42 18.78 14.63 14.12 11.58 13.94 14.67 16.16 15.24 12.87 16.90 28.66 15.22 16.78 14.00 17.58 22.03 23.89 28.55
30.40 29.70 29.37 27.97 26.71 26.07 25.62 25.13 25.16 24.76 24.86 24.71 25.29 24.93 24.43 24.24 24.39 23.29 23.57 26.31 23.83 16.86 17.80 16.66 21.11 27.95 20.38 20.65 20.06 19.13 21.76 28.58 25.80 16.51 15.73 16.70 20.05 21.52
30.28 30.13 29.24 28.43 28.09 27.79 26.95 25.92 24.73 25.35 25.61 24.86 24.43 24.92 25.27 25.34 25.26 24.36 23.59 22.17 24.63 23.77 21.88 19.92 16.46 17.99 18.71 20.64 20.63 20.22 17.50 21.80 25.95 28.03 28.47 26.64 19.53 19.07
30.33 30.18 29.83 29.49 28.95 28.57 28.08 27.27 26.40 25.97 25.87 26.18 25.14 25.04 25.11 23.90 25.32 25.64 23.93 23.58 23.72 23.09 22.56 19.92 18.70 17.56 18.57 19.88 21.66 20.54 20.12 18.65 21.09 21.81 22.59 27.86 29.14 29.96

GFSNE_sfc_wetblb_105.txt.gz
Wetbulb
58.63 58.84 58.83 59.31 59.22 58.98 56.92 55.02 54.28 49.69 48.57 44.67 43.42 44.42 45.49 46.75 47.55 47.59 48.27 51.62 52.31 52.48 52.46 52.52 51.77 51.65 52.40 53.09 53.23 53.10 52.33 51.44 51.17 50.81 50.53 49.62 49.29 49.41
52.47 53.18 53.83 55.24 56.25 56.20 56.17 55.94 54.48 53.97 50.76 44.93 43.63 43.81 45.10 45.52 46.84 45.49 46.50 48.50 50.32 50.10 49.92 49.54 49.28 49.15 49.50 49.91 50.07 50.12 50.00 50.06 50.05 49.58 48.94 48.58 48.85 48.60
52.00 52.26 52.67 53.41 52.78 52.59 52.04 52.08 52.50 52.47 50.07 40.89 42.23 43.18 43.38 43.76 44.08 44.34 43.91 43.56 44.89 47.56 47.81 47.48 47.30 47.24 47.63 48.32 48.38 48.40 48.46 48.29 47.44 46.89 46.95 47.20 47.50 46.60
50.92 51.21 50.97 50.26 50.24 50.10 49.82 50.08 49.80 49.52 47.32 40.99 40.02 41.03 41.66 43.05 42.53 41.71 41.77 41.28 42.38 45.38 46.19 46.65 46.74 46.33 46.05 45.75 45.30 44.94 44.71 45.09 45.55 44.77 45.37 45.13 44.61 43.93
47.65 49.36 48.82 48.60 48.15 47.47 46.89 46.67 46.62 46.08 45.37 42.26 38.96 40.62 40.45 42.19 40.53 39.52 37.90 36.62 39.05 43.74 44.25 44.24 43.79 43.43 43.26 42.94 42.95 42.76 43.07 42.44 42.03 41.96 42.19 42.34 42.20 42.31
43.40 43.83 44.04 45.54 45.95 45.90 45.04 44.77 44.25 44.00 43.50 41.36 39.67 38.60 38.91 39.86 39.66 36.46 34.19 33.96 32.83 34.64 36.92 36.88 37.64 40.22 40.67 40.53 40.11 39.31 39.47 40.06 40.32 40.48 40.36 40.36 40.61 41.36
39.35 39.66 40.69 42.65 45.08 45.54 43.91 43.17 42.48 42.07 41.69 40.05 38.46 37.83 35.48 37.01 36.83 35.25 33.21 30.85 30.00 28.63 28.43 29.48 30.16 29.62 31.18 37.73 37.52 38.06 37.83 38.41 38.94 39.54 40.43 40.52 40.71 41.12
36.67 36.96 38.19 40.96 42.28 45.03 44.73 43.89 42.70 40.42 38.35 38.18 37.20 35.93 35.66 35.81 34.02 33.63 30.26 29.33 27.63 28.59 27.20 27.45 28.62 28.17 29.30 29.33 37.40 38.42 38.11 38.22 38.69 39.66 39.68 39.67 40.03 40.39
37.94 37.54 38.23 39.38 39.81 40.02 41.07 41.17 41.67 43.01 41.69 38.00 36.65 36.70 34.94 34.71 33.19 30.92 29.87 28.22 26.83 27.43 27.10 25.87 27.62 27.41 28.95 31.26 38.47 37.67 36.89 37.36 38.13 38.98 39.65 39.53 38.71 38.66
38.27 38.13 37.79 37.14 36.59 36.10 34.03 33.39 32.64 32.63 33.97 36.74 36.59 36.67 35.00 32.85 33.98 30.96 29.57 27.41 27.53 27.64 27.37 24.44 27.19 26.91 28.26 28.66 37.07 36.58 36.16 37.25 38.40 38.92 39.55 38.50 37.59 37.64
36.90 36.88 36.82 35.90 37.57 37.61 32.79 32.10 31.45 32.05 36.88 37.44 36.97 37.31 37.14 36.84 33.29 30.21 28.17 27.64 25.22 26.12 27.34 26.85 26.14 25.93 26.48 27.52 28.50 36.00 36.35 36.46 38.14 38.88 38.42 37.29 37.60 37.70
33.88 33.74 38.02 36.34 38.05 37.93 31.11 30.67 30.23 30.12 30.37 31.60 29.80 32.44 34.12 35.22 35.77 29.66 29.25 26.20 23.88 23.67 27.05 24.95 24.47 24.08 21.21 25.56 26.79 26.61 27.33 35.19 36.43 36.62 36.59 36.62 36.68 30.59
31.33 31.35 31.89 37.92 38.28 38.87 35.18 29.72 30.06 31.28 32.31 27.98 27.31 28.08 27.86 28.83 28.78 28.49 28.64 26.40 23.51 21.03 28.33 23.45 16.05 20.31 17.48 21.19 23.42 25.41 25.47 25.92 26.21 27.46 31.76 33.18 34.74 33.82
30.40 30.96 31.27 35.58 37.65 37.66 36.79 34.33 34.95 33.77 26.92 27.23 26.39 25.89 26.64 26.59 27.45 27.30 27.89 27.64 27.72 25.77 29.04 22.42 16.79 16.19 13.31 13.85 18.93 22.78 21.08 22.25 24.98 25.48 25.33 29.41 31.28 32.50
29.99 31.82 34.76 35.24 37.64 35.22 35.84 34.24 35.26 28.34 26.26 25.42 25.67 26.28 26.69 26.78 25.85 26.01 26.59 26.18 25.08 27.94 26.53 20.44 19.55 13.51 13.45 9.85 12.75 17.36 18.63 20.64 22.06 17.97 17.43 20.19 21.86 24.23
34.32 31.65 33.10 34.19 34.93 33.12 32.90 30.37 28.46 27.56 26.11 25.15 26.02 26.55 26.00 24.59 24.43 24.57 22.50 20.94 21.58 23.09 26.71 22.02 22.31 20.37 16.63 19.77 13.21 13.70 16.85 14.99 18.24 17.57 19.17 19.10 20.66 23.19
30.16 26.96 27.12 28.81 29.68 28.81 27.99 28.11 27.75 27.94 26.46 26.34 25.36 25.27 26.15 25.84 25.10 23.17 21.05 21.36 21.34 21.06 21.11 25.06 27.51 26.04 22.94 17.12 12.05 17.79 17.83 15.62 21.79 21.11 17.79 14.65 20.65 24.01
30.36 25.75 25.64 27.24 28.13 28.20 27.55 26.79 27.10 29.25 27.59 26.48 26.18 26.71 26.58 25.68 25.07 22.32 21.53 21.96 21.36 22.41 22.29 22.86 22.98 22.84 23.88 22.88 27.11 17.52 19.08 22.34 25.65 24.83 20.11 21.58 20.91 23.25
30.29 26.42 26.01 26.23 27.06 27.08 26.72 26.51 26.43 27.31 27.65 27.13 25.90 25.67 24.88 25.40 27.20 23.47 23.29 22.85 22.04 21.97 21.13 19.09 15.47 17.46 15.17 15.79 20.99 30.16 21.83 22.91 23.67 22.02 22.76 22.02 19.52 22.54
29.03 29.27 26.45 26.31 26.34 26.26 26.54 26.56 26.40 25.57 26.82 27.20 26.19 25.68 26.18 25.09 24.87 24.18 23.61 22.72 22.67 20.50 16.46 14.27 16.46 19.11 18.00 16.44 14.65 17.26 28.53 19.92 20.43 18.66 19.56 22.85 24.00 28.09
29.41 29.34 28.33 27.91 27.65 26.92 26.13 25.56 25.33 24.49 24.70 24.95 26.06 26.07 25.74 25.14 24.48 25.43 24.42 26.61 25.24 22.12 20.09 19.42 21.33 27.63 18.27 20.00 19.41 20.27 21.47 28.77 25.45 18.30 17.44 15.80 18.21 21.14
29.56 29.15 29.45 29.61 28.85 27.62 27.29 26.08 24.80 25.44 26.00 25.29 24.97 25.49 25.53 25.03 24.71 24.74 24.51 24.65 26.32 25.42 23.00 16.76 15.36 18.79 18.35 20.55 20.43 19.91 19.37 22.32 26.73 28.91 28.67 25.01 15.49 14.75
31.82 29.36 29.61 29.02 29.28 29.21 28.38 27.85 26.50 25.92 24.98 25.07 24.31 24.11 24.50 23.86 25.32 25.83 25.29 25.03 24.86 24.97 24.43 19.80 17.13 18.98 20.11 21.48 22.55 21.75 20.03 18.78 20.88 21.43 22.62 27.75 29.11 29.77

GFSNE_sfc_wetblb_108.txt.gz
Wetbulb
57.74 57.70 57.64 57.83 58.29 58.51 58.45 57.65 54.88 52.07 49.50 47.36 44.80 45.07 46.07 47.65 48.47 48.40 49.59 52.76 52.98 52.88 52.83 52.87 52.60 52.15 52.65 53.51 54.52 54.26 53.92 53.56 53.16 52.67 52.07 51.47 51.02 51.40
50.65 51.79 52.46 52.43 53.34 53.65 55.54 56.17 55.79 55.06 52.58 46.57 44.71 44.41 45.84 46.02 47.79 46.65 47.97 49.83 51.19 51.20 50.53 50.10 50.44 50.02 50.20 50.62 51.18 51.43 51.58 51.72 51.91 51.76 50.85 50.58 50.75 49.88
49.92 52.15 51.93 52.17 50.58 50.94 51.86 51.99 52.40 52.80 51.71 41.75 42.89 43.79 44.06 44.59 44.96 44.93 44.90 44.83 46.66 49.02 48.74 48.38 48.54 48.58 48.94 49.30 49.65 49.84 49.99 50.11 49.85 49.37 49.28 49.76 48.99 47.83
47.17 49.49 50.16 50.21 48.54 49.69 49.82 49.52 49.52 50.38 48.90 43.46 40.66 41.61 42.32 43.72 43.24 42.37 41.40 42.25 43.69 46.76 47.35 47.68 48.01 47.79 47.53 47.04 46.74 46.61 46.51 47.10 47.00 47.29 48.26 47.34 46.34 45.39
44.25 44.36 46.01 45.83 45.33 46.55 47.38 46.75 46.75 46.62 46.23 42.78 39.40 41.04 41.16 42.71 40.99 40.10 38.77 38.72 40.65 46.19 46.43 46.13 45.90 45.17 44.69 44.38 44.33 44.64 44.40 43.86 43.72 43.98 44.46 44.20 43.76 43.49
40.79 40.62 40.53 40.94 42.22 45.18 45.31 45.25 44.86 44.60 44.05 42.25 40.30 39.13 39.61 41.13 40.21 36.77 34.34 34.65 33.39 35.82 38.67 38.06 40.40 42.08 42.58 42.14 41.80 41.54 41.50 41.31 41.44 41.62 41.64 41.67 41.70 42.44
38.03 38.35 38.66 41.13 44.03 44.96 44.07 43.05 43.15 42.78 42.57 41.12 39.42 38.50 37.32 37.81 37.76 36.67 34.05 31.54 30.89 31.34 31.11 31.37 31.00 30.44 33.42 38.56 38.96 38.64 38.79 39.59 40.16 40.53 41.18 41.55 41.50 41.70
36.00 36.33 37.06 39.79 41.29 44.08 45.10 44.67 43.65 41.23 39.32 38.62 37.83 37.05 36.54 36.88 35.53 35.01 31.39 30.27 29.71 30.66 29.44 28.23 29.38 28.45 30.24 31.11 37.78 38.41 38.42 38.74 39.26 40.59 40.59 40.36 40.30 40.62
35.25 35.42 37.47 38.94 39.61 39.50 39.88 40.26 40.57 42.04 43.32 39.76 37.86 37.85 36.53 35.75 35.11 32.61 31.54 31.24 30.42 28.89 27.62 26.01 27.80 28.02 29.86 31.59 38.62 38.77 37.96 37.75 38.40 39.65 40.02 39.83 39.84 39.73
34.57 35.04 36.70 37.20 37.34 37.87 35.33 34.49 33.62 33.95 34.84 37.91 37.80 38.58 38.04 36.78 36.78 35.18 32.43 29.23 29.04 28.72 27.95 25.60 27.57 27.35 28.98 29.50 37.51 37.83 37.11 37.38 38.62 39.15 39.48 39.98 38.63 38.26
34.95 36.60 36.95 36.48 38.14 39.44 33.71 32.85 32.03 32.48 36.62 38.32 38.09 38.17 38.34 38.53 34.94 32.53 30.09 30.20 27.17 26.60 27.70 27.90 26.80 26.77 27.82 28.49 29.59 36.41 36.37 36.98 38.53 39.24 39.84 38.66 38.08 37.95
32.21 33.94 36.01 38.33 38.74 39.33 32.06 31.16 30.67 31.22 32.06 32.16 31.64 31.87 33.18 35.76 36.00 29.77 29.95 27.74 24.52 23.85 28.11 26.47 25.41 25.97 24.61 26.71 27.69 27.92 28.90 36.11 37.73 38.88 38.56 38.09 37.29 32.02
30.24 30.25 32.04 35.76 38.73 38.99 36.73 30.02 30.28 31.93 33.27 29.72 29.37 28.43 28.53 29.08 28.73 28.62 29.06 24.48 22.45 23.77 28.70 24.91 21.65 23.55 22.05 24.06 25.25 26.76 27.16 27.14 27.25 28.14 32.78 33.63 35.17 33.87
31.25 29.30 29.81 35.32 36.57 37.91 37.17 36.33 35.64 34.23 29.76 28.78 28.15 26.65 26.28 25.76 27.37 28.09 28.58 28.34 27.35 26.51 30.07 25.44 20.66 21.61 19.40 19.06 22.22 24.31 23.62 24.33 25.98 25.92 25.70 29.96 31.71 32.45
31.74 31.84 34.82 35.41 36.10 36.60 36.72 36.09 35.13 30.35 27.74 27.37 27.10 23.46 26.74 27.06 25.53 25.54 26.81 27.20 26.63 28.02 27.11 23.61 22.57 17.47 18.62 16.53 18.33 20.73 21.11 23.31 23.28 18.70 17.97 21.13 22.93 24.80
36.31 32.52 32.64 33.49 34.82 33.50 33.65 31.82 29.45 29.71 27.65 25.37 23.35 24.06 25.67 22.78 24.06 25.15 22.02 22.66 21.08 21.88 27.30 23.36 22.99 22.30 19.14 18.84 16.70 17.70 20.42 19.41 18.40 18.59 19.57 19.77 21.28 23.30
33.47 27.13 26.26 27.06 27.87 28.34 28.07 28.12 27.61 28.47 26.65 25.02 24.69 24.69 25.58 25.48 25.63 21.53 22.64 21.79 20.86 21.46 22.33 25.72 27.25 25.58 22.36 20.31 18.08 20.49 20.26 18.68 20.74 19.92 18.84 15.62 21.33 23.67
33.21 27.71 24.99 24.80 25.80 27.66 27.44 26.69 26.93 28.64 27.17 26.86 26.34 26.13 25.19 24.11 24.30 23.07 21.79 18.45 19.70 21.05 21.97 23.66 26.01 25.56 25.03 24.12 26.25 17.95 17.93 16.46 20.77 26.11 24.17 21.64 22.45 24.08
33.83 29.25 25.35 25.28 25.16 26.25 26.43 25.95 24.77 26.40 26.06 26.30 24.25 23.96 25.20 25.47 26.94 23.51 22.47 21.74 20.75 22.65 23.30 22.79 21.18 21.06 16.17 15.63 21.54 29.39 19.35 18.31 23.21 23.62 22.54 22.27 20.17 22.94
31.80 30.87 28.61 25.68 25.44 24.65 25.81 25.33 25.03 24.79 26.19 27.05 26.04 25.02 25.29 24.94 24.28 22.74 24.15 23.19 23.20 22.99 22.26 21.23 20.88 19.89 19.45 17.92 14.23 16.30 28.87 17.69 19.42 18.44 20.78 23.85 24.92 28.60
31.59 29.92 27.80 26.78 25.96 24.89 25.01 25.20 25.87 24.55 25.11 26.14 26.31 25.77 25.20 25.31 24.87 25.68 24.79 27.14 26.09 23.49 22.35 22.34 21.93 27.81 22.39 21.07 19.59 18.16 21.07 29.12 25.17 19.68 18.50 18.04 19.20 21.74
32.02 30.76 30.08 28.82 27.85 26.72 24.73 25.67 25.01 25.91 25.60 24.34 24.04 25.25 25.92 26.11 25.70 25.21 25.23 24.22 26.61 25.97 24.34 24.02 20.07 22.42 20.53 20.97 19.99 16.96 17.27 22.24 27.55 30.09 29.32 25.78 16.04 13.28
33.00 32.11 30.88 30.47 30.64 28.08 27.71 26.72 26.22 27.05 26.08 26.52 25.51 23.95 24.06 24.11 25.69 26.12 25.80 25.29 25.45 25.90 26.19 23.37 20.25 21.35 22.21 22.49 22.33 20.93 19.29 19.32 21.59 21.61 23.51 28.66 29.94 30.38

GFSNE_sfc_wetblb_111.txt.gz
Wetbulb
58.35 57.99 57.45 57.53 57.51 58.19 58.29 57.89 55.72 51.88 52.23 52.74 50.66 48.27 49.41 49.64 50.12 51.10 50.98 53.90 54.12 54.18 53.93 53.65 53.45 53.33 53.42 54.04 55.11 55.66 55.98 55.29 54.50 54.12 53.66 53.63 53.70 53.27
54.32 53.85 53.60 54.11 54.88 55.67 56.21 55.93 55.64 53.46 50.79 52.47 50.10 47.87 48.22 48.04 49.25 48.85 49.71 50.83 52.19 52.12 51.78 51.40 51.49 51.40 51.38 51.75 52.48 53.42 53.90 53.97 53.80 53.58 53.15 52.94 53.10 51.43
53.10 53.37 52.26 53.17 53.48 54.04 54.31 54.33 53.89 54.02 51.61 46.13 45.64 45.66 45.48 46.32 46.53 46.55 46.78 47.02 49.06 50.07 49.94 49.70 49.57 50.14 50.51 50.49 50.91 51.65 52.24 52.58 52.32 52.13 52.16 52.26 51.33 49.30
50.05 51.07 50.92 50.81 51.25 51.65 52.03 51.74 51.44 50.92 50.05 48.44 43.02 43.37 44.56 45.87 46.06 43.91 42.73 44.02 45.65 47.81 48.65 48.81 49.12 49.27 49.12 48.66 48.92 48.65 48.86 49.07 49.41 49.65 50.58 50.30 49.07 47.40
46.96 47.19 46.74 47.31 47.87 48.82 48.93 49.52 49.27 48.11 47.52 44.65 41.43 41.95 42.25 43.82 42.67 41.72 40.45 40.90 43.01 47.07 48.07 47.99 47.62 47.21 46.74 45.99 45.94 46.51 46.40 46.02 46.26 47.55 47.59 46.94 46.39 45.78
43.85 43.85 43.89 44.31 44.90 46.13 46.67 46.80 46.68 46.62 45.89 44.12 41.62 40.53 41.13 42.64 41.82 38.35 36.12 36.97 35.79 37.71 41.07 42.14 43.48 44.80 44.87 44.59 44.37 43.82 43.28 43.26 43.33 44.02 44.03 43.52 43.37 44.25
41.74 41.62 42.27 42.69 43.25 45.29 45.77 45.86 45.62 44.97 44.50 43.24 40.69 39.79 38.86 38.84 39.04 38.21 35.83 33.39 32.98 34.20 35.19 35.10 35.40 36.77 39.08 41.86 40.63 40.18 40.88 41.44 41.70 41.89 42.01 42.12 42.53 43.34
40.24 40.71 40.97 41.25 42.33 43.50 44.79 44.52 44.90 44.02 42.76 41.32 40.16 38.62 38.95 38.90 37.70 36.57 33.02 31.93 31.21 34.18 33.62 31.98 33.00 33.41 35.24 38.04 38.41 39.11 39.33 39.90 40.44 41.32 41.95 41.85 41.95 42.28
38.89 39.31 39.91 40.39 40.68 40.79 40.82 40.15 39.52 40.54 42.06 42.62 40.32 40.30 39.20 38.78 37.72 35.79 34.12 34.82 34.62 31.40 32.27 31.41 32.88 33.41 34.34 34.56 37.88 39.49 39.43 39.50 40.07 41.15 41.00 40.65 40.90 41.47
38.19 38.64 39.19 39.52 39.69 40.21 38.82 37.22 35.46 35.28 36.51 36.59 39.50 40.23 40.01 39.24 38.61 37.95 36.31 31.69 30.39 30.09 31.40 32.04 32.28 32.27 33.71 35.57 37.67 39.46 38.55 38.56 39.02 39.81 40.68 40.72 40.12 39.89
37.68 38.22 38.25 38.52 38.86 40.15 36.45 35.38 34.07 33.93 36.69 39.66 39.37 39.25 39.39 40.38 37.30 34.58 32.66 32.40 29.35 29.44 30.18 32.54 30.77 31.18 32.29 32.96 35.34 38.83 37.54 37.78 38.84 39.73 40.18 40.63 39.36 38.91
36.03 36.16 36.21 37.58 40.06 39.77 35.47 34.37 32.88 32.73 33.15 33.00 32.52 33.57 34.65 37.82 36.56 34.02 34.65 33.61 30.60 29.80 31.29 32.46 29.93 30.80 30.17 31.68 32.82 34.27 35.98 37.24 38.44 40.23 40.33 39.36 38.81 37.79
35.60 34.41 34.94 36.48 37.63 39.38 38.79 33.87 32.93 33.16 34.35 31.52 30.86 30.74 31.03 31.27 30.64 31.54 33.19 34.68 32.37 32.61 31.74 31.97 30.15 29.17 30.06 29.06 30.09 31.46 32.64 33.66 33.93 35.15 36.28 36.77 37.29 36.95
35.72 34.30 33.44 35.89 36.79 37.92 38.31 37.42 37.11 34.90 31.97 30.44 29.97 29.72 29.57 30.18 30.81 30.55 31.02 31.66 32.50 32.93 33.83 31.82 30.17 30.52 29.76 28.49 28.81 28.76 29.71 30.57 31.46 31.92 32.28 32.50 34.38 35.66
35.31 34.49 35.20 35.82 36.01 36.33 37.63 37.61 37.22 32.81 30.44 29.46 29.26 29.28 29.78 30.65 29.70 29.49 30.16 30.34 30.52 30.99 30.24 29.26 30.19 27.08 29.31 29.81 27.86 27.60 27.97 29.02 29.75 30.37 29.66 30.67 31.92 32.17
38.48 35.82 35.18 34.89 34.68 34.40 35.50 34.29 32.44 32.71 31.18 30.34 29.47 29.57 29.15 29.05 28.86 29.18 28.74 28.66 29.13 28.47 28.70 28.51 28.21 28.48 27.13 27.58 27.84 26.85 27.68 27.57 27.50 28.16 28.84 29.30 29.75 30.43
34.98 31.30 30.41 30.37 30.63 31.42 31.92 31.85 31.25 30.90 31.01 30.11 29.45 28.58 28.46 28.49 28.32 28.08 27.92 27.60 28.05 27.23 27.06 28.40 28.69 28.58 28.52 27.31 25.67 26.25 26.61 26.34 27.44 27.98 27.15 27.49 29.49 30.38
34.47 31.15 30.37 29.77 29.41 29.72 30.13 30.76 30.58 30.87 30.27 30.30 29.47 29.21 28.63 28.28 27.96 27.21 27.45 27.43 26.78 26.39 26.83 27.73 28.30 27.64 27.80 28.29 29.36 26.46 25.78 26.08 27.12 27.97 27.88 25.21 26.78 30.07
34.68 31.65 30.68 29.67 29.54 29.47 29.77 29.88 29.88 30.37 30.57 30.38 30.03 29.36 28.85 28.24 28.85 27.15 27.00 27.02 26.61 26.99 26.87 27.12 27.33 26.27 24.22 24.26 26.39 30.16 26.97 26.32 27.10 26.93 27.06 25.39 26.71 29.22
33.75 33.18 31.55 30.36 29.20 29.93 29.82 29.59 29.67 29.58 29.30 29.67 29.52 29.24 28.63 28.32 27.66 27.37 27.04 26.54 26.81 26.94 26.40 26.45 25.85 26.06 24.56 25.09 24.97 26.58 29.26 26.86 26.51 25.91 25.65 27.05 28.21 30.03
33.84 32.87 32.35 31.41 30.94 30.38 30.23 29.73 29.25 29.02 28.95 28.62 29.04 28.85 28.69 28.70 27.69 28.39 27.85 28.12 27.73 26.88 25.73 26.07 27.04 29.67 28.19 26.35 23.72 24.39 26.57 29.65 28.86 27.21 26.60 26.00 25.02 25.71
33.35 33.07 32.23 31.26 30.76 30.77 30.41 29.52 28.62 28.69 29.28 28.35 28.20 28.73 28.62 28.54 28.12 28.01 28.13 27.55 28.54 28.33 27.39 29.42 28.16 28.46 24.72 24.43 24.29 25.03 24.84 26.35 29.09 30.32 29.72 28.74 26.32 24.29
33.16 33.53 33.20 32.09 32.05 31.72 30.96 29.83 28.97 29.40 28.88 29.03 28.68 27.77 27.85 27.20 28.22 28.65 28.46 28.03 28.35 28.24 28.92 26.97 25.43 26.28 25.67 25.16 25.42 24.90 24.24 24.53 25.80 25.62 26.97 30.99 31.31 30.77

GFSNE_sfc_wetblb_114.txt.gz
Wetbulb
60.70 60.41 59.46 59.56 58.62 59.24 59.07 58.55 56.48 52.46 52.99 56.92 56.47 53.72 54.21 53.89 53.26 53.69 54.69 53.83 54.66 55.00 54.71 54.11 54.01 53.95 54.21 54.94 55.42 56.03 58.57 60.35 59.58 57.54 56.35 55.86 56.30 55.55
58.34 57.38 56.03 55.79 56.36 57.20 56.94 55.80 55.16 54.22 50.39 56.32 56.13 53.86 52.90 51.55 51.98 53.12 53.02 51.73 52.97 52.98 52.34 51.96 51.96 51.91 52.13 52.92 53.57 54.62 54.92 55.14 55.30 55.21 55.02 55.41 54.72 53.53
56.00 55.29 54.50 54.75 55.24 55.42 55.67 55.37 53.70 54.37 52.16 51.99 52.29 50.73 48.28 50.03 49.27 49.73 49.96 50.35 51.13 51.05 50.71 50.36 50.16 50.64 51.05 51.41 52.20 52.89 54.05 54.28 54.17 54.06 53.97 54.37 52.96 51.54
53.64 53.74 52.79 51.94 53.06 53.78 54.24 53.34 52.53 53.53 51.25 50.41 48.14 46.76 47.40 48.50 48.17 46.62 45.29 45.76 47.37 48.74 49.24 49.03 49.69 49.90 49.89 50.16 49.60 49.81 50.76 52.00 52.06 52.18 52.95 52.47 50.83 49.36
51.36 51.35 50.54 50.88 50.91 51.16 50.53 49.84 50.38 49.94 50.05 48.79 46.76 44.01 44.45 45.39 44.21 42.93 42.22 42.65 43.73 46.37 48.35 48.93 48.78 48.58 47.88 47.50 47.30 47.78 47.45 47.30 48.73 50.39 51.00 49.72 48.42 47.78
48.17 48.19 48.04 48.17 48.55 49.10 49.48 49.58 48.33 48.57 48.61 47.10 44.70 43.42 43.67 43.92 43.32 40.32 38.13 39.19 37.99 39.87 42.92 44.81 46.01 46.18 46.14 45.77 46.17 45.35 44.92 44.99 45.96 46.70 46.44 46.09 45.53 45.74
45.73 45.41 45.79 44.50 43.27 45.72 47.18 47.15 46.01 45.50 46.49 45.76 43.51 42.22 41.26 40.25 40.49 39.26 37.05 35.63 35.24 36.10 36.28 36.70 38.08 40.60 42.00 43.84 42.43 42.14 42.45 42.71 42.97 43.74 44.08 43.49 43.49 44.68
43.99 44.03 44.40 42.45 43.78 43.20 44.59 44.35 45.13 44.60 43.49 43.52 43.05 40.66 41.07 40.48 39.53 37.51 34.38 33.50 33.29 35.04 34.10 34.18 36.02 36.12 37.27 40.28 40.28 39.87 40.33 41.24 41.71 41.97 42.24 42.43 42.83 43.56
42.30 42.85 43.14 43.23 42.96 43.67 42.74 41.22 41.28 40.50 40.92 40.99 41.35 42.04 41.41 41.36 39.34 36.58 35.24 35.20 35.56 33.80 35.41 34.41 33.55 33.84 36.34 37.66 38.52 39.49 39.70 40.09 40.53 41.60 42.02 42.00 42.13 42.61
42.01 42.30 42.68 42.85 42.81 42.13 42.39 41.73 41.33 40.01 38.26 38.67 38.00 39.37 40.81 41.29 40.13 39.10 37.61 33.39 31.42 31.01 32.84 33.02 33.69 34.55 36.09 37.38 38.62 40.15 39.93 39.80 40.23 41.26 41.41 41.09 41.15 41.69
41.25 41.88 41.96 41.84 40.61 40.17 40.08 38.18 39.73 39.12 37.52 38.80 38.68 39.37 40.25 40.70 39.65 35.99 33.48 33.12 30.74 30.45 30.92 32.45 32.45 34.36 34.91 35.70 38.36 40.06 39.34 39.11 39.32 39.99 40.71 41.23 40.56 40.16
40.69 40.61 37.95 39.76 39.66 40.38 40.40 38.75 37.76 37.83 36.65 35.04 34.01 34.62 35.74 38.06 36.88 34.12 35.33 33.98 32.90 31.02 31.89 32.70 32.11 33.18 31.35 34.25 36.71 38.55 37.70 37.97 38.47 39.89 40.48 40.91 40.32 39.18
40.58 39.59 39.45 37.55 38.20 39.55 40.64 38.12 37.16 36.71 35.98 34.59 33.02 32.48 32.66 32.48 31.99 32.34 33.43 35.02 33.56 34.43 33.98 35.10 34.22 32.95 33.76 31.38 32.73 35.13 36.10 36.41 37.24 38.79 40.42 40.28 39.64 38.54
40.03 39.90 37.90 36.28 37.47 38.10 39.19 39.16 38.25 36.35 35.76 33.76 31.99 31.91 31.46 31.92 32.10 32.50 32.43 33.51 34.06 34.15 35.31 34.27 32.58 34.55 33.86 31.31 30.05 31.89 33.24 34.72 35.18 35.59 36.34 36.41 36.98 37.74
39.40 39.60 37.23 36.20 36.64 37.24 37.86 38.46 38.60 37.34 34.82 32.72 31.69 31.94 32.31 32.88 31.89 32.35 32.73 33.04 32.40 33.30 33.14 32.11 34.12 32.55 33.80 34.14 31.51 30.94 30.59 31.64 32.87 34.06 34.13 34.17 34.60 35.07
40.40 39.06 37.55 36.71 35.74 35.85 35.46 37.13 36.86 36.23 34.86 33.91 33.57 33.04 32.65 32.03 31.83 32.87 32.64 32.61 32.75 31.50 30.90 31.50 31.72 32.26 31.15 31.83 32.27 30.59 32.18 30.40 31.80 31.94 32.05 32.43 33.11 33.22
38.01 35.60 34.24 33.41 32.26 33.33 34.36 34.92 35.43 34.80 33.51 33.94 33.09 32.72 31.74 31.58 31.24 31.77 31.42 31.35 31.20 30.78 30.19 30.37 30.54 31.27 31.48 31.81 29.48 30.90 30.54 30.17 30.57 30.73 29.93 30.09 31.53 32.09
35.83 34.76 33.65 32.30 31.11 32.09 33.14 33.18 33.79 33.46 33.54 33.63 33.19 32.94 32.04 31.45 31.12 30.85 31.10 30.47 30.03 29.77 30.09 30.58 29.72 29.21 29.69 30.41 31.68 30.37 29.68 29.99 30.08 29.94 29.77 28.75 29.48 32.00
36.58 34.18 32.86 32.12 31.35 30.93 32.83 33.82 33.29 33.62 33.83 34.04 33.57 33.07 32.78 31.77 31.04 30.39 30.01 29.99 29.42 30.17 30.09 30.24 29.75 29.08 28.03 27.24 28.49 31.77 30.03 28.88 28.92 28.64 29.39 28.59 28.61 31.20
35.70 35.01 33.94 33.13 32.26 31.63 31.94 34.27 34.47 33.77 32.82 32.87 33.38 33.18 32.60 32.24 30.59 30.36 30.01 29.28 29.38 29.97 29.70 29.78 29.11 29.36 28.24 29.11 29.14 28.90 30.88 30.29 28.72 28.65 28.62 29.18 30.17 31.33
35.48 34.87 34.83 33.86 32.89 32.77 34.45 35.39 34.60 34.30 33.35 32.55 32.80 32.38 32.36 31.93 30.94 31.15 30.79 30.17 29.77 29.50 28.21 28.73 30.42 31.92 32.01 28.85 25.38 26.50 28.29 30.25 30.62 30.14 29.45 27.64 27.22 27.95
34.42 34.55 34.41 33.84 33.18 32.92 33.04 33.62 33.62 33.25 32.98 32.59 32.46 32.58 32.54 32.07 30.82 30.57 30.33 30.20 29.76 30.39 30.28 32.13 31.76 30.62 27.80 26.19 25.95 27.59 27.71 28.41 30.20 30.91 31.02 30.57 28.74 25.69
33.56 34.03 34.68 34.67 34.25 33.53 33.04 32.43 32.20 32.56 32.85 32.58 32.69 32.70 32.32 31.01 30.87 30.75 30.45 30.36 30.41 30.38 30.75 29.81 30.20 29.64 28.27 26.94 27.22 28.02 28.22 27.06 27.33 26.61 28.56 31.66 31.57 31.27

GFSNE_sfc_wetblb_117.txt.gz
Wetbulb
62.76 61.11 60.77 60.20 60.07 59.98 59.43 58.82 56.73 51.82 52.01 55.09 56.25 55.14 55.15 54.85 53.89 53.95 54.21 54.07 54.89 55.58 55.45 54.89 54.42 54.05 54.30 54.76 55.48 55.87 56.75 60.59 61.85 61.23 59.88 58.03 57.77 58.25
59.92 59.69 59.00 57.61 57.07 57.46 57.35 55.85 55.60 53.38 50.58 54.46 55.71 54.33 53.61 52.30 52.61 52.51 52.89 51.82 53.23 53.50 53.04 52.76 52.51 52.10 52.03 52.98 53.84 54.82 55.34 56.70 60.04 59.79 58.39 57.57 57.23 55.74
56.55 56.26 55.56 55.69 55.27 55.32 55.67 54.49 53.12 53.35 50.67 52.21 52.62 52.09 51.35 51.31 49.89 50.45 50.25 50.34 51.19 51.56 51.28 50.96 50.69 51.03 51.30 51.85 52.44 53.57 54.38 54.78 55.41 56.04 56.47 55.99 54.88 53.43
54.78 54.54 53.86 52.83 53.40 53.75 53.94 53.47 51.74 52.01 50.26 47.85 49.85 49.01 48.57 49.14 49.25 47.58 46.17 46.23 47.60 49.39 49.76 49.58 50.14 50.33 50.55 50.28 49.85 50.40 52.52 53.46 53.67 53.89 54.83 53.71 52.39 51.12
53.04 52.84 52.65 51.84 51.75 51.77 51.18 50.04 49.80 49.19 49.36 48.03 47.01 45.65 45.63 45.84 44.69 43.50 42.83 43.39 44.13 46.47 48.67 49.29 49.75 49.40 48.72 48.29 48.68 48.36 48.02 49.42 50.50 51.30 52.49 51.60 50.55 49.25
50.41 50.69 50.02 49.55 49.36 49.78 49.38 49.57 48.03 47.66 47.57 46.81 46.79 44.98 44.04 44.69 44.26 41.49 39.28 40.15 39.26 41.39 44.74 46.52 47.09 47.32 46.85 46.87 47.03 45.99 46.07 46.82 48.28 48.63 48.34 48.12 47.71 47.54
47.11 46.96 47.06 44.42 43.76 45.04 46.22 47.28 46.66 45.18 44.67 44.10 43.09 43.27 42.07 40.88 40.52 40.68 38.06 36.65 36.56 37.25 36.92 37.96 38.96 40.07 43.01 44.85 43.58 43.62 43.76 44.13 45.11 45.80 45.62 44.97 44.56 45.53
45.00 44.72 45.13 42.58 43.57 43.50 44.53 44.11 43.90 43.50 42.60 42.36 42.09 40.96 41.39 40.84 40.20 38.12 35.31 34.17 34.45 36.33 35.46 34.91 35.34 35.59 37.05 40.13 41.62 41.90 42.25 42.49 42.93 43.13 43.30 43.23 43.56 45.00
43.51 43.47 43.84 43.50 42.52 44.06 43.62 42.45 42.01 40.97 40.43 40.21 39.53 41.08 40.93 41.48 39.49 36.37 35.08 34.81 35.39 34.20 34.88 33.46 33.24 33.00 35.46 37.93 40.19 40.56 40.46 41.04 41.72 42.18 42.58 42.61 43.07 43.86
43.07 43.24 43.26 43.27 43.16 42.16 42.52 41.27 41.27 41.15 39.81 39.76 38.91 38.53 38.32 39.64 40.12 38.88 37.57 34.75 31.74 31.79 33.56 32.46 32.35 32.16 33.80 34.82 39.53 40.11 40.22 40.30 40.60 41.58 42.42 42.27 42.25 42.74
42.18 42.54 42.48 42.15 41.70 40.49 40.76 37.52 39.15 39.74 38.53 38.86 38.12 38.51 39.59 41.41 41.54 36.43 33.45 32.77 31.15 30.81 30.80 31.95 31.24 31.93 32.98 33.96 35.67 40.20 40.45 40.16 40.32 41.28 41.82 41.53 41.49 41.87
41.05 41.43 39.93 41.06 40.69 40.80 39.88 39.27 36.06 37.14 35.35 35.25 34.38 34.29 35.40 35.21 36.24 33.56 34.37 33.23 32.59 31.14 31.52 31.95 31.16 31.42 30.49 32.60 33.44 35.75 36.00 39.37 39.45 39.87 40.55 41.51 41.38 37.44
40.21 39.61 40.22 39.60 39.15 39.32 40.59 39.10 36.86 36.32 35.85 33.91 33.03 32.25 32.58 32.33 31.84 31.83 32.44 33.73 32.76 33.26 32.96 33.76 33.01 32.32 33.41 28.30 30.46 33.70 33.99 34.44 34.89 36.56 40.62 41.01 41.44 38.85
39.73 40.03 39.07 37.65 37.79 38.11 38.54 39.65 39.46 38.04 34.50 32.64 31.58 31.22 31.40 32.11 32.26 32.17 32.11 33.00 33.19 33.04 34.12 33.54 32.36 30.29 30.96 26.50 26.64 29.75 30.99 33.62 33.68 33.63 34.48 39.82 40.89 40.33
40.48 40.28 39.74 37.39 37.17 37.03 38.01 38.83 38.88 36.67 33.91 31.56 30.86 30.93 31.22 32.77 31.91 32.23 32.50 32.52 32.20 32.48 32.43 30.62 32.72 31.98 31.92 30.81 26.26 27.04 28.92 30.83 31.05 31.20 31.16 31.59 31.94 33.45
41.11 39.41 39.09 38.02 37.92 36.54 35.30 35.38 35.08 34.81 33.18 32.43 32.00 31.69 31.11 29.94 29.55 30.57 30.08 32.10 31.50 30.00 29.56 26.96 27.64 29.76 27.35 29.14 28.90 27.88 28.92 25.57 28.99 29.98 30.55 30.45 31.06 31.42
39.34 35.76 34.53 33.17 32.93 32.55 32.66 33.36 33.41 33.29 31.70 31.79 31.59 30.96 30.60 30.06 29.28 29.78 28.08 30.18 27.82 29.31 28.84 27.52 29.24 29.69 28.73 26.38 24.67 28.47 28.86 28.40 28.61 29.25 28.91 28.83 30.09 30.91
36.42 34.17 34.09 33.54 31.92 31.66 31.27 31.84 31.85 32.62 31.56 31.87 31.52 30.84 29.74 28.75 28.07 29.31 27.65 25.83 25.58 26.97 27.39 29.60 26.71 26.02 26.33 28.34 31.28 27.51 27.15 27.29 28.08 29.14 28.57 27.59 28.67 31.35
34.77 33.91 33.69 33.30 32.36 31.46 31.54 32.14 32.56 32.06 31.33 31.87 30.96 30.01 29.32 30.80 29.89 27.20 27.65 25.69 25.54 26.86 28.22 28.58 26.68 24.79 23.38 22.82 26.66 32.69 26.71 27.08 28.95 28.12 28.66 28.59 27.67 29.67
35.88 35.04 34.21 33.87 33.15 32.43 31.97 32.19 33.06 33.21 31.47 30.84 30.51 29.60 28.55 28.40 29.23 28.52 26.74 24.34 24.72 26.40 27.50 28.42 25.97 26.18 25.10 25.84 26.50 26.72 32.09 29.42 28.15 27.69 28.14 28.88 29.53 32.36
35.90 35.25 35.13 34.44 33.55 32.99 32.77 32.86 33.32 33.82 32.64 31.14 30.24 28.89 28.94 29.02 28.05 27.87 27.34 30.15 28.64 24.77 25.39 26.84 28.60 32.47 28.92 27.72 24.15 24.92 26.54 31.66 31.26 28.54 28.13 26.66 26.28 27.05
34.20 34.48 33.96 34.07 33.74 33.40 33.12 33.37 33.30 33.18 32.86 32.17 31.59 31.35 30.93 30.36 28.18 27.25 27.84 27.18 27.37 27.32 27.20 26.52 27.50 29.13 27.52 25.78 24.75 25.22 25.38 27.32 30.52 31.71 32.24 30.96 26.54 23.56
32.92 33.17 33.66 33.85 33.87 33.63 33.01 32.61 32.33 32.39 32.47 32.22 32.12 31.62 31.01 29.78 30.12 28.66 28.01 27.46 26.98 26.71 27.02 26.21 27.98 29.06 27.41 26.36 26.00 25.43 25.68 25.45 26.84 26.21 27.77 31.92 32.24 32.32